﻿<?xml version="1.0" encoding="UTF-8"?>
<gpx version="v1.1.5" creator="iTravel Tech Inc. - http://www.itravel-tech.com" xmlns:xsi="http://www.w3.org/2001/XMLSchema-instance" xmlns="http://www.topografix.com/GPX/1/1" xsi:schemaLocation="http://www.topografix.com/GPX/1/1 http://www.topografix.com/GPX/1/1/gpx.xsd http://www.topografix.com/GPX/gpx_overlay/0/3 http://www.topografix.com/GPX/gpx_overlay/0/3/gpx_overlay.xsd http://www.topografix.com/GPX/gpx_modified/0/1 http://www.topografix.com/GPX/gpx_modified/0/1/gpx_modified.xsd">
<trk>
<name>Holux2012/05/03_13:34</name>
<trkseg>
<trkpt lat="43.146038" lon="19.298264">
<ele>113.237366</ele>
<time>2012-05-03T10:34:31Z</time>
<desc>lat.=43.146038, lon.=19.298264, Alt.=113.237366m. Speed=0.468000m/h.</desc>
<speed>0.130000</speed>
</trkpt>
<trkpt lat="43.149395" lon="19.299833">
<ele>827.492676</ele>
<time>2012-05-03T10:34:36Z</time>
<desc>lat.=43.149395, lon.=19.299833, Alt.=827.492676m. Speed=0.432000m/h.</desc>
<speed>0.120000</speed>
</trkpt>
<trkpt lat="43.149342" lon="19.299761">
<ele>825.992676</ele>
<time>2012-05-03T10:34:41Z</time>
<desc>lat.=43.149342, lon.=19.299761, Alt.=825.992676m. Speed=0.540000m/h.</desc>
<speed>0.150000</speed>
</trkpt>
<trkpt lat="43.149311" lon="19.299726">
<ele>826.008301</ele>
<time>2012-05-03T10:34:46Z</time>
<desc>lat.=43.149311, lon.=19.299726, Alt.=826.008301m. Speed=1.080000m/h.</desc>
<speed>0.300000</speed>
</trkpt>
<trkpt lat="43.149311" lon="19.299715">
<ele>825.539551</ele>
<time>2012-05-03T10:34:51Z</time>
<desc>lat.=43.149311, lon.=19.299715, Alt.=825.539551m. Speed=0.720000m/h.</desc>
<speed>0.200000</speed>
</trkpt>
<trkpt lat="43.149315" lon="19.299723">
<ele>825.242676</ele>
<time>2012-05-03T10:34:56Z</time>
<desc>lat.=43.149315, lon.=19.299723, Alt.=825.242676m. Speed=1.008000m/h.</desc>
<speed>0.280000</speed>
</trkpt>
<trkpt lat="43.149296" lon="19.299711">
<ele>824.727051</ele>
<time>2012-05-03T10:35:01Z</time>
<desc>lat.=43.149296, lon.=19.299711, Alt.=824.727051m. Speed=0.756000m/h.</desc>
<speed>0.210000</speed>
</trkpt>
<trkpt lat="43.149300" lon="19.299721">
<ele>824.336426</ele>
<time>2012-05-03T10:35:06Z</time>
<desc>lat.=43.149300, lon.=19.299721, Alt.=824.336426m. Speed=0.864000m/h.</desc>
<speed>0.240000</speed>
</trkpt>
<trkpt lat="43.149296" lon="19.299732">
<ele>823.445801</ele>
<time>2012-05-03T10:35:11Z</time>
<desc>lat.=43.149296, lon.=19.299732, Alt.=823.445801m. Speed=0.288000m/h.</desc>
<speed>0.080000</speed>
</trkpt>
<trkpt lat="43.149300" lon="19.299753">
<ele>823.383301</ele>
<time>2012-05-03T10:35:16Z</time>
<desc>lat.=43.149300, lon.=19.299753, Alt.=823.383301m. Speed=0.684000m/h.</desc>
<speed>0.190000</speed>
</trkpt>
<trkpt lat="43.149300" lon="19.299757">
<ele>823.383301</ele>
<time>2012-05-03T10:35:21Z</time>
<desc>lat.=43.149300, lon.=19.299757, Alt.=823.383301m. Speed=0.648000m/h.</desc>
<speed>0.180000</speed>
</trkpt>
<trkpt lat="43.149303" lon="19.299761">
<ele>823.367676</ele>
<time>2012-05-03T10:35:26Z</time>
<desc>lat.=43.149303, lon.=19.299761, Alt.=823.367676m. Speed=0.216000m/h.</desc>
<speed>0.060000</speed>
</trkpt>
<trkpt lat="43.149300" lon="19.299755">
<ele>823.336426</ele>
<time>2012-05-03T10:35:31Z</time>
<desc>lat.=43.149300, lon.=19.299755, Alt.=823.336426m. Speed=0.432000m/h.</desc>
<speed>0.120000</speed>
</trkpt>
<trkpt lat="43.149296" lon="19.299753">
<ele>823.336426</ele>
<time>2012-05-03T10:35:36Z</time>
<desc>lat.=43.149296, lon.=19.299753, Alt.=823.336426m. Speed=0.216000m/h.</desc>
<speed>0.060000</speed>
</trkpt>
<trkpt lat="43.149296" lon="19.299763">
<ele>823.336426</ele>
<time>2012-05-03T10:35:41Z</time>
<desc>lat.=43.149296, lon.=19.299763, Alt.=823.336426m. Speed=0.792000m/h.</desc>
<speed>0.220000</speed>
</trkpt>
<trkpt lat="43.149300" lon="19.299772">
<ele>823.336426</ele>
<time>2012-05-03T10:35:46Z</time>
<desc>lat.=43.149300, lon.=19.299772, Alt.=823.336426m. Speed=0.972000m/h.</desc>
<speed>0.270000</speed>
</trkpt>
<trkpt lat="43.149307" lon="19.299772">
<ele>823.336426</ele>
<time>2012-05-03T10:35:51Z</time>
<desc>lat.=43.149307, lon.=19.299772, Alt.=823.336426m. Speed=0.288000m/h.</desc>
<speed>0.080000</speed>
</trkpt>
<trkpt lat="43.149307" lon="19.299765">
<ele>823.336426</ele>
<time>2012-05-03T10:35:56Z</time>
<desc>lat.=43.149307, lon.=19.299765, Alt.=823.336426m. Speed=0.072000m/h.</desc>
<speed>0.020000</speed>
</trkpt>
<trkpt lat="43.149307" lon="19.299768">
<ele>823.336426</ele>
<time>2012-05-03T10:36:01Z</time>
<desc>lat.=43.149307, lon.=19.299768, Alt.=823.336426m. Speed=1.044000m/h.</desc>
<speed>0.290000</speed>
</trkpt>
<trkpt lat="43.149311" lon="19.299778">
<ele>823.320801</ele>
<time>2012-05-03T10:36:06Z</time>
<desc>lat.=43.149311, lon.=19.299778, Alt.=823.320801m. Speed=0.144000m/h.</desc>
<speed>0.040000</speed>
</trkpt>
<trkpt lat="43.149307" lon="19.299786">
<ele>823.320801</ele>
<time>2012-05-03T10:36:11Z</time>
<desc>lat.=43.149307, lon.=19.299786, Alt.=823.320801m. Speed=0.360000m/h.</desc>
<speed>0.100000</speed>
</trkpt>
<trkpt lat="43.149300" lon="19.299793">
<ele>823.414551</ele>
<time>2012-05-03T10:36:16Z</time>
<desc>lat.=43.149300, lon.=19.299793, Alt.=823.414551m. Speed=0.216000m/h.</desc>
<speed>0.060000</speed>
</trkpt>
<trkpt lat="43.149288" lon="19.299784">
<ele>823.414551</ele>
<time>2012-05-03T10:36:21Z</time>
<desc>lat.=43.149288, lon.=19.299784, Alt.=823.414551m. Speed=1.260000m/h.</desc>
<speed>0.350000</speed>
</trkpt>
<trkpt lat="43.149055" lon="19.299789">
<ele>814.039551</ele>
<time>2012-05-03T10:36:26Z</time>
<desc>lat.=43.149055, lon.=19.299789, Alt.=814.039551m. Speed=2.196000m/h.</desc>
<speed>0.610000</speed>
</trkpt>
<trkpt lat="43.148983" lon="19.299707">
<ele>810.367676</ele>
<time>2012-05-03T10:36:31Z</time>
<desc>lat.=43.148983, lon.=19.299707, Alt.=810.367676m. Speed=2.016000m/h.</desc>
<speed>0.560000</speed>
</trkpt>
<trkpt lat="43.148903" lon="19.299736">
<ele>801.742676</ele>
<time>2012-05-03T10:36:36Z</time>
<desc>lat.=43.148903, lon.=19.299736, Alt.=801.742676m. Speed=3.312000m/h.</desc>
<speed>0.920000</speed>
</trkpt>
<trkpt lat="43.148907" lon="19.299717">
<ele>791.977051</ele>
<time>2012-05-03T10:36:41Z</time>
<desc>lat.=43.148907, lon.=19.299717, Alt.=791.977051m. Speed=1.764000m/h.</desc>
<speed>0.490000</speed>
</trkpt>
<trkpt lat="43.148937" lon="19.299610">
<ele>784.758301</ele>
<time>2012-05-03T10:36:46Z</time>
<desc>lat.=43.148937, lon.=19.299610, Alt.=784.758301m. Speed=2.628000m/h.</desc>
<speed>0.730000</speed>
</trkpt>
<trkpt lat="43.148922" lon="19.299547">
<ele>780.398926</ele>
<time>2012-05-03T10:36:51Z</time>
<desc>lat.=43.148922, lon.=19.299547, Alt.=780.398926m. Speed=3.816000m/h.</desc>
<speed>1.060000</speed>
</trkpt>
<trkpt lat="43.148918" lon="19.299503">
<ele>775.148926</ele>
<time>2012-05-03T10:36:56Z</time>
<desc>lat.=43.148918, lon.=19.299503, Alt.=775.148926m. Speed=3.240000m/h.</desc>
<speed>0.900000</speed>
</trkpt>
<trkpt lat="43.148926" lon="19.299471">
<ele>773.836426</ele>
<time>2012-05-03T10:37:01Z</time>
<desc>lat.=43.148926, lon.=19.299471, Alt.=773.836426m. Speed=2.016000m/h.</desc>
<speed>0.560000</speed>
</trkpt>
<trkpt lat="43.148945" lon="19.299540">
<ele>773.586426</ele>
<time>2012-05-03T10:37:06Z</time>
<desc>lat.=43.148945, lon.=19.299540, Alt.=773.586426m. Speed=0.576000m/h.</desc>
<speed>0.160000</speed>
</trkpt>
<trkpt lat="43.148983" lon="19.299488">
<ele>772.961426</ele>
<time>2012-05-03T10:37:11Z</time>
<desc>lat.=43.148983, lon.=19.299488, Alt.=772.961426m. Speed=3.060000m/h.</desc>
<speed>0.850000</speed>
</trkpt>
<trkpt lat="43.148998" lon="19.299517">
<ele>772.195801</ele>
<time>2012-05-03T10:37:16Z</time>
<desc>lat.=43.148998, lon.=19.299517, Alt.=772.195801m. Speed=0.756000m/h.</desc>
<speed>0.210000</speed>
</trkpt>
<trkpt lat="43.149021" lon="19.299528">
<ele>771.742676</ele>
<time>2012-05-03T10:37:21Z</time>
<desc>lat.=43.149021, lon.=19.299528, Alt.=771.742676m. Speed=0.756000m/h.</desc>
<speed>0.210000</speed>
</trkpt>
<trkpt lat="43.149025" lon="19.299528">
<ele>771.852051</ele>
<time>2012-05-03T10:37:26Z</time>
<desc>lat.=43.149025, lon.=19.299528, Alt.=771.852051m. Speed=0.972000m/h.</desc>
<speed>0.270000</speed>
</trkpt>
<trkpt lat="43.149025" lon="19.299564">
<ele>771.695801</ele>
<time>2012-05-03T10:37:31Z</time>
<desc>lat.=43.149025, lon.=19.299564, Alt.=771.695801m. Speed=0.972000m/h.</desc>
<speed>0.270000</speed>
</trkpt>
<trkpt lat="43.149048" lon="19.299589">
<ele>771.602051</ele>
<time>2012-05-03T10:37:36Z</time>
<desc>lat.=43.149048, lon.=19.299589, Alt.=771.602051m. Speed=0.756000m/h.</desc>
<speed>0.210000</speed>
</trkpt>
<trkpt lat="43.149029" lon="19.299623">
<ele>771.320801</ele>
<time>2012-05-03T10:37:41Z</time>
<desc>lat.=43.149029, lon.=19.299623, Alt.=771.320801m. Speed=1.296000m/h.</desc>
<speed>0.360000</speed>
</trkpt>
<trkpt lat="43.149025" lon="19.299643">
<ele>770.852051</ele>
<time>2012-05-03T10:37:46Z</time>
<desc>lat.=43.149025, lon.=19.299643, Alt.=770.852051m. Speed=0.720000m/h.</desc>
<speed>0.200000</speed>
</trkpt>
<trkpt lat="43.149025" lon="19.299654">
<ele>770.883301</ele>
<time>2012-05-03T10:37:51Z</time>
<desc>lat.=43.149025, lon.=19.299654, Alt.=770.883301m. Speed=0.936000m/h.</desc>
<speed>0.260000</speed>
</trkpt>
<trkpt lat="43.149021" lon="19.299667">
<ele>770.930176</ele>
<time>2012-05-03T10:37:56Z</time>
<desc>lat.=43.149021, lon.=19.299667, Alt.=770.930176m. Speed=0.936000m/h.</desc>
<speed>0.260000</speed>
</trkpt>
<trkpt lat="43.149014" lon="19.299690">
<ele>770.617676</ele>
<time>2012-05-03T10:38:01Z</time>
<desc>lat.=43.149014, lon.=19.299690, Alt.=770.617676m. Speed=1.296000m/h.</desc>
<speed>0.360000</speed>
</trkpt>
<trkpt lat="43.149033" lon="19.299692">
<ele>769.367676</ele>
<time>2012-05-03T10:38:06Z</time>
<desc>lat.=43.149033, lon.=19.299692, Alt.=769.367676m. Speed=1.152000m/h.</desc>
<speed>0.320000</speed>
</trkpt>
<trkpt lat="43.149044" lon="19.299671">
<ele>768.898926</ele>
<time>2012-05-03T10:38:11Z</time>
<desc>lat.=43.149044, lon.=19.299671, Alt.=768.898926m. Speed=0.972000m/h.</desc>
<speed>0.270000</speed>
</trkpt>
<trkpt lat="43.149052" lon="19.299679">
<ele>768.961426</ele>
<time>2012-05-03T10:38:16Z</time>
<desc>lat.=43.149052, lon.=19.299679, Alt.=768.961426m. Speed=0.936000m/h.</desc>
<speed>0.260000</speed>
</trkpt>
<trkpt lat="43.149067" lon="19.299690">
<ele>769.242676</ele>
<time>2012-05-03T10:38:21Z</time>
<desc>lat.=43.149067, lon.=19.299690, Alt.=769.242676m. Speed=1.224000m/h.</desc>
<speed>0.340000</speed>
</trkpt>
<trkpt lat="43.149055" lon="19.299715">
<ele>768.102051</ele>
<time>2012-05-03T10:38:26Z</time>
<desc>lat.=43.149055, lon.=19.299715, Alt.=768.102051m. Speed=0.828000m/h.</desc>
<speed>0.230000</speed>
</trkpt>
<trkpt lat="43.149052" lon="19.299726">
<ele>768.133301</ele>
<time>2012-05-03T10:38:31Z</time>
<desc>lat.=43.149052, lon.=19.299726, Alt.=768.133301m. Speed=0.720000m/h.</desc>
<speed>0.200000</speed>
</trkpt>
<trkpt lat="43.149048" lon="19.299738">
<ele>768.164551</ele>
<time>2012-05-03T10:38:36Z</time>
<desc>lat.=43.149048, lon.=19.299738, Alt.=768.164551m. Speed=1.548000m/h.</desc>
<speed>0.430000</speed>
</trkpt>
<trkpt lat="43.149048" lon="19.299707">
<ele>767.398926</ele>
<time>2012-05-03T10:38:41Z</time>
<desc>lat.=43.149048, lon.=19.299707, Alt.=767.398926m. Speed=0.432000m/h.</desc>
<speed>0.120000</speed>
</trkpt>
<trkpt lat="43.149040" lon="19.299677">
<ele>767.164551</ele>
<time>2012-05-03T10:38:46Z</time>
<desc>lat.=43.149040, lon.=19.299677, Alt.=767.164551m. Speed=0.252000m/h.</desc>
<speed>0.070000</speed>
</trkpt>
<trkpt lat="43.149044" lon="19.299679">
<ele>767.180176</ele>
<time>2012-05-03T10:38:51Z</time>
<desc>lat.=43.149044, lon.=19.299679, Alt.=767.180176m. Speed=0.648000m/h.</desc>
<speed>0.180000</speed>
</trkpt>
<trkpt lat="43.149044" lon="19.299685">
<ele>767.195801</ele>
<time>2012-05-03T10:38:56Z</time>
<desc>lat.=43.149044, lon.=19.299685, Alt.=767.195801m. Speed=0.612000m/h.</desc>
<speed>0.170000</speed>
</trkpt>
<trkpt lat="43.149044" lon="19.299692">
<ele>767.211426</ele>
<time>2012-05-03T10:39:01Z</time>
<desc>lat.=43.149044, lon.=19.299692, Alt.=767.211426m. Speed=0.684000m/h.</desc>
<speed>0.190000</speed>
</trkpt>
<trkpt lat="43.149044" lon="19.299704">
<ele>767.211426</ele>
<time>2012-05-03T10:39:06Z</time>
<desc>lat.=43.149044, lon.=19.299704, Alt.=767.211426m. Speed=0.864000m/h.</desc>
<speed>0.240000</speed>
</trkpt>
<trkpt lat="43.149044" lon="19.299713">
<ele>767.180176</ele>
<time>2012-05-03T10:39:11Z</time>
<desc>lat.=43.149044, lon.=19.299713, Alt.=767.180176m. Speed=0.684000m/h.</desc>
<speed>0.190000</speed>
</trkpt>
<trkpt lat="43.149040" lon="19.299713">
<ele>767.070801</ele>
<time>2012-05-03T10:39:16Z</time>
<desc>lat.=43.149040, lon.=19.299713, Alt.=767.070801m. Speed=0.684000m/h.</desc>
<speed>0.190000</speed>
</trkpt>
<trkpt lat="43.149044" lon="19.299726">
<ele>767.102051</ele>
<time>2012-05-03T10:39:21Z</time>
<desc>lat.=43.149044, lon.=19.299726, Alt.=767.102051m. Speed=0.864000m/h.</desc>
<speed>0.240000</speed>
</trkpt>
<trkpt lat="43.149048" lon="19.299738">
<ele>767.133301</ele>
<time>2012-05-03T10:39:26Z</time>
<desc>lat.=43.149048, lon.=19.299738, Alt.=767.133301m. Speed=1.260000m/h.</desc>
<speed>0.350000</speed>
</trkpt>
<trkpt lat="43.149025" lon="19.299728">
<ele>767.133301</ele>
<time>2012-05-03T10:39:31Z</time>
<desc>lat.=43.149025, lon.=19.299728, Alt.=767.133301m. Speed=0.684000m/h.</desc>
<speed>0.190000</speed>
</trkpt>
<trkpt lat="43.149010" lon="19.299711">
<ele>767.039551</ele>
<time>2012-05-03T10:39:36Z</time>
<desc>lat.=43.149010, lon.=19.299711, Alt.=767.039551m. Speed=0.936000m/h.</desc>
<speed>0.260000</speed>
</trkpt>
<trkpt lat="43.149025" lon="19.299692">
<ele>766.898926</ele>
<time>2012-05-03T10:39:41Z</time>
<desc>lat.=43.149025, lon.=19.299692, Alt.=766.898926m. Speed=0.432000m/h.</desc>
<speed>0.120000</speed>
</trkpt>
<trkpt lat="43.149025" lon="19.299698">
<ele>766.914551</ele>
<time>2012-05-03T10:39:46Z</time>
<desc>lat.=43.149025, lon.=19.299698, Alt.=766.914551m. Speed=0.144000m/h.</desc>
<speed>0.040000</speed>
</trkpt>
<trkpt lat="43.149029" lon="19.299696">
<ele>766.945801</ele>
<time>2012-05-03T10:39:51Z</time>
<desc>lat.=43.149029, lon.=19.299696, Alt.=766.945801m. Speed=0.612000m/h.</desc>
<speed>0.170000</speed>
</trkpt>
<trkpt lat="43.149036" lon="19.299707">
<ele>766.961426</ele>
<time>2012-05-03T10:39:56Z</time>
<desc>lat.=43.149036, lon.=19.299707, Alt.=766.961426m. Speed=0.900000m/h.</desc>
<speed>0.250000</speed>
</trkpt>
<trkpt lat="43.149021" lon="19.299698">
<ele>766.633301</ele>
<time>2012-05-03T10:40:01Z</time>
<desc>lat.=43.149021, lon.=19.299698, Alt.=766.633301m. Speed=0.468000m/h.</desc>
<speed>0.130000</speed>
</trkpt>
<trkpt lat="43.149033" lon="19.299706">
<ele>766.602051</ele>
<time>2012-05-03T10:40:06Z</time>
<desc>lat.=43.149033, lon.=19.299706, Alt.=766.602051m. Speed=1.620000m/h.</desc>
<speed>0.450000</speed>
</trkpt>
<trkpt lat="43.149040" lon="19.299715">
<ele>766.367676</ele>
<time>2012-05-03T10:40:11Z</time>
<desc>lat.=43.149040, lon.=19.299715, Alt.=766.367676m. Speed=1.476000m/h.</desc>
<speed>0.410000</speed>
</trkpt>
<trkpt lat="43.149071" lon="19.299704">
<ele>766.180176</ele>
<time>2012-05-03T10:40:16Z</time>
<desc>lat.=43.149071, lon.=19.299704, Alt.=766.180176m. Speed=1.584000m/h.</desc>
<speed>0.440000</speed>
</trkpt>
<trkpt lat="43.149078" lon="19.299713">
<ele>766.211426</ele>
<time>2012-05-03T10:40:21Z</time>
<desc>lat.=43.149078, lon.=19.299713, Alt.=766.211426m. Speed=1.116000m/h.</desc>
<speed>0.310000</speed>
</trkpt>
<trkpt lat="43.149067" lon="19.299719">
<ele>766.180176</ele>
<time>2012-05-03T10:40:26Z</time>
<desc>lat.=43.149067, lon.=19.299719, Alt.=766.180176m. Speed=0.900000m/h.</desc>
<speed>0.250000</speed>
</trkpt>
<trkpt lat="43.149059" lon="19.299765">
<ele>766.211426</ele>
<time>2012-05-03T10:40:31Z</time>
<desc>lat.=43.149059, lon.=19.299765, Alt.=766.211426m. Speed=2.124000m/h.</desc>
<speed>0.590000</speed>
</trkpt>
<trkpt lat="43.148998" lon="19.299801">
<ele>765.992676</ele>
<time>2012-05-03T10:40:36Z</time>
<desc>lat.=43.148998, lon.=19.299801, Alt.=765.992676m. Speed=4.932000m/h.</desc>
<speed>1.370000</speed>
</trkpt>
<trkpt lat="43.148960" lon="19.299805">
<ele>765.820801</ele>
<time>2012-05-03T10:40:41Z</time>
<desc>lat.=43.148960, lon.=19.299805, Alt.=765.820801m. Speed=1.908000m/h.</desc>
<speed>0.530000</speed>
</trkpt>
<trkpt lat="43.148956" lon="19.299793">
<ele>765.430176</ele>
<time>2012-05-03T10:40:46Z</time>
<desc>lat.=43.148956, lon.=19.299793, Alt.=765.430176m. Speed=0.468000m/h.</desc>
<speed>0.130000</speed>
</trkpt>
<trkpt lat="43.148964" lon="19.299797">
<ele>765.367676</ele>
<time>2012-05-03T10:40:51Z</time>
<desc>lat.=43.148964, lon.=19.299797, Alt.=765.367676m. Speed=0.180000m/h.</desc>
<speed>0.050000</speed>
</trkpt>
<trkpt lat="43.148983" lon="19.299713">
<ele>764.758301</ele>
<time>2012-05-03T10:40:56Z</time>
<desc>lat.=43.148983, lon.=19.299713, Alt.=764.758301m. Speed=2.340000m/h.</desc>
<speed>0.650000</speed>
</trkpt>
<trkpt lat="43.148983" lon="19.299690">
<ele>764.117676</ele>
<time>2012-05-03T10:41:01Z</time>
<desc>lat.=43.148983, lon.=19.299690, Alt.=764.117676m. Speed=1.584000m/h.</desc>
<speed>0.440000</speed>
</trkpt>
<trkpt lat="43.148972" lon="19.299633">
<ele>762.648926</ele>
<time>2012-05-03T10:41:06Z</time>
<desc>lat.=43.148972, lon.=19.299633, Alt.=762.648926m. Speed=1.260000m/h.</desc>
<speed>0.350000</speed>
</trkpt>
<trkpt lat="43.148975" lon="19.299637">
<ele>762.305176</ele>
<time>2012-05-03T10:41:11Z</time>
<desc>lat.=43.148975, lon.=19.299637, Alt.=762.305176m. Speed=0.144000m/h.</desc>
<speed>0.040000</speed>
</trkpt>
<trkpt lat="43.148983" lon="19.299639">
<ele>762.305176</ele>
<time>2012-05-03T10:41:16Z</time>
<desc>lat.=43.148983, lon.=19.299639, Alt.=762.305176m. Speed=0.216000m/h.</desc>
<speed>0.060000</speed>
</trkpt>
<trkpt lat="43.148979" lon="19.299641">
<ele>762.289551</ele>
<time>2012-05-03T10:41:21Z</time>
<desc>lat.=43.148979, lon.=19.299641, Alt.=762.289551m. Speed=2.196000m/h.</desc>
<speed>0.610000</speed>
</trkpt>
<trkpt lat="43.148964" lon="19.299631">
<ele>762.305176</ele>
<time>2012-05-03T10:41:26Z</time>
<desc>lat.=43.148964, lon.=19.299631, Alt.=762.305176m. Speed=1.440000m/h.</desc>
<speed>0.400000</speed>
</trkpt>
<trkpt lat="43.148960" lon="19.299616">
<ele>761.789551</ele>
<time>2012-05-03T10:41:31Z</time>
<desc>lat.=43.148960, lon.=19.299616, Alt.=761.789551m. Speed=0.792000m/h.</desc>
<speed>0.220000</speed>
</trkpt>
<trkpt lat="43.148945" lon="19.299610">
<ele>761.758301</ele>
<time>2012-05-03T10:41:36Z</time>
<desc>lat.=43.148945, lon.=19.299610, Alt.=761.758301m. Speed=1.116000m/h.</desc>
<speed>0.310000</speed>
</trkpt>
<trkpt lat="43.148937" lon="19.299587">
<ele>761.711426</ele>
<time>2012-05-03T10:41:41Z</time>
<desc>lat.=43.148937, lon.=19.299587, Alt.=761.711426m. Speed=1.368000m/h.</desc>
<speed>0.380000</speed>
</trkpt>
<trkpt lat="43.148926" lon="19.299551">
<ele>761.492676</ele>
<time>2012-05-03T10:41:46Z</time>
<desc>lat.=43.148926, lon.=19.299551, Alt.=761.492676m. Speed=1.404000m/h.</desc>
<speed>0.390000</speed>
</trkpt>
<trkpt lat="43.148918" lon="19.299526">
<ele>761.289551</ele>
<time>2012-05-03T10:41:51Z</time>
<desc>lat.=43.148918, lon.=19.299526, Alt.=761.289551m. Speed=1.764000m/h.</desc>
<speed>0.490000</speed>
</trkpt>
<trkpt lat="43.148926" lon="19.299520">
<ele>760.992676</ele>
<time>2012-05-03T10:41:56Z</time>
<desc>lat.=43.148926, lon.=19.299520, Alt.=760.992676m. Speed=1.188000m/h.</desc>
<speed>0.330000</speed>
</trkpt>
<trkpt lat="43.148918" lon="19.299534">
<ele>761.008301</ele>
<time>2012-05-03T10:42:01Z</time>
<desc>lat.=43.148918, lon.=19.299534, Alt.=761.008301m. Speed=0.288000m/h.</desc>
<speed>0.080000</speed>
</trkpt>
<trkpt lat="43.148918" lon="19.299528">
<ele>761.055176</ele>
<time>2012-05-03T10:42:06Z</time>
<desc>lat.=43.148918, lon.=19.299528, Alt.=761.055176m. Speed=0.972000m/h.</desc>
<speed>0.270000</speed>
</trkpt>
<trkpt lat="43.148918" lon="19.299530">
<ele>761.070801</ele>
<time>2012-05-03T10:42:11Z</time>
<desc>lat.=43.148918, lon.=19.299530, Alt.=761.070801m. Speed=0.648000m/h.</desc>
<speed>0.180000</speed>
</trkpt>
<trkpt lat="43.148914" lon="19.299526">
<ele>761.070801</ele>
<time>2012-05-03T10:42:16Z</time>
<desc>lat.=43.148914, lon.=19.299526, Alt.=761.070801m. Speed=1.044000m/h.</desc>
<speed>0.290000</speed>
</trkpt>
<trkpt lat="43.148922" lon="19.299599">
<ele>761.039551</ele>
<time>2012-05-03T10:42:21Z</time>
<desc>lat.=43.148922, lon.=19.299599, Alt.=761.039551m. Speed=2.340000m/h.</desc>
<speed>0.650000</speed>
</trkpt>
<trkpt lat="43.148907" lon="19.299614">
<ele>760.758301</ele>
<time>2012-05-03T10:42:26Z</time>
<desc>lat.=43.148907, lon.=19.299614, Alt.=760.758301m. Speed=0.864000m/h.</desc>
<speed>0.240000</speed>
</trkpt>
<trkpt lat="43.148865" lon="19.299654">
<ele>760.523926</ele>
<time>2012-05-03T10:42:31Z</time>
<desc>lat.=43.148865, lon.=19.299654, Alt.=760.523926m. Speed=2.160000m/h.</desc>
<speed>0.600000</speed>
</trkpt>
<trkpt lat="43.148869" lon="19.299646">
<ele>760.461426</ele>
<time>2012-05-03T10:42:36Z</time>
<desc>lat.=43.148869, lon.=19.299646, Alt.=760.461426m. Speed=1.332000m/h.</desc>
<speed>0.370000</speed>
</trkpt>
<trkpt lat="43.148872" lon="19.299641">
<ele>760.242676</ele>
<time>2012-05-03T10:42:41Z</time>
<desc>lat.=43.148872, lon.=19.299641, Alt.=760.242676m. Speed=0.684000m/h.</desc>
<speed>0.190000</speed>
</trkpt>
<trkpt lat="43.148880" lon="19.299627">
<ele>760.070801</ele>
<time>2012-05-03T10:42:46Z</time>
<desc>lat.=43.148880, lon.=19.299627, Alt.=760.070801m. Speed=1.116000m/h.</desc>
<speed>0.310000</speed>
</trkpt>
<trkpt lat="43.148960" lon="19.299713">
<ele>760.008301</ele>
<time>2012-05-03T10:42:51Z</time>
<desc>lat.=43.148960, lon.=19.299713, Alt.=760.008301m. Speed=2.304000m/h.</desc>
<speed>0.640000</speed>
</trkpt>
<trkpt lat="43.148972" lon="19.299730">
<ele>760.008301</ele>
<time>2012-05-03T10:42:56Z</time>
<desc>lat.=43.148972, lon.=19.299730, Alt.=760.008301m. Speed=2.448000m/h.</desc>
<speed>0.680000</speed>
</trkpt>
<trkpt lat="43.148956" lon="19.299774">
<ele>759.258301</ele>
<time>2012-05-03T10:43:01Z</time>
<desc>lat.=43.148956, lon.=19.299774, Alt.=759.258301m. Speed=2.772000m/h.</desc>
<speed>0.770000</speed>
</trkpt>
<trkpt lat="43.148952" lon="19.299757">
<ele>759.586426</ele>
<time>2012-05-03T10:43:06Z</time>
<desc>lat.=43.148952, lon.=19.299757, Alt.=759.586426m. Speed=0.468000m/h.</desc>
<speed>0.130000</speed>
</trkpt>
<trkpt lat="43.148972" lon="19.299692">
<ele>759.023926</ele>
<time>2012-05-03T10:43:11Z</time>
<desc>lat.=43.148972, lon.=19.299692, Alt.=759.023926m. Speed=2.988000m/h.</desc>
<speed>0.830000</speed>
</trkpt>
<trkpt lat="43.148998" lon="19.299635">
<ele>758.742676</ele>
<time>2012-05-03T10:43:16Z</time>
<desc>lat.=43.148998, lon.=19.299635, Alt.=758.742676m. Speed=2.736000m/h.</desc>
<speed>0.760000</speed>
</trkpt>
<trkpt lat="43.148979" lon="19.299585">
<ele>758.711426</ele>
<time>2012-05-03T10:43:21Z</time>
<desc>lat.=43.148979, lon.=19.299585, Alt.=758.711426m. Speed=1.656000m/h.</desc>
<speed>0.460000</speed>
</trkpt>
<trkpt lat="43.148964" lon="19.299549">
<ele>758.836426</ele>
<time>2012-05-03T10:43:26Z</time>
<desc>lat.=43.148964, lon.=19.299549, Alt.=758.836426m. Speed=1.512000m/h.</desc>
<speed>0.420000</speed>
</trkpt>
<trkpt lat="43.148949" lon="19.299549">
<ele>758.648926</ele>
<time>2012-05-03T10:43:31Z</time>
<desc>lat.=43.148949, lon.=19.299549, Alt.=758.648926m. Speed=1.080000m/h.</desc>
<speed>0.300000</speed>
</trkpt>
<trkpt lat="43.148952" lon="19.299614">
<ele>758.680176</ele>
<time>2012-05-03T10:43:36Z</time>
<desc>lat.=43.148952, lon.=19.299614, Alt.=758.680176m. Speed=1.044000m/h.</desc>
<speed>0.290000</speed>
</trkpt>
<trkpt lat="43.148956" lon="19.299643">
<ele>758.914551</ele>
<time>2012-05-03T10:43:41Z</time>
<desc>lat.=43.148956, lon.=19.299643, Alt.=758.914551m. Speed=0.468000m/h.</desc>
<speed>0.130000</speed>
</trkpt>
<trkpt lat="43.148968" lon="19.299664">
<ele>759.148926</ele>
<time>2012-05-03T10:43:46Z</time>
<desc>lat.=43.148968, lon.=19.299664, Alt.=759.148926m. Speed=1.584000m/h.</desc>
<speed>0.440000</speed>
</trkpt>
<trkpt lat="43.148960" lon="19.299683">
<ele>758.805176</ele>
<time>2012-05-03T10:43:51Z</time>
<desc>lat.=43.148960, lon.=19.299683, Alt.=758.805176m. Speed=1.800000m/h.</desc>
<speed>0.500000</speed>
</trkpt>
<trkpt lat="43.148987" lon="19.299686">
<ele>758.586426</ele>
<time>2012-05-03T10:43:56Z</time>
<desc>lat.=43.148987, lon.=19.299686, Alt.=758.586426m. Speed=1.224000m/h.</desc>
<speed>0.340000</speed>
</trkpt>
<trkpt lat="43.149014" lon="19.299702">
<ele>758.508301</ele>
<time>2012-05-03T10:44:01Z</time>
<desc>lat.=43.149014, lon.=19.299702, Alt.=758.508301m. Speed=1.728000m/h.</desc>
<speed>0.480000</speed>
</trkpt>
<trkpt lat="43.149029" lon="19.299709">
<ele>757.695801</ele>
<time>2012-05-03T10:44:06Z</time>
<desc>lat.=43.149029, lon.=19.299709, Alt.=757.695801m. Speed=1.044000m/h.</desc>
<speed>0.290000</speed>
</trkpt>
<trkpt lat="43.149040" lon="19.299696">
<ele>757.633301</ele>
<time>2012-05-03T10:44:11Z</time>
<desc>lat.=43.149040, lon.=19.299696, Alt.=757.633301m. Speed=0.720000m/h.</desc>
<speed>0.200000</speed>
</trkpt>
<trkpt lat="43.149040" lon="19.299688">
<ele>757.648926</ele>
<time>2012-05-03T10:44:16Z</time>
<desc>lat.=43.149040, lon.=19.299688, Alt.=757.648926m. Speed=0.216000m/h.</desc>
<speed>0.060000</speed>
</trkpt>
<trkpt lat="43.149059" lon="19.299690">
<ele>757.320801</ele>
<time>2012-05-03T10:44:21Z</time>
<desc>lat.=43.149059, lon.=19.299690, Alt.=757.320801m. Speed=1.440000m/h.</desc>
<speed>0.400000</speed>
</trkpt>
<trkpt lat="43.149063" lon="19.299719">
<ele>756.445801</ele>
<time>2012-05-03T10:44:26Z</time>
<desc>lat.=43.149063, lon.=19.299719, Alt.=756.445801m. Speed=0.216000m/h.</desc>
<speed>0.060000</speed>
</trkpt>
<trkpt lat="43.149052" lon="19.299730">
<ele>755.852051</ele>
<time>2012-05-03T10:44:31Z</time>
<desc>lat.=43.149052, lon.=19.299730, Alt.=755.852051m. Speed=0.432000m/h.</desc>
<speed>0.120000</speed>
</trkpt>
<trkpt lat="43.149048" lon="19.299723">
<ele>755.852051</ele>
<time>2012-05-03T10:44:36Z</time>
<desc>lat.=43.149048, lon.=19.299723, Alt.=755.852051m. Speed=0.468000m/h.</desc>
<speed>0.130000</speed>
</trkpt>
<trkpt lat="43.149048" lon="19.299728">
<ele>755.805176</ele>
<time>2012-05-03T10:44:41Z</time>
<desc>lat.=43.149048, lon.=19.299728, Alt.=755.805176m. Speed=1.728000m/h.</desc>
<speed>0.480000</speed>
</trkpt>
<trkpt lat="43.149017" lon="19.299686">
<ele>755.695801</ele>
<time>2012-05-03T10:44:46Z</time>
<desc>lat.=43.149017, lon.=19.299686, Alt.=755.695801m. Speed=3.708000m/h.</desc>
<speed>1.030000</speed>
</trkpt>
<trkpt lat="43.149048" lon="19.299646">
<ele>755.773926</ele>
<time>2012-05-03T10:44:51Z</time>
<desc>lat.=43.149048, lon.=19.299646, Alt.=755.773926m. Speed=2.340000m/h.</desc>
<speed>0.650000</speed>
</trkpt>
<trkpt lat="43.149052" lon="19.299650">
<ele>755.117676</ele>
<time>2012-05-03T10:44:56Z</time>
<desc>lat.=43.149052, lon.=19.299650, Alt.=755.117676m. Speed=1.656000m/h.</desc>
<speed>0.460000</speed>
</trkpt>
<trkpt lat="43.149040" lon="19.299671">
<ele>754.398926</ele>
<time>2012-05-03T10:45:01Z</time>
<desc>lat.=43.149040, lon.=19.299671, Alt.=754.398926m. Speed=0.504000m/h.</desc>
<speed>0.140000</speed>
</trkpt>
<trkpt lat="43.149040" lon="19.299673">
<ele>754.398926</ele>
<time>2012-05-03T10:45:06Z</time>
<desc>lat.=43.149040, lon.=19.299673, Alt.=754.398926m. Speed=1.440000m/h.</desc>
<speed>0.400000</speed>
</trkpt>
<trkpt lat="43.149025" lon="19.299685">
<ele>754.570801</ele>
<time>2012-05-03T10:45:11Z</time>
<desc>lat.=43.149025, lon.=19.299685, Alt.=754.570801m. Speed=0.648000m/h.</desc>
<speed>0.180000</speed>
</trkpt>
<trkpt lat="43.149017" lon="19.299694">
<ele>754.586426</ele>
<time>2012-05-03T10:45:16Z</time>
<desc>lat.=43.149017, lon.=19.299694, Alt.=754.586426m. Speed=0.576000m/h.</desc>
<speed>0.160000</speed>
</trkpt>
<trkpt lat="43.149017" lon="19.299706">
<ele>754.555176</ele>
<time>2012-05-03T10:45:21Z</time>
<desc>lat.=43.149017, lon.=19.299706, Alt.=754.555176m. Speed=1.044000m/h.</desc>
<speed>0.290000</speed>
</trkpt>
<trkpt lat="43.149014" lon="19.299706">
<ele>754.367676</ele>
<time>2012-05-03T10:45:26Z</time>
<desc>lat.=43.149014, lon.=19.299706, Alt.=754.367676m. Speed=0.360000m/h.</desc>
<speed>0.100000</speed>
</trkpt>
<trkpt lat="43.149010" lon="19.299700">
<ele>754.383301</ele>
<time>2012-05-03T10:45:31Z</time>
<desc>lat.=43.149010, lon.=19.299700, Alt.=754.383301m. Speed=0.864000m/h.</desc>
<speed>0.240000</speed>
</trkpt>
<trkpt lat="43.149017" lon="19.299679">
<ele>754.320801</ele>
<time>2012-05-03T10:45:36Z</time>
<desc>lat.=43.149017, lon.=19.299679, Alt.=754.320801m. Speed=2.700000m/h.</desc>
<speed>0.750000</speed>
</trkpt>
<trkpt lat="43.148991" lon="19.299620">
<ele>754.273926</ele>
<time>2012-05-03T10:45:41Z</time>
<desc>lat.=43.148991, lon.=19.299620, Alt.=754.273926m. Speed=2.952000m/h.</desc>
<speed>0.820000</speed>
</trkpt>
<trkpt lat="43.148994" lon="19.299595">
<ele>754.180176</ele>
<time>2012-05-03T10:45:46Z</time>
<desc>lat.=43.148994, lon.=19.299595, Alt.=754.180176m. Speed=0.360000m/h.</desc>
<speed>0.100000</speed>
</trkpt>
<trkpt lat="43.148994" lon="19.299603">
<ele>754.227051</ele>
<time>2012-05-03T10:45:51Z</time>
<desc>lat.=43.148994, lon.=19.299603, Alt.=754.227051m. Speed=0.684000m/h.</desc>
<speed>0.190000</speed>
</trkpt>
<trkpt lat="43.148991" lon="19.299603">
<ele>754.227051</ele>
<time>2012-05-03T10:45:56Z</time>
<desc>lat.=43.148991, lon.=19.299603, Alt.=754.227051m. Speed=0.360000m/h.</desc>
<speed>0.100000</speed>
</trkpt>
<trkpt lat="43.148994" lon="19.299597">
<ele>754.227051</ele>
<time>2012-05-03T10:46:01Z</time>
<desc>lat.=43.148994, lon.=19.299597, Alt.=754.227051m. Speed=1.296000m/h.</desc>
<speed>0.360000</speed>
</trkpt>
<trkpt lat="43.149029" lon="19.299593">
<ele>754.117676</ele>
<time>2012-05-03T10:46:06Z</time>
<desc>lat.=43.149029, lon.=19.299593, Alt.=754.117676m. Speed=0.576000m/h.</desc>
<speed>0.160000</speed>
</trkpt>
<trkpt lat="43.149033" lon="19.299606">
<ele>754.117676</ele>
<time>2012-05-03T10:46:11Z</time>
<desc>lat.=43.149033, lon.=19.299606, Alt.=754.117676m. Speed=0.324000m/h.</desc>
<speed>0.090000</speed>
</trkpt>
<trkpt lat="43.149036" lon="19.299606">
<ele>754.148926</ele>
<time>2012-05-03T10:46:16Z</time>
<desc>lat.=43.149036, lon.=19.299606, Alt.=754.148926m. Speed=1.008000m/h.</desc>
<speed>0.280000</speed>
</trkpt>
<trkpt lat="43.149059" lon="19.299599">
<ele>754.227051</ele>
<time>2012-05-03T10:46:21Z</time>
<desc>lat.=43.149059, lon.=19.299599, Alt.=754.227051m. Speed=1.152000m/h.</desc>
<speed>0.320000</speed>
</trkpt>
<trkpt lat="43.149052" lon="19.299604">
<ele>754.320801</ele>
<time>2012-05-03T10:46:26Z</time>
<desc>lat.=43.149052, lon.=19.299604, Alt.=754.320801m. Speed=0.504000m/h.</desc>
<speed>0.140000</speed>
</trkpt>
<trkpt lat="43.149063" lon="19.299595">
<ele>754.414551</ele>
<time>2012-05-03T10:46:31Z</time>
<desc>lat.=43.149063, lon.=19.299595, Alt.=754.414551m. Speed=0.648000m/h.</desc>
<speed>0.180000</speed>
</trkpt>
<trkpt lat="43.149059" lon="19.299576">
<ele>754.602051</ele>
<time>2012-05-03T10:46:36Z</time>
<desc>lat.=43.149059, lon.=19.299576, Alt.=754.602051m. Speed=0.468000m/h.</desc>
<speed>0.130000</speed>
</trkpt>
<trkpt lat="43.149025" lon="19.299536">
<ele>754.586426</ele>
<time>2012-05-03T10:46:41Z</time>
<desc>lat.=43.149025, lon.=19.299536, Alt.=754.586426m. Speed=2.520000m/h.</desc>
<speed>0.700000</speed>
</trkpt>
<trkpt lat="43.149044" lon="19.299540">
<ele>754.617676</ele>
<time>2012-05-03T10:46:46Z</time>
<desc>lat.=43.149044, lon.=19.299540, Alt.=754.617676m. Speed=0.180000m/h.</desc>
<speed>0.050000</speed>
</trkpt>
<trkpt lat="43.149055" lon="19.299524">
<ele>754.633301</ele>
<time>2012-05-03T10:46:51Z</time>
<desc>lat.=43.149055, lon.=19.299524, Alt.=754.633301m. Speed=0.612000m/h.</desc>
<speed>0.170000</speed>
</trkpt>
<trkpt lat="43.149055" lon="19.299524">
<ele>754.789551</ele>
<time>2012-05-03T10:46:56Z</time>
<desc>lat.=43.149055, lon.=19.299524, Alt.=754.789551m. Speed=0.900000m/h.</desc>
<speed>0.250000</speed>
</trkpt>
<trkpt lat="43.149082" lon="19.299500">
<ele>754.883301</ele>
<time>2012-05-03T10:47:01Z</time>
<desc>lat.=43.149082, lon.=19.299500, Alt.=754.883301m. Speed=1.080000m/h.</desc>
<speed>0.300000</speed>
</trkpt>
<trkpt lat="43.149094" lon="19.299498">
<ele>755.039551</ele>
<time>2012-05-03T10:47:06Z</time>
<desc>lat.=43.149094, lon.=19.299498, Alt.=755.039551m. Speed=0.576000m/h.</desc>
<speed>0.160000</speed>
</trkpt>
<trkpt lat="43.149097" lon="19.299501">
<ele>755.055176</ele>
<time>2012-05-03T10:47:11Z</time>
<desc>lat.=43.149097, lon.=19.299501, Alt.=755.055176m. Speed=1.332000m/h.</desc>
<speed>0.370000</speed>
</trkpt>
<trkpt lat="43.149036" lon="19.299650">
<ele>753.508301</ele>
<time>2012-05-03T10:47:16Z</time>
<desc>lat.=43.149036, lon.=19.299650, Alt.=753.508301m. Speed=3.168000m/h.</desc>
<speed>0.880000</speed>
</trkpt>
<trkpt lat="43.149025" lon="19.299706">
<ele>753.102051</ele>
<time>2012-05-03T10:47:21Z</time>
<desc>lat.=43.149025, lon.=19.299706, Alt.=753.102051m. Speed=2.700000m/h.</desc>
<speed>0.750000</speed>
</trkpt>
<trkpt lat="43.149021" lon="19.299688">
<ele>752.352051</ele>
<time>2012-05-03T10:47:26Z</time>
<desc>lat.=43.149021, lon.=19.299688, Alt.=752.352051m. Speed=1.512000m/h.</desc>
<speed>0.420000</speed>
</trkpt>
<trkpt lat="43.149002" lon="19.299639">
<ele>752.539551</ele>
<time>2012-05-03T10:47:31Z</time>
<desc>lat.=43.149002, lon.=19.299639, Alt.=752.539551m. Speed=1.620000m/h.</desc>
<speed>0.450000</speed>
</trkpt>
<trkpt lat="43.149014" lon="19.299629">
<ele>752.680176</ele>
<time>2012-05-03T10:47:36Z</time>
<desc>lat.=43.149014, lon.=19.299629, Alt.=752.680176m. Speed=1.080000m/h.</desc>
<speed>0.300000</speed>
</trkpt>
<trkpt lat="43.149014" lon="19.299641">
<ele>752.477051</ele>
<time>2012-05-03T10:47:41Z</time>
<desc>lat.=43.149014, lon.=19.299641, Alt.=752.477051m. Speed=0.900000m/h.</desc>
<speed>0.250000</speed>
</trkpt>
<trkpt lat="43.149010" lon="19.299660">
<ele>752.258301</ele>
<time>2012-05-03T10:47:46Z</time>
<desc>lat.=43.149010, lon.=19.299660, Alt.=752.258301m. Speed=0.972000m/h.</desc>
<speed>0.270000</speed>
</trkpt>
<trkpt lat="43.149017" lon="19.299692">
<ele>751.945801</ele>
<time>2012-05-03T10:47:51Z</time>
<desc>lat.=43.149017, lon.=19.299692, Alt.=751.945801m. Speed=1.728000m/h.</desc>
<speed>0.480000</speed>
</trkpt>
<trkpt lat="43.149017" lon="19.299732">
<ele>752.102051</ele>
<time>2012-05-03T10:47:56Z</time>
<desc>lat.=43.149017, lon.=19.299732, Alt.=752.102051m. Speed=2.448000m/h.</desc>
<speed>0.680000</speed>
</trkpt>
<trkpt lat="43.148998" lon="19.299732">
<ele>752.164551</ele>
<time>2012-05-03T10:48:01Z</time>
<desc>lat.=43.148998, lon.=19.299732, Alt.=752.164551m. Speed=1.152000m/h.</desc>
<speed>0.320000</speed>
</trkpt>
<trkpt lat="43.148987" lon="19.299709">
<ele>752.180176</ele>
<time>2012-05-03T10:48:06Z</time>
<desc>lat.=43.148987, lon.=19.299709, Alt.=752.180176m. Speed=0.936000m/h.</desc>
<speed>0.260000</speed>
</trkpt>
<trkpt lat="43.148983" lon="19.299704">
<ele>752.211426</ele>
<time>2012-05-03T10:48:11Z</time>
<desc>lat.=43.148983, lon.=19.299704, Alt.=752.211426m. Speed=0.288000m/h.</desc>
<speed>0.080000</speed>
</trkpt>
<trkpt lat="43.148983" lon="19.299709">
<ele>752.242676</ele>
<time>2012-05-03T10:48:16Z</time>
<desc>lat.=43.148983, lon.=19.299709, Alt.=752.242676m. Speed=0.972000m/h.</desc>
<speed>0.270000</speed>
</trkpt>
<trkpt lat="43.148987" lon="19.299721">
<ele>752.117676</ele>
<time>2012-05-03T10:48:21Z</time>
<desc>lat.=43.148987, lon.=19.299721, Alt.=752.117676m. Speed=0.792000m/h.</desc>
<speed>0.220000</speed>
</trkpt>
<trkpt lat="43.148991" lon="19.299723">
<ele>752.117676</ele>
<time>2012-05-03T10:48:26Z</time>
<desc>lat.=43.148991, lon.=19.299723, Alt.=752.117676m. Speed=0.144000m/h.</desc>
<speed>0.040000</speed>
</trkpt>
<trkpt lat="43.148987" lon="19.299725">
<ele>752.133301</ele>
<time>2012-05-03T10:48:31Z</time>
<desc>lat.=43.148987, lon.=19.299725, Alt.=752.133301m. Speed=0.504000m/h.</desc>
<speed>0.140000</speed>
</trkpt>
<trkpt lat="43.148987" lon="19.299728">
<ele>752.164551</ele>
<time>2012-05-03T10:48:36Z</time>
<desc>lat.=43.148987, lon.=19.299728, Alt.=752.164551m. Speed=0.540000m/h.</desc>
<speed>0.150000</speed>
</trkpt>
<trkpt lat="43.148979" lon="19.299732">
<ele>752.180176</ele>
<time>2012-05-03T10:48:41Z</time>
<desc>lat.=43.148979, lon.=19.299732, Alt.=752.180176m. Speed=0.864000m/h.</desc>
<speed>0.240000</speed>
</trkpt>
<trkpt lat="43.148975" lon="19.299730">
<ele>752.180176</ele>
<time>2012-05-03T10:48:46Z</time>
<desc>lat.=43.148975, lon.=19.299730, Alt.=752.180176m. Speed=0.576000m/h.</desc>
<speed>0.160000</speed>
</trkpt>
<trkpt lat="43.148979" lon="19.299730">
<ele>752.195801</ele>
<time>2012-05-03T10:48:51Z</time>
<desc>lat.=43.148979, lon.=19.299730, Alt.=752.195801m. Speed=0.684000m/h.</desc>
<speed>0.190000</speed>
</trkpt>
<trkpt lat="43.148972" lon="19.299732">
<ele>752.211426</ele>
<time>2012-05-03T10:48:56Z</time>
<desc>lat.=43.148972, lon.=19.299732, Alt.=752.211426m. Speed=0.540000m/h.</desc>
<speed>0.150000</speed>
</trkpt>
<trkpt lat="43.148975" lon="19.299696">
<ele>752.352051</ele>
<time>2012-05-03T10:49:01Z</time>
<desc>lat.=43.148975, lon.=19.299696, Alt.=752.352051m. Speed=1.116000m/h.</desc>
<speed>0.310000</speed>
</trkpt>
<trkpt lat="43.149010" lon="19.299681">
<ele>752.633301</ele>
<time>2012-05-03T10:49:06Z</time>
<desc>lat.=43.149010, lon.=19.299681, Alt.=752.633301m. Speed=1.836000m/h.</desc>
<speed>0.510000</speed>
</trkpt>
<trkpt lat="43.149036" lon="19.299677">
<ele>752.820801</ele>
<time>2012-05-03T10:49:11Z</time>
<desc>lat.=43.149036, lon.=19.299677, Alt.=752.820801m. Speed=1.800000m/h.</desc>
<speed>0.500000</speed>
</trkpt>
<trkpt lat="43.149090" lon="19.299574">
<ele>753.023926</ele>
<time>2012-05-03T10:49:16Z</time>
<desc>lat.=43.149090, lon.=19.299574, Alt.=753.023926m. Speed=5.148000m/h.</desc>
<speed>1.430000</speed>
</trkpt>
<trkpt lat="43.149101" lon="19.299538">
<ele>753.367676</ele>
<time>2012-05-03T10:49:21Z</time>
<desc>lat.=43.149101, lon.=19.299538, Alt.=753.367676m. Speed=1.512000m/h.</desc>
<speed>0.420000</speed>
</trkpt>
<trkpt lat="43.149052" lon="19.299496">
<ele>753.852051</ele>
<time>2012-05-03T10:49:26Z</time>
<desc>lat.=43.149052, lon.=19.299496, Alt.=753.852051m. Speed=1.872000m/h.</desc>
<speed>0.520000</speed>
</trkpt>
<trkpt lat="43.148991" lon="19.299505">
<ele>753.961426</ele>
<time>2012-05-03T10:49:31Z</time>
<desc>lat.=43.148991, lon.=19.299505, Alt.=753.961426m. Speed=0.324000m/h.</desc>
<speed>0.090000</speed>
</trkpt>
<trkpt lat="43.148998" lon="19.299541">
<ele>754.383301</ele>
<time>2012-05-03T10:49:36Z</time>
<desc>lat.=43.148998, lon.=19.299541, Alt.=754.383301m. Speed=2.736000m/h.</desc>
<speed>0.760000</speed>
</trkpt>
<trkpt lat="43.149044" lon="19.299622">
<ele>755.445801</ele>
<time>2012-05-03T10:49:41Z</time>
<desc>lat.=43.149044, lon.=19.299622, Alt.=755.445801m. Speed=4.392000m/h.</desc>
<speed>1.220000</speed>
</trkpt>
<trkpt lat="43.149033" lon="19.299637">
<ele>756.852051</ele>
<time>2012-05-03T10:49:46Z</time>
<desc>lat.=43.149033, lon.=19.299637, Alt.=756.852051m. Speed=0.360000m/h.</desc>
<speed>0.100000</speed>
</trkpt>
<trkpt lat="43.149120" lon="19.299574">
<ele>757.711426</ele>
<time>2012-05-03T10:49:51Z</time>
<desc>lat.=43.149120, lon.=19.299574, Alt.=757.711426m. Speed=13.644000m/h.</desc>
<speed>3.790000</speed>
</trkpt>
<trkpt lat="43.149307" lon="19.299446">
<ele>757.242676</ele>
<time>2012-05-03T10:49:56Z</time>
<desc>lat.=43.149307, lon.=19.299446, Alt.=757.242676m. Speed=16.236000m/h.</desc>
<speed>4.510000</speed>
</trkpt>
<trkpt lat="43.149490" lon="19.299204">
<ele>755.695801</ele>
<time>2012-05-03T10:50:01Z</time>
<desc>lat.=43.149490, lon.=19.299204, Alt.=755.695801m. Speed=17.892000m/h.</desc>
<speed>4.970000</speed>
</trkpt>
<trkpt lat="43.149639" lon="19.298904">
<ele>754.711426</ele>
<time>2012-05-03T10:50:06Z</time>
<desc>lat.=43.149639, lon.=19.298904, Alt.=754.711426m. Speed=19.764000m/h.</desc>
<speed>5.490000</speed>
</trkpt>
<trkpt lat="43.149799" lon="19.298647">
<ele>753.789551</ele>
<time>2012-05-03T10:50:11Z</time>
<desc>lat.=43.149799, lon.=19.298647, Alt.=753.789551m. Speed=19.224001m/h.</desc>
<speed>5.340000</speed>
</trkpt>
<trkpt lat="43.149982" lon="19.298521">
<ele>752.961426</ele>
<time>2012-05-03T10:50:16Z</time>
<desc>lat.=43.149982, lon.=19.298521, Alt.=752.961426m. Speed=11.124000m/h.</desc>
<speed>3.090000</speed>
</trkpt>
<trkpt lat="43.150047" lon="19.298307">
<ele>752.820801</ele>
<time>2012-05-03T10:50:21Z</time>
<desc>lat.=43.150047, lon.=19.298307, Alt.=752.820801m. Speed=13.644000m/h.</desc>
<speed>3.790000</speed>
</trkpt>
<trkpt lat="43.150085" lon="19.298149">
<ele>754.148926</ele>
<time>2012-05-03T10:50:26Z</time>
<desc>lat.=43.150085, lon.=19.298149, Alt.=754.148926m. Speed=7.596000m/h.</desc>
<speed>2.110000</speed>
</trkpt>
<trkpt lat="43.150131" lon="19.298002">
<ele>754.305176</ele>
<time>2012-05-03T10:50:31Z</time>
<desc>lat.=43.150131, lon.=19.298002, Alt.=754.305176m. Speed=10.296000m/h.</desc>
<speed>2.860000</speed>
</trkpt>
<trkpt lat="43.150227" lon="19.297852">
<ele>754.805176</ele>
<time>2012-05-03T10:50:36Z</time>
<desc>lat.=43.150227, lon.=19.297852, Alt.=754.805176m. Speed=10.188000m/h.</desc>
<speed>2.830000</speed>
</trkpt>
<trkpt lat="43.150303" lon="19.297703">
<ele>756.773926</ele>
<time>2012-05-03T10:50:41Z</time>
<desc>lat.=43.150303, lon.=19.297703, Alt.=756.773926m. Speed=8.136000m/h.</desc>
<speed>2.260000</speed>
</trkpt>
<trkpt lat="43.150360" lon="19.297510">
<ele>757.711426</ele>
<time>2012-05-03T10:50:46Z</time>
<desc>lat.=43.150360, lon.=19.297510, Alt.=757.711426m. Speed=12.420000m/h.</desc>
<speed>3.450000</speed>
</trkpt>
<trkpt lat="43.150402" lon="19.297268">
<ele>758.961426</ele>
<time>2012-05-03T10:50:51Z</time>
<desc>lat.=43.150402, lon.=19.297268, Alt.=758.961426m. Speed=11.592000m/h.</desc>
<speed>3.220000</speed>
</trkpt>
<trkpt lat="43.150467" lon="19.297014">
<ele>759.492676</ele>
<time>2012-05-03T10:50:56Z</time>
<desc>lat.=43.150467, lon.=19.297014, Alt.=759.492676m. Speed=13.068000m/h.</desc>
<speed>3.630000</speed>
</trkpt>
<trkpt lat="43.150585" lon="19.296843">
<ele>761.695801</ele>
<time>2012-05-03T10:51:01Z</time>
<desc>lat.=43.150585, lon.=19.296843, Alt.=761.695801m. Speed=13.464000m/h.</desc>
<speed>3.740000</speed>
</trkpt>
<trkpt lat="43.150696" lon="19.296659">
<ele>764.945801</ele>
<time>2012-05-03T10:51:06Z</time>
<desc>lat.=43.150696, lon.=19.296659, Alt.=764.945801m. Speed=14.076000m/h.</desc>
<speed>3.910000</speed>
</trkpt>
<trkpt lat="43.150764" lon="19.296436">
<ele>767.711426</ele>
<time>2012-05-03T10:51:11Z</time>
<desc>lat.=43.150764, lon.=19.296436, Alt.=767.711426m. Speed=11.196000m/h.</desc>
<speed>3.110000</speed>
</trkpt>
<trkpt lat="43.150791" lon="19.296213">
<ele>768.352051</ele>
<time>2012-05-03T10:51:16Z</time>
<desc>lat.=43.150791, lon.=19.296213, Alt.=768.352051m. Speed=15.480000m/h.</desc>
<speed>4.300000</speed>
</trkpt>
<trkpt lat="43.150818" lon="19.296007">
<ele>769.680176</ele>
<time>2012-05-03T10:51:21Z</time>
<desc>lat.=43.150818, lon.=19.296007, Alt.=769.680176m. Speed=11.844000m/h.</desc>
<speed>3.290000</speed>
</trkpt>
<trkpt lat="43.150799" lon="19.295923">
<ele>769.320801</ele>
<time>2012-05-03T10:51:26Z</time>
<desc>lat.=43.150799, lon.=19.295923, Alt.=769.320801m. Speed=1.188000m/h.</desc>
<speed>0.330000</speed>
</trkpt>
<trkpt lat="43.150715" lon="19.295734">
<ele>769.961426</ele>
<time>2012-05-03T10:51:31Z</time>
<desc>lat.=43.150715, lon.=19.295734, Alt.=769.961426m. Speed=16.884001m/h.</desc>
<speed>4.690000</speed>
</trkpt>
<trkpt lat="43.150528" lon="19.295410">
<ele>771.227051</ele>
<time>2012-05-03T10:51:36Z</time>
<desc>lat.=43.150528, lon.=19.295410, Alt.=771.227051m. Speed=24.156000m/h.</desc>
<speed>6.710000</speed>
</trkpt>
<trkpt lat="43.150265" lon="19.295088">
<ele>772.492676</ele>
<time>2012-05-03T10:51:41Z</time>
<desc>lat.=43.150265, lon.=19.295088, Alt.=772.492676m. Speed=28.908001m/h.</desc>
<speed>8.030000</speed>
</trkpt>
<trkpt lat="43.149982" lon="19.294777">
<ele>771.102051</ele>
<time>2012-05-03T10:51:46Z</time>
<desc>lat.=43.149982, lon.=19.294777, Alt.=771.102051m. Speed=30.275999m/h.</desc>
<speed>8.410000</speed>
</trkpt>
<trkpt lat="43.149700" lon="19.294470">
<ele>771.914551</ele>
<time>2012-05-03T10:51:51Z</time>
<desc>lat.=43.149700, lon.=19.294470, Alt.=771.914551m. Speed=30.996000m/h.</desc>
<speed>8.610000</speed>
</trkpt>
<trkpt lat="43.149437" lon="19.294073">
<ele>772.477051</ele>
<time>2012-05-03T10:51:56Z</time>
<desc>lat.=43.149437, lon.=19.294073, Alt.=772.477051m. Speed=30.743999m/h.</desc>
<speed>8.540000</speed>
</trkpt>
<trkpt lat="43.149197" lon="19.293652">
<ele>772.227051</ele>
<time>2012-05-03T10:52:01Z</time>
<desc>lat.=43.149197, lon.=19.293652, Alt.=772.227051m. Speed=32.507999m/h.</desc>
<speed>9.030000</speed>
</trkpt>
<trkpt lat="43.148975" lon="19.293198">
<ele>772.992676</ele>
<time>2012-05-03T10:52:06Z</time>
<desc>lat.=43.148975, lon.=19.293198, Alt.=772.992676m. Speed=29.808001m/h.</desc>
<speed>8.280000</speed>
</trkpt>
<trkpt lat="43.148804" lon="19.292768">
<ele>773.258301</ele>
<time>2012-05-03T10:52:11Z</time>
<desc>lat.=43.148804, lon.=19.292768, Alt.=773.258301m. Speed=28.007999m/h.</desc>
<speed>7.780000</speed>
</trkpt>
<trkpt lat="43.148659" lon="19.292341">
<ele>773.164551</ele>
<time>2012-05-03T10:52:16Z</time>
<desc>lat.=43.148659, lon.=19.292341, Alt.=773.164551m. Speed=24.516001m/h.</desc>
<speed>6.810000</speed>
</trkpt>
<trkpt lat="43.148582" lon="19.292086">
<ele>774.008301</ele>
<time>2012-05-03T10:52:21Z</time>
<desc>lat.=43.148582, lon.=19.292086, Alt.=774.008301m. Speed=11.556000m/h.</desc>
<speed>3.210000</speed>
</trkpt>
<trkpt lat="43.148453" lon="19.292040">
<ele>775.383301</ele>
<time>2012-05-03T10:52:26Z</time>
<desc>lat.=43.148453, lon.=19.292040, Alt.=775.383301m. Speed=12.924000m/h.</desc>
<speed>3.590000</speed>
</trkpt>
<trkpt lat="43.148281" lon="19.292070">
<ele>775.758301</ele>
<time>2012-05-03T10:52:31Z</time>
<desc>lat.=43.148281, lon.=19.292070, Alt.=775.758301m. Speed=13.284000m/h.</desc>
<speed>3.690000</speed>
</trkpt>
<trkpt lat="43.148033" lon="19.292091">
<ele>775.867676</ele>
<time>2012-05-03T10:52:36Z</time>
<desc>lat.=43.148033, lon.=19.292091, Alt.=775.867676m. Speed=22.464001m/h.</desc>
<speed>6.240000</speed>
</trkpt>
<trkpt lat="43.147717" lon="19.292049">
<ele>775.680176</ele>
<time>2012-05-03T10:52:41Z</time>
<desc>lat.=43.147717, lon.=19.292049, Alt.=775.680176m. Speed=25.200001m/h.</desc>
<speed>7.000000</speed>
</trkpt>
<trkpt lat="43.147377" lon="19.291998">
<ele>774.758301</ele>
<time>2012-05-03T10:52:46Z</time>
<desc>lat.=43.147377, lon.=19.291998, Alt.=774.758301m. Speed=29.304001m/h.</desc>
<speed>8.140000</speed>
</trkpt>
<trkpt lat="43.146969" lon="19.291948">
<ele>772.914551</ele>
<time>2012-05-03T10:52:51Z</time>
<desc>lat.=43.146969, lon.=19.291948, Alt.=772.914551m. Speed=31.788000m/h.</desc>
<speed>8.830000</speed>
</trkpt>
<trkpt lat="43.146557" lon="19.291960">
<ele>771.289551</ele>
<time>2012-05-03T10:52:56Z</time>
<desc>lat.=43.146557, lon.=19.291960, Alt.=771.289551m. Speed=32.040001m/h.</desc>
<speed>8.900000</speed>
</trkpt>
<trkpt lat="43.146206" lon="19.292093">
<ele>771.508301</ele>
<time>2012-05-03T10:53:01Z</time>
<desc>lat.=43.146206, lon.=19.292093, Alt.=771.508301m. Speed=32.507999m/h.</desc>
<speed>9.030000</speed>
</trkpt>
<trkpt lat="43.145840" lon="19.292391">
<ele>771.633301</ele>
<time>2012-05-03T10:53:06Z</time>
<desc>lat.=43.145840, lon.=19.292391, Alt.=771.633301m. Speed=36.540001m/h.</desc>
<speed>10.150000</speed>
</trkpt>
<trkpt lat="43.145390" lon="19.292711">
<ele>771.570801</ele>
<time>2012-05-03T10:53:11Z</time>
<desc>lat.=43.145390, lon.=19.292711, Alt.=771.570801m. Speed=37.403999m/h.</desc>
<speed>10.390000</speed>
</trkpt>
<trkpt lat="43.145031" lon="19.293024">
<ele>772.008301</ele>
<time>2012-05-03T10:53:16Z</time>
<desc>lat.=43.145031, lon.=19.293024, Alt.=772.008301m. Speed=36.035999m/h.</desc>
<speed>10.010000</speed>
</trkpt>
<trkpt lat="43.144627" lon="19.293316">
<ele>770.539551</ele>
<time>2012-05-03T10:53:21Z</time>
<desc>lat.=43.144627, lon.=19.293316, Alt.=770.539551m. Speed=36.324001m/h.</desc>
<speed>10.090000</speed>
</trkpt>
<trkpt lat="43.144253" lon="19.293736">
<ele>768.867676</ele>
<time>2012-05-03T10:53:26Z</time>
<desc>lat.=43.144253, lon.=19.293736, Alt.=768.867676m. Speed=39.743999m/h.</desc>
<speed>11.040000</speed>
</trkpt>
<trkpt lat="43.143951" lon="19.294218">
<ele>769.742676</ele>
<time>2012-05-03T10:53:31Z</time>
<desc>lat.=43.143951, lon.=19.294218, Alt.=769.742676m. Speed=38.051998m/h.</desc>
<speed>10.569999</speed>
</trkpt>
<trkpt lat="43.143547" lon="19.294735">
<ele>767.977051</ele>
<time>2012-05-03T10:53:36Z</time>
<desc>lat.=43.143547, lon.=19.294735, Alt.=767.977051m. Speed=46.512001m/h.</desc>
<speed>12.920000</speed>
</trkpt>
<trkpt lat="43.142929" lon="19.295126">
<ele>766.555176</ele>
<time>2012-05-03T10:53:41Z</time>
<desc>lat.=43.142929, lon.=19.295126, Alt.=766.555176m. Speed=43.452000m/h.</desc>
<speed>12.070000</speed>
</trkpt>
<trkpt lat="43.142475" lon="19.295559">
<ele>764.789551</ele>
<time>2012-05-03T10:53:46Z</time>
<desc>lat.=43.142475, lon.=19.295559, Alt.=764.789551m. Speed=43.487999m/h.</desc>
<speed>12.080000</speed>
</trkpt>
<trkpt lat="43.142151" lon="19.296139">
<ele>763.164551</ele>
<time>2012-05-03T10:53:51Z</time>
<desc>lat.=43.142151, lon.=19.296139, Alt.=763.164551m. Speed=42.012001m/h.</desc>
<speed>11.670000</speed>
</trkpt>
<trkpt lat="43.141872" lon="19.296690">
<ele>762.086426</ele>
<time>2012-05-03T10:53:56Z</time>
<desc>lat.=43.141872, lon.=19.296690, Alt.=762.086426m. Speed=39.959999m/h.</desc>
<speed>11.100000</speed>
</trkpt>
<trkpt lat="43.141537" lon="19.297203">
<ele>760.320801</ele>
<time>2012-05-03T10:54:01Z</time>
<desc>lat.=43.141537, lon.=19.297203, Alt.=760.320801m. Speed=36.792000m/h.</desc>
<speed>10.220000</speed>
</trkpt>
<trkpt lat="43.141140" lon="19.297680">
<ele>758.805176</ele>
<time>2012-05-03T10:54:06Z</time>
<desc>lat.=43.141140, lon.=19.297680, Alt.=758.805176m. Speed=37.152000m/h.</desc>
<speed>10.320000</speed>
</trkpt>
<trkpt lat="43.140831" lon="19.298084">
<ele>758.742676</ele>
<time>2012-05-03T10:54:11Z</time>
<desc>lat.=43.140831, lon.=19.298084, Alt.=758.742676m. Speed=35.604000m/h.</desc>
<speed>9.890000</speed>
</trkpt>
<trkpt lat="43.140526" lon="19.298536">
<ele>757.867676</ele>
<time>2012-05-03T10:54:16Z</time>
<desc>lat.=43.140526, lon.=19.298536, Alt.=757.867676m. Speed=36.863998m/h.</desc>
<speed>10.240000</speed>
</trkpt>
<trkpt lat="43.140011" lon="19.298977">
<ele>751.961426</ele>
<time>2012-05-03T10:54:21Z</time>
<desc>lat.=43.140011, lon.=19.298977, Alt.=751.961426m. Speed=43.812000m/h.</desc>
<speed>12.170000</speed>
</trkpt>
<trkpt lat="43.139530" lon="19.299097">
<ele>751.914551</ele>
<time>2012-05-03T10:54:26Z</time>
<desc>lat.=43.139530, lon.=19.299097, Alt.=751.914551m. Speed=38.736000m/h.</desc>
<speed>10.760000</speed>
</trkpt>
<trkpt lat="43.139103" lon="19.299219">
<ele>750.539551</ele>
<time>2012-05-03T10:54:31Z</time>
<desc>lat.=43.139103, lon.=19.299219, Alt.=750.539551m. Speed=32.976002m/h.</desc>
<speed>9.160000</speed>
</trkpt>
<trkpt lat="43.138767" lon="19.299448">
<ele>749.148926</ele>
<time>2012-05-03T10:54:36Z</time>
<desc>lat.=43.138767, lon.=19.299448, Alt.=749.148926m. Speed=29.087999m/h.</desc>
<speed>8.080000</speed>
</trkpt>
<trkpt lat="43.138489" lon="19.299591">
<ele>746.914551</ele>
<time>2012-05-03T10:54:41Z</time>
<desc>lat.=43.138489, lon.=19.299591, Alt.=746.914551m. Speed=16.524000m/h.</desc>
<speed>4.590000</speed>
</trkpt>
<trkpt lat="43.138306" lon="19.299698">
<ele>746.289551</ele>
<time>2012-05-03T10:54:46Z</time>
<desc>lat.=43.138306, lon.=19.299698, Alt.=746.289551m. Speed=16.271999m/h.</desc>
<speed>4.520000</speed>
</trkpt>
<trkpt lat="43.134289" lon="19.307655">
<ele>625.461426</ele>
<time>2012-05-03T10:55:59Z</time>
<desc>lat.=43.134289, lon.=19.307655, Alt.=625.461426m. Speed=70.307999m/h.</desc>
<speed>19.530000</speed>
</trkpt>
<trkpt lat="43.134052" lon="19.308060">
<ele>578.852051</ele>
<time>2012-05-03T10:56:04Z</time>
<desc>lat.=43.134052, lon.=19.308060, Alt.=578.852051m. Speed=54.396000m/h.</desc>
<speed>15.110000</speed>
</trkpt>
<trkpt lat="43.133671" lon="19.308575">
<ele>584.102051</ele>
<time>2012-05-03T10:56:09Z</time>
<desc>lat.=43.133671, lon.=19.308575, Alt.=584.102051m. Speed=45.792000m/h.</desc>
<speed>12.720000</speed>
</trkpt>
<trkpt lat="43.132881" lon="19.309017">
<ele>598.852051</ele>
<time>2012-05-03T10:56:14Z</time>
<desc>lat.=43.132881, lon.=19.309017, Alt.=598.852051m. Speed=52.776001m/h.</desc>
<speed>14.660000</speed>
</trkpt>
<trkpt lat="43.132221" lon="19.309195">
<ele>608.523926</ele>
<time>2012-05-03T10:56:19Z</time>
<desc>lat.=43.132221, lon.=19.309195, Alt.=608.523926m. Speed=49.824001m/h.</desc>
<speed>13.840000</speed>
</trkpt>
<trkpt lat="43.131615" lon="19.309139">
<ele>608.258301</ele>
<time>2012-05-03T10:56:24Z</time>
<desc>lat.=43.131615, lon.=19.309139, Alt.=608.258301m. Speed=49.751999m/h.</desc>
<speed>13.820000</speed>
</trkpt>
<trkpt lat="43.130989" lon="19.308952">
<ele>605.648926</ele>
<time>2012-05-03T10:56:29Z</time>
<desc>lat.=43.130989, lon.=19.308952, Alt.=605.648926m. Speed=54.000000m/h.</desc>
<speed>15.000000</speed>
</trkpt>
<trkpt lat="43.130329" lon="19.308973">
<ele>605.102051</ele>
<time>2012-05-03T10:56:34Z</time>
<desc>lat.=43.130329, lon.=19.308973, Alt.=605.102051m. Speed=55.188000m/h.</desc>
<speed>15.330000</speed>
</trkpt>
<trkpt lat="43.129585" lon="19.309053">
<ele>611.914551</ele>
<time>2012-05-03T10:56:39Z</time>
<desc>lat.=43.129585, lon.=19.309053, Alt.=611.914551m. Speed=55.835999m/h.</desc>
<speed>15.510000</speed>
</trkpt>
<trkpt lat="43.129002" lon="19.309410">
<ele>618.398926</ele>
<time>2012-05-03T10:56:44Z</time>
<desc>lat.=43.129002, lon.=19.309410, Alt.=618.398926m. Speed=48.672001m/h.</desc>
<speed>13.520000</speed>
</trkpt>
<trkpt lat="43.128548" lon="19.309885">
<ele>622.305176</ele>
<time>2012-05-03T10:56:49Z</time>
<desc>lat.=43.128548, lon.=19.309885, Alt.=622.305176m. Speed=43.523998m/h.</desc>
<speed>12.090000</speed>
</trkpt>
<trkpt lat="43.128220" lon="19.310204">
<ele>622.758301</ele>
<time>2012-05-03T10:56:54Z</time>
<desc>lat.=43.128220, lon.=19.310204, Alt.=622.758301m. Speed=31.464001m/h.</desc>
<speed>8.740000</speed>
</trkpt>
<trkpt lat="43.127979" lon="19.310495">
<ele>625.023926</ele>
<time>2012-05-03T10:56:59Z</time>
<desc>lat.=43.127979, lon.=19.310495, Alt.=625.023926m. Speed=24.587999m/h.</desc>
<speed>6.830000</speed>
</trkpt>
<trkpt lat="43.127846" lon="19.310623">
<ele>625.773926</ele>
<time>2012-05-03T10:57:04Z</time>
<desc>lat.=43.127846, lon.=19.310623, Alt.=625.773926m. Speed=9.720000m/h.</desc>
<speed>2.700000</speed>
</trkpt>
<trkpt lat="43.127796" lon="19.310631">
<ele>629.258301</ele>
<time>2012-05-03T10:57:09Z</time>
<desc>lat.=43.127796, lon.=19.310631, Alt.=629.258301m. Speed=3.096000m/h.</desc>
<speed>0.860000</speed>
</trkpt>
<trkpt lat="43.127796" lon="19.310627">
<ele>632.336426</ele>
<time>2012-05-03T10:57:14Z</time>
<desc>lat.=43.127796, lon.=19.310627, Alt.=632.336426m. Speed=1.728000m/h.</desc>
<speed>0.480000</speed>
</trkpt>
<trkpt lat="43.127792" lon="19.310644">
<ele>634.961426</ele>
<time>2012-05-03T10:57:19Z</time>
<desc>lat.=43.127792, lon.=19.310644, Alt.=634.961426m. Speed=2.592000m/h.</desc>
<speed>0.720000</speed>
</trkpt>
<trkpt lat="43.127792" lon="19.310602">
<ele>636.648926</ele>
<time>2012-05-03T10:57:24Z</time>
<desc>lat.=43.127792, lon.=19.310602, Alt.=636.648926m. Speed=7.056000m/h.</desc>
<speed>1.960000</speed>
</trkpt>
<trkpt lat="43.127945" lon="19.310478">
<ele>639.789551</ele>
<time>2012-05-03T10:57:29Z</time>
<desc>lat.=43.127945, lon.=19.310478, Alt.=639.789551m. Speed=18.756001m/h.</desc>
<speed>5.210000</speed>
</trkpt>
<trkpt lat="43.128250" lon="19.310083">
<ele>636.695801</ele>
<time>2012-05-03T10:57:34Z</time>
<desc>lat.=43.128250, lon.=19.310083, Alt.=636.695801m. Speed=25.632000m/h.</desc>
<speed>7.120000</speed>
</trkpt>
<trkpt lat="43.128384" lon="19.309917">
<ele>636.617676</ele>
<time>2012-05-03T10:57:39Z</time>
<desc>lat.=43.128384, lon.=19.309917, Alt.=636.617676m. Speed=6.048000m/h.</desc>
<speed>1.680000</speed>
</trkpt>
<trkpt lat="43.128365" lon="19.309860">
<ele>637.664551</ele>
<time>2012-05-03T10:57:44Z</time>
<desc>lat.=43.128365, lon.=19.309860, Alt.=637.664551m. Speed=3.240000m/h.</desc>
<speed>0.900000</speed>
</trkpt>
<trkpt lat="43.128414" lon="19.309883">
<ele>638.461426</ele>
<time>2012-05-03T10:57:49Z</time>
<desc>lat.=43.128414, lon.=19.309883, Alt.=638.461426m. Speed=0.684000m/h.</desc>
<speed>0.190000</speed>
</trkpt>
<trkpt lat="43.128456" lon="19.309998">
<ele>638.945801</ele>
<time>2012-05-03T10:57:54Z</time>
<desc>lat.=43.128456, lon.=19.309998, Alt.=638.945801m. Speed=3.780000m/h.</desc>
<speed>1.050000</speed>
</trkpt>
<trkpt lat="43.128452" lon="19.309996">
<ele>640.555176</ele>
<time>2012-05-03T10:57:59Z</time>
<desc>lat.=43.128452, lon.=19.309996, Alt.=640.555176m. Speed=0.252000m/h.</desc>
<speed>0.070000</speed>
</trkpt>
<trkpt lat="43.128456" lon="19.310013">
<ele>641.102051</ele>
<time>2012-05-03T10:58:04Z</time>
<desc>lat.=43.128456, lon.=19.310013, Alt.=641.102051m. Speed=2.520000m/h.</desc>
<speed>0.700000</speed>
</trkpt>
<trkpt lat="43.128464" lon="19.310049">
<ele>641.445801</ele>
<time>2012-05-03T10:58:09Z</time>
<desc>lat.=43.128464, lon.=19.310049, Alt.=641.445801m. Speed=1.656000m/h.</desc>
<speed>0.460000</speed>
</trkpt>
<trkpt lat="43.128468" lon="19.310078">
<ele>641.852051</ele>
<time>2012-05-03T10:58:14Z</time>
<desc>lat.=43.128468, lon.=19.310078, Alt.=641.852051m. Speed=1.224000m/h.</desc>
<speed>0.340000</speed>
</trkpt>
<trkpt lat="43.128460" lon="19.310104">
<ele>642.117676</ele>
<time>2012-05-03T10:58:19Z</time>
<desc>lat.=43.128460, lon.=19.310104, Alt.=642.117676m. Speed=2.052000m/h.</desc>
<speed>0.570000</speed>
</trkpt>
<trkpt lat="43.128445" lon="19.310122">
<ele>642.617676</ele>
<time>2012-05-03T10:58:24Z</time>
<desc>lat.=43.128445, lon.=19.310122, Alt.=642.617676m. Speed=1.296000m/h.</desc>
<speed>0.360000</speed>
</trkpt>
<trkpt lat="43.128429" lon="19.310133">
<ele>643.180176</ele>
<time>2012-05-03T10:58:29Z</time>
<desc>lat.=43.128429, lon.=19.310133, Alt.=643.180176m. Speed=1.512000m/h.</desc>
<speed>0.420000</speed>
</trkpt>
<trkpt lat="43.128410" lon="19.310146">
<ele>643.773926</ele>
<time>2012-05-03T10:58:34Z</time>
<desc>lat.=43.128410, lon.=19.310146, Alt.=643.773926m. Speed=0.720000m/h.</desc>
<speed>0.200000</speed>
</trkpt>
<trkpt lat="43.128399" lon="19.310146">
<ele>644.133301</ele>
<time>2012-05-03T10:58:39Z</time>
<desc>lat.=43.128399, lon.=19.310146, Alt.=644.133301m. Speed=1.548000m/h.</desc>
<speed>0.430000</speed>
</trkpt>
<trkpt lat="43.128384" lon="19.310154">
<ele>644.398926</ele>
<time>2012-05-03T10:58:44Z</time>
<desc>lat.=43.128384, lon.=19.310154, Alt.=644.398926m. Speed=1.008000m/h.</desc>
<speed>0.280000</speed>
</trkpt>
<trkpt lat="43.128376" lon="19.310162">
<ele>644.633301</ele>
<time>2012-05-03T10:58:49Z</time>
<desc>lat.=43.128376, lon.=19.310162, Alt.=644.633301m. Speed=1.332000m/h.</desc>
<speed>0.370000</speed>
</trkpt>
<trkpt lat="43.128361" lon="19.310163">
<ele>644.805176</ele>
<time>2012-05-03T10:58:54Z</time>
<desc>lat.=43.128361, lon.=19.310163, Alt.=644.805176m. Speed=1.044000m/h.</desc>
<speed>0.290000</speed>
</trkpt>
<trkpt lat="43.128349" lon="19.310156">
<ele>644.961426</ele>
<time>2012-05-03T10:58:59Z</time>
<desc>lat.=43.128349, lon.=19.310156, Alt.=644.961426m. Speed=1.008000m/h.</desc>
<speed>0.280000</speed>
</trkpt>
<trkpt lat="43.128338" lon="19.310148">
<ele>645.070801</ele>
<time>2012-05-03T10:59:04Z</time>
<desc>lat.=43.128338, lon.=19.310148, Alt.=645.070801m. Speed=1.548000m/h.</desc>
<speed>0.430000</speed>
</trkpt>
<trkpt lat="43.128319" lon="19.310129">
<ele>645.133301</ele>
<time>2012-05-03T10:59:09Z</time>
<desc>lat.=43.128319, lon.=19.310129, Alt.=645.133301m. Speed=1.944000m/h.</desc>
<speed>0.540000</speed>
</trkpt>
<trkpt lat="43.128311" lon="19.310104">
<ele>645.211426</ele>
<time>2012-05-03T10:59:14Z</time>
<desc>lat.=43.128311, lon.=19.310104, Alt.=645.211426m. Speed=2.160000m/h.</desc>
<speed>0.600000</speed>
</trkpt>
<trkpt lat="43.128323" lon="19.310080">
<ele>645.164551</ele>
<time>2012-05-03T10:59:19Z</time>
<desc>lat.=43.128323, lon.=19.310080, Alt.=645.164551m. Speed=0.576000m/h.</desc>
<speed>0.160000</speed>
</trkpt>
<trkpt lat="43.128330" lon="19.310072">
<ele>645.180176</ele>
<time>2012-05-03T10:59:24Z</time>
<desc>lat.=43.128330, lon.=19.310072, Alt.=645.180176m. Speed=1.692000m/h.</desc>
<speed>0.470000</speed>
</trkpt>
<trkpt lat="43.128349" lon="19.310072">
<ele>645.195801</ele>
<time>2012-05-03T10:59:29Z</time>
<desc>lat.=43.128349, lon.=19.310072, Alt.=645.195801m. Speed=2.052000m/h.</desc>
<speed>0.570000</speed>
</trkpt>
<trkpt lat="43.128387" lon="19.310019">
<ele>644.789551</ele>
<time>2012-05-03T10:59:34Z</time>
<desc>lat.=43.128387, lon.=19.310019, Alt.=644.789551m. Speed=3.636000m/h.</desc>
<speed>1.010000</speed>
</trkpt>
<trkpt lat="43.128437" lon="19.309986">
<ele>646.086426</ele>
<time>2012-05-03T10:59:39Z</time>
<desc>lat.=43.128437, lon.=19.309986, Alt.=646.086426m. Speed=2.484000m/h.</desc>
<speed>0.690000</speed>
</trkpt>
<trkpt lat="43.128490" lon="19.309971">
<ele>646.461426</ele>
<time>2012-05-03T10:59:44Z</time>
<desc>lat.=43.128490, lon.=19.309971, Alt.=646.461426m. Speed=2.808000m/h.</desc>
<speed>0.780000</speed>
</trkpt>
<trkpt lat="43.128521" lon="19.309946">
<ele>646.367676</ele>
<time>2012-05-03T10:59:49Z</time>
<desc>lat.=43.128521, lon.=19.309946, Alt.=646.367676m. Speed=2.016000m/h.</desc>
<speed>0.560000</speed>
</trkpt>
<trkpt lat="43.128548" lon="19.309927">
<ele>646.211426</ele>
<time>2012-05-03T10:59:54Z</time>
<desc>lat.=43.128548, lon.=19.309927, Alt.=646.211426m. Speed=1.980000m/h.</desc>
<speed>0.550000</speed>
</trkpt>
<trkpt lat="43.128551" lon="19.309944">
<ele>645.508301</ele>
<time>2012-05-03T10:59:59Z</time>
<desc>lat.=43.128551, lon.=19.309944, Alt.=645.508301m. Speed=1.008000m/h.</desc>
<speed>0.280000</speed>
</trkpt>
<trkpt lat="43.128567" lon="19.309944">
<ele>645.336426</ele>
<time>2012-05-03T11:00:04Z</time>
<desc>lat.=43.128567, lon.=19.309944, Alt.=645.336426m. Speed=0.288000m/h.</desc>
<speed>0.080000</speed>
</trkpt>
<trkpt lat="43.128571" lon="19.309940">
<ele>645.398926</ele>
<time>2012-05-03T11:00:09Z</time>
<desc>lat.=43.128571, lon.=19.309940, Alt.=645.398926m. Speed=0.432000m/h.</desc>
<speed>0.120000</speed>
</trkpt>
<trkpt lat="43.128601" lon="19.309956">
<ele>645.195801</ele>
<time>2012-05-03T11:00:14Z</time>
<desc>lat.=43.128601, lon.=19.309956, Alt.=645.195801m. Speed=1.620000m/h.</desc>
<speed>0.450000</speed>
</trkpt>
<trkpt lat="43.128654" lon="19.309978">
<ele>644.570801</ele>
<time>2012-05-03T11:00:19Z</time>
<desc>lat.=43.128654, lon.=19.309978, Alt.=644.570801m. Speed=2.052000m/h.</desc>
<speed>0.570000</speed>
</trkpt>
<trkpt lat="43.128681" lon="19.310015">
<ele>644.164551</ele>
<time>2012-05-03T11:00:24Z</time>
<desc>lat.=43.128681, lon.=19.310015, Alt.=644.164551m. Speed=2.196000m/h.</desc>
<speed>0.610000</speed>
</trkpt>
<trkpt lat="43.128670" lon="19.310017">
<ele>643.508301</ele>
<time>2012-05-03T11:00:29Z</time>
<desc>lat.=43.128670, lon.=19.310017, Alt.=643.508301m. Speed=0.936000m/h.</desc>
<speed>0.260000</speed>
</trkpt>
<trkpt lat="43.128712" lon="19.310024">
<ele>642.180176</ele>
<time>2012-05-03T11:00:34Z</time>
<desc>lat.=43.128712, lon.=19.310024, Alt.=642.180176m. Speed=2.376000m/h.</desc>
<speed>0.660000</speed>
</trkpt>
<trkpt lat="43.128704" lon="19.310024">
<ele>641.617676</ele>
<time>2012-05-03T11:00:39Z</time>
<desc>lat.=43.128704, lon.=19.310024, Alt.=641.617676m. Speed=1.260000m/h.</desc>
<speed>0.350000</speed>
</trkpt>
<trkpt lat="43.128677" lon="19.310011">
<ele>641.695801</ele>
<time>2012-05-03T11:00:44Z</time>
<desc>lat.=43.128677, lon.=19.310011, Alt.=641.695801m. Speed=0.396000m/h.</desc>
<speed>0.110000</speed>
</trkpt>
<trkpt lat="43.128681" lon="19.310017">
<ele>641.742676</ele>
<time>2012-05-03T11:00:49Z</time>
<desc>lat.=43.128681, lon.=19.310017, Alt.=641.742676m. Speed=0.396000m/h.</desc>
<speed>0.110000</speed>
</trkpt>
<trkpt lat="43.128681" lon="19.310013">
<ele>641.820801</ele>
<time>2012-05-03T11:00:54Z</time>
<desc>lat.=43.128681, lon.=19.310013, Alt.=641.820801m. Speed=0.612000m/h.</desc>
<speed>0.170000</speed>
</trkpt>
<trkpt lat="43.128689" lon="19.310009">
<ele>641.852051</ele>
<time>2012-05-03T11:00:59Z</time>
<desc>lat.=43.128689, lon.=19.310009, Alt.=641.852051m. Speed=1.404000m/h.</desc>
<speed>0.390000</speed>
</trkpt>
<trkpt lat="43.128658" lon="19.310068">
<ele>640.055176</ele>
<time>2012-05-03T11:01:04Z</time>
<desc>lat.=43.128658, lon.=19.310068, Alt.=640.055176m. Speed=1.764000m/h.</desc>
<speed>0.490000</speed>
</trkpt>
<trkpt lat="43.128681" lon="19.310061">
<ele>638.758301</ele>
<time>2012-05-03T11:01:09Z</time>
<desc>lat.=43.128681, lon.=19.310061, Alt.=638.758301m. Speed=0.396000m/h.</desc>
<speed>0.110000</speed>
</trkpt>
<trkpt lat="43.128666" lon="19.310114">
<ele>637.586426</ele>
<time>2012-05-03T11:01:14Z</time>
<desc>lat.=43.128666, lon.=19.310114, Alt.=637.586426m. Speed=1.476000m/h.</desc>
<speed>0.410000</speed>
</trkpt>
<trkpt lat="43.128696" lon="19.310143">
<ele>636.227051</ele>
<time>2012-05-03T11:01:19Z</time>
<desc>lat.=43.128696, lon.=19.310143, Alt.=636.227051m. Speed=0.972000m/h.</desc>
<speed>0.270000</speed>
</trkpt>
<trkpt lat="43.128704" lon="19.310141">
<ele>635.992676</ele>
<time>2012-05-03T11:01:24Z</time>
<desc>lat.=43.128704, lon.=19.310141, Alt.=635.992676m. Speed=0.720000m/h.</desc>
<speed>0.200000</speed>
</trkpt>
<trkpt lat="43.128735" lon="19.310152">
<ele>635.289551</ele>
<time>2012-05-03T11:01:29Z</time>
<desc>lat.=43.128735, lon.=19.310152, Alt.=635.289551m. Speed=0.900000m/h.</desc>
<speed>0.250000</speed>
</trkpt>
<trkpt lat="43.128761" lon="19.310205">
<ele>633.977051</ele>
<time>2012-05-03T11:01:34Z</time>
<desc>lat.=43.128761, lon.=19.310205, Alt.=633.977051m. Speed=1.152000m/h.</desc>
<speed>0.320000</speed>
</trkpt>
<trkpt lat="43.128784" lon="19.310284">
<ele>630.008301</ele>
<time>2012-05-03T11:01:39Z</time>
<desc>lat.=43.128784, lon.=19.310284, Alt.=630.008301m. Speed=1.764000m/h.</desc>
<speed>0.490000</speed>
</trkpt>
<trkpt lat="43.128773" lon="19.310307">
<ele>629.164551</ele>
<time>2012-05-03T11:01:44Z</time>
<desc>lat.=43.128773, lon.=19.310307, Alt.=629.164551m. Speed=1.476000m/h.</desc>
<speed>0.410000</speed>
</trkpt>
<trkpt lat="43.128803" lon="19.310314">
<ele>628.492676</ele>
<time>2012-05-03T11:01:49Z</time>
<desc>lat.=43.128803, lon.=19.310314, Alt.=628.492676m. Speed=1.800000m/h.</desc>
<speed>0.500000</speed>
</trkpt>
<trkpt lat="43.128853" lon="19.310314">
<ele>628.102051</ele>
<time>2012-05-03T11:01:54Z</time>
<desc>lat.=43.128853, lon.=19.310314, Alt.=628.102051m. Speed=1.872000m/h.</desc>
<speed>0.520000</speed>
</trkpt>
<trkpt lat="43.128883" lon="19.310318">
<ele>627.680176</ele>
<time>2012-05-03T11:01:59Z</time>
<desc>lat.=43.128883, lon.=19.310318, Alt.=627.680176m. Speed=1.260000m/h.</desc>
<speed>0.350000</speed>
</trkpt>
<trkpt lat="43.128887" lon="19.310337">
<ele>625.805176</ele>
<time>2012-05-03T11:02:04Z</time>
<desc>lat.=43.128887, lon.=19.310337, Alt.=625.805176m. Speed=1.440000m/h.</desc>
<speed>0.400000</speed>
</trkpt>
<trkpt lat="43.128918" lon="19.310316">
<ele>624.273926</ele>
<time>2012-05-03T11:02:09Z</time>
<desc>lat.=43.128918, lon.=19.310316, Alt.=624.273926m. Speed=1.044000m/h.</desc>
<speed>0.290000</speed>
</trkpt>
<trkpt lat="43.128963" lon="19.310278">
<ele>623.617676</ele>
<time>2012-05-03T11:02:14Z</time>
<desc>lat.=43.128963, lon.=19.310278, Alt.=623.617676m. Speed=2.520000m/h.</desc>
<speed>0.700000</speed>
</trkpt>
<trkpt lat="43.128986" lon="19.310257">
<ele>623.070801</ele>
<time>2012-05-03T11:02:19Z</time>
<desc>lat.=43.128986, lon.=19.310257, Alt.=623.070801m. Speed=0.900000m/h.</desc>
<speed>0.250000</speed>
</trkpt>
<trkpt lat="43.128941" lon="19.310287">
<ele>622.945801</ele>
<time>2012-05-03T11:02:24Z</time>
<desc>lat.=43.128941, lon.=19.310287, Alt.=622.945801m. Speed=1.044000m/h.</desc>
<speed>0.290000</speed>
</trkpt>
<trkpt lat="43.128941" lon="19.310343">
<ele>621.977051</ele>
<time>2012-05-03T11:02:29Z</time>
<desc>lat.=43.128941, lon.=19.310343, Alt.=621.977051m. Speed=0.972000m/h.</desc>
<speed>0.270000</speed>
</trkpt>
<trkpt lat="43.128899" lon="19.310400">
<ele>620.648926</ele>
<time>2012-05-03T11:02:34Z</time>
<desc>lat.=43.128899, lon.=19.310400, Alt.=620.648926m. Speed=1.476000m/h.</desc>
<speed>0.410000</speed>
</trkpt>
<trkpt lat="43.128948" lon="19.310427">
<ele>620.492676</ele>
<time>2012-05-03T11:02:39Z</time>
<desc>lat.=43.128948, lon.=19.310427, Alt.=620.492676m. Speed=1.188000m/h.</desc>
<speed>0.330000</speed>
</trkpt>
<trkpt lat="43.129002" lon="19.310465">
<ele>619.461426</ele>
<time>2012-05-03T11:02:44Z</time>
<desc>lat.=43.129002, lon.=19.310465, Alt.=619.461426m. Speed=0.936000m/h.</desc>
<speed>0.260000</speed>
</trkpt>
<trkpt lat="43.129032" lon="19.310461">
<ele>618.664551</ele>
<time>2012-05-03T11:02:49Z</time>
<desc>lat.=43.129032, lon.=19.310461, Alt.=618.664551m. Speed=1.620000m/h.</desc>
<speed>0.450000</speed>
</trkpt>
<trkpt lat="43.129021" lon="19.310402">
<ele>618.352051</ele>
<time>2012-05-03T11:02:54Z</time>
<desc>lat.=43.129021, lon.=19.310402, Alt.=618.352051m. Speed=0.216000m/h.</desc>
<speed>0.060000</speed>
</trkpt>
<trkpt lat="43.128983" lon="19.310402">
<ele>618.039551</ele>
<time>2012-05-03T11:02:59Z</time>
<desc>lat.=43.128983, lon.=19.310402, Alt.=618.039551m. Speed=1.080000m/h.</desc>
<speed>0.300000</speed>
</trkpt>
<trkpt lat="43.128872" lon="19.310387">
<ele>616.664551</ele>
<time>2012-05-03T11:03:04Z</time>
<desc>lat.=43.128872, lon.=19.310387, Alt.=616.664551m. Speed=1.944000m/h.</desc>
<speed>0.540000</speed>
</trkpt>
<trkpt lat="43.128830" lon="19.310400">
<ele>616.273926</ele>
<time>2012-05-03T11:03:09Z</time>
<desc>lat.=43.128830, lon.=19.310400, Alt.=616.273926m. Speed=1.836000m/h.</desc>
<speed>0.510000</speed>
</trkpt>
<trkpt lat="43.128811" lon="19.310387">
<ele>616.164551</ele>
<time>2012-05-03T11:03:14Z</time>
<desc>lat.=43.128811, lon.=19.310387, Alt.=616.164551m. Speed=0.756000m/h.</desc>
<speed>0.210000</speed>
</trkpt>
<trkpt lat="43.128834" lon="19.310377">
<ele>616.242676</ele>
<time>2012-05-03T11:03:19Z</time>
<desc>lat.=43.128834, lon.=19.310377, Alt.=616.242676m. Speed=1.080000m/h.</desc>
<speed>0.300000</speed>
</trkpt>
<trkpt lat="43.128876" lon="19.310373">
<ele>615.242676</ele>
<time>2012-05-03T11:03:24Z</time>
<desc>lat.=43.128876, lon.=19.310373, Alt.=615.242676m. Speed=1.044000m/h.</desc>
<speed>0.290000</speed>
</trkpt>
<trkpt lat="43.128880" lon="19.310335">
<ele>614.742676</ele>
<time>2012-05-03T11:03:29Z</time>
<desc>lat.=43.128880, lon.=19.310335, Alt.=614.742676m. Speed=1.368000m/h.</desc>
<speed>0.380000</speed>
</trkpt>
<trkpt lat="43.128864" lon="19.310287">
<ele>613.539551</ele>
<time>2012-05-03T11:03:34Z</time>
<desc>lat.=43.128864, lon.=19.310287, Alt.=613.539551m. Speed=0.540000m/h.</desc>
<speed>0.150000</speed>
</trkpt>
<trkpt lat="43.128864" lon="19.310274">
<ele>613.508301</ele>
<time>2012-05-03T11:03:39Z</time>
<desc>lat.=43.128864, lon.=19.310274, Alt.=613.508301m. Speed=0.828000m/h.</desc>
<speed>0.230000</speed>
</trkpt>
<trkpt lat="43.128872" lon="19.310270">
<ele>613.477051</ele>
<time>2012-05-03T11:03:44Z</time>
<desc>lat.=43.128872, lon.=19.310270, Alt.=613.477051m. Speed=0.432000m/h.</desc>
<speed>0.120000</speed>
</trkpt>
<trkpt lat="43.128872" lon="19.310270">
<ele>613.367676</ele>
<time>2012-05-03T11:03:49Z</time>
<desc>lat.=43.128872, lon.=19.310270, Alt.=613.367676m. Speed=0.540000m/h.</desc>
<speed>0.150000</speed>
</trkpt>
<trkpt lat="43.128864" lon="19.310249">
<ele>612.883301</ele>
<time>2012-05-03T11:03:54Z</time>
<desc>lat.=43.128864, lon.=19.310249, Alt.=612.883301m. Speed=0.864000m/h.</desc>
<speed>0.240000</speed>
</trkpt>
<trkpt lat="43.128864" lon="19.310226">
<ele>612.258301</ele>
<time>2012-05-03T11:03:59Z</time>
<desc>lat.=43.128864, lon.=19.310226, Alt.=612.258301m. Speed=0.648000m/h.</desc>
<speed>0.180000</speed>
</trkpt>
<trkpt lat="43.128857" lon="19.310230">
<ele>611.992676</ele>
<time>2012-05-03T11:04:04Z</time>
<desc>lat.=43.128857, lon.=19.310230, Alt.=611.992676m. Speed=1.152000m/h.</desc>
<speed>0.320000</speed>
</trkpt>
<trkpt lat="43.128765" lon="19.310205">
<ele>612.461426</ele>
<time>2012-05-03T11:04:09Z</time>
<desc>lat.=43.128765, lon.=19.310205, Alt.=612.461426m. Speed=2.052000m/h.</desc>
<speed>0.570000</speed>
</trkpt>
<trkpt lat="43.128674" lon="19.310188">
<ele>613.461426</ele>
<time>2012-05-03T11:04:14Z</time>
<desc>lat.=43.128674, lon.=19.310188, Alt.=613.461426m. Speed=1.332000m/h.</desc>
<speed>0.370000</speed>
</trkpt>
<trkpt lat="43.128651" lon="19.310165">
<ele>614.430176</ele>
<time>2012-05-03T11:04:19Z</time>
<desc>lat.=43.128651, lon.=19.310165, Alt.=614.430176m. Speed=1.152000m/h.</desc>
<speed>0.320000</speed>
</trkpt>
<trkpt lat="43.128651" lon="19.310141">
<ele>614.523926</ele>
<time>2012-05-03T11:04:24Z</time>
<desc>lat.=43.128651, lon.=19.310141, Alt.=614.523926m. Speed=1.116000m/h.</desc>
<speed>0.310000</speed>
</trkpt>
<trkpt lat="43.128666" lon="19.310125">
<ele>614.258301</ele>
<time>2012-05-03T11:04:29Z</time>
<desc>lat.=43.128666, lon.=19.310125, Alt.=614.258301m. Speed=0.684000m/h.</desc>
<speed>0.190000</speed>
</trkpt>
<trkpt lat="43.128654" lon="19.310122">
<ele>614.289551</ele>
<time>2012-05-03T11:04:34Z</time>
<desc>lat.=43.128654, lon.=19.310122, Alt.=614.289551m. Speed=0.540000m/h.</desc>
<speed>0.150000</speed>
</trkpt>
<trkpt lat="43.128643" lon="19.310125">
<ele>614.305176</ele>
<time>2012-05-03T11:04:39Z</time>
<desc>lat.=43.128643, lon.=19.310125, Alt.=614.305176m. Speed=1.152000m/h.</desc>
<speed>0.320000</speed>
</trkpt>
<trkpt lat="43.128616" lon="19.310089">
<ele>614.086426</ele>
<time>2012-05-03T11:04:44Z</time>
<desc>lat.=43.128616, lon.=19.310089, Alt.=614.086426m. Speed=1.296000m/h.</desc>
<speed>0.360000</speed>
</trkpt>
<trkpt lat="43.128578" lon="19.310038">
<ele>613.664551</ele>
<time>2012-05-03T11:04:49Z</time>
<desc>lat.=43.128578, lon.=19.310038, Alt.=613.664551m. Speed=1.224000m/h.</desc>
<speed>0.340000</speed>
</trkpt>
<trkpt lat="43.128544" lon="19.310019">
<ele>614.242676</ele>
<time>2012-05-03T11:04:54Z</time>
<desc>lat.=43.128544, lon.=19.310019, Alt.=614.242676m. Speed=1.584000m/h.</desc>
<speed>0.440000</speed>
</trkpt>
<trkpt lat="43.128571" lon="19.310047">
<ele>614.773926</ele>
<time>2012-05-03T11:04:59Z</time>
<desc>lat.=43.128571, lon.=19.310047, Alt.=614.773926m. Speed=1.872000m/h.</desc>
<speed>0.520000</speed>
</trkpt>
<trkpt lat="43.128635" lon="19.310123">
<ele>615.711426</ele>
<time>2012-05-03T11:05:04Z</time>
<desc>lat.=43.128635, lon.=19.310123, Alt.=615.711426m. Speed=1.656000m/h.</desc>
<speed>0.460000</speed>
</trkpt>
<trkpt lat="43.128677" lon="19.310198">
<ele>615.258301</ele>
<time>2012-05-03T11:05:09Z</time>
<desc>lat.=43.128677, lon.=19.310198, Alt.=615.258301m. Speed=1.332000m/h.</desc>
<speed>0.370000</speed>
</trkpt>
<trkpt lat="43.128700" lon="19.310221">
<ele>615.258301</ele>
<time>2012-05-03T11:05:14Z</time>
<desc>lat.=43.128700, lon.=19.310221, Alt.=615.258301m. Speed=1.620000m/h.</desc>
<speed>0.450000</speed>
</trkpt>
<trkpt lat="43.128765" lon="19.310196">
<ele>614.758301</ele>
<time>2012-05-03T11:05:19Z</time>
<desc>lat.=43.128765, lon.=19.310196, Alt.=614.758301m. Speed=3.096000m/h.</desc>
<speed>0.860000</speed>
</trkpt>
<trkpt lat="43.128819" lon="19.310160">
<ele>614.414551</ele>
<time>2012-05-03T11:05:24Z</time>
<desc>lat.=43.128819, lon.=19.310160, Alt.=614.414551m. Speed=3.096000m/h.</desc>
<speed>0.860000</speed>
</trkpt>
<trkpt lat="43.128773" lon="19.310129">
<ele>614.695801</ele>
<time>2012-05-03T11:05:29Z</time>
<desc>lat.=43.128773, lon.=19.310129, Alt.=614.695801m. Speed=1.440000m/h.</desc>
<speed>0.400000</speed>
</trkpt>
<trkpt lat="43.128719" lon="19.310059">
<ele>614.758301</ele>
<time>2012-05-03T11:05:34Z</time>
<desc>lat.=43.128719, lon.=19.310059, Alt.=614.758301m. Speed=1.008000m/h.</desc>
<speed>0.280000</speed>
</trkpt>
<trkpt lat="43.128674" lon="19.310043">
<ele>615.320801</ele>
<time>2012-05-03T11:05:39Z</time>
<desc>lat.=43.128674, lon.=19.310043, Alt.=615.320801m. Speed=1.116000m/h.</desc>
<speed>0.310000</speed>
</trkpt>
<trkpt lat="43.128658" lon="19.310087">
<ele>615.773926</ele>
<time>2012-05-03T11:05:44Z</time>
<desc>lat.=43.128658, lon.=19.310087, Alt.=615.773926m. Speed=0.684000m/h.</desc>
<speed>0.190000</speed>
</trkpt>
<trkpt lat="43.128685" lon="19.310112">
<ele>616.055176</ele>
<time>2012-05-03T11:05:49Z</time>
<desc>lat.=43.128685, lon.=19.310112, Alt.=616.055176m. Speed=0.756000m/h.</desc>
<speed>0.210000</speed>
</trkpt>
<trkpt lat="43.128693" lon="19.310112">
<ele>616.117676</ele>
<time>2012-05-03T11:05:54Z</time>
<desc>lat.=43.128693, lon.=19.310112, Alt.=616.117676m. Speed=0.468000m/h.</desc>
<speed>0.130000</speed>
</trkpt>
<trkpt lat="43.128696" lon="19.310110">
<ele>616.195801</ele>
<time>2012-05-03T11:05:59Z</time>
<desc>lat.=43.128696, lon.=19.310110, Alt.=616.195801m. Speed=0.396000m/h.</desc>
<speed>0.110000</speed>
</trkpt>
<trkpt lat="43.128700" lon="19.310116">
<ele>616.242676</ele>
<time>2012-05-03T11:06:04Z</time>
<desc>lat.=43.128700, lon.=19.310116, Alt.=616.242676m. Speed=1.404000m/h.</desc>
<speed>0.390000</speed>
</trkpt>
<trkpt lat="43.128761" lon="19.310093">
<ele>616.195801</ele>
<time>2012-05-03T11:06:09Z</time>
<desc>lat.=43.128761, lon.=19.310093, Alt.=616.195801m. Speed=1.764000m/h.</desc>
<speed>0.490000</speed>
</trkpt>
<trkpt lat="43.128780" lon="19.310066">
<ele>615.383301</ele>
<time>2012-05-03T11:06:14Z</time>
<desc>lat.=43.128780, lon.=19.310066, Alt.=615.383301m. Speed=1.296000m/h.</desc>
<speed>0.360000</speed>
</trkpt>
<trkpt lat="43.128822" lon="19.310026">
<ele>615.070801</ele>
<time>2012-05-03T11:06:19Z</time>
<desc>lat.=43.128822, lon.=19.310026, Alt.=615.070801m. Speed=1.404000m/h.</desc>
<speed>0.390000</speed>
</trkpt>
<trkpt lat="43.128841" lon="19.309944">
<ele>615.023926</ele>
<time>2012-05-03T11:06:24Z</time>
<desc>lat.=43.128841, lon.=19.309944, Alt.=615.023926m. Speed=2.160000m/h.</desc>
<speed>0.600000</speed>
</trkpt>
<trkpt lat="43.128860" lon="19.309923">
<ele>615.414551</ele>
<time>2012-05-03T11:06:29Z</time>
<desc>lat.=43.128860, lon.=19.309923, Alt.=615.414551m. Speed=1.836000m/h.</desc>
<speed>0.510000</speed>
</trkpt>
<trkpt lat="43.128849" lon="19.309954">
<ele>616.305176</ele>
<time>2012-05-03T11:06:34Z</time>
<desc>lat.=43.128849, lon.=19.309954, Alt.=616.305176m. Speed=0.972000m/h.</desc>
<speed>0.270000</speed>
</trkpt>
<trkpt lat="43.128838" lon="19.309950">
<ele>616.555176</ele>
<time>2012-05-03T11:06:39Z</time>
<desc>lat.=43.128838, lon.=19.309950, Alt.=616.555176m. Speed=1.656000m/h.</desc>
<speed>0.460000</speed>
</trkpt>
<trkpt lat="43.128834" lon="19.310020">
<ele>616.555176</ele>
<time>2012-05-03T11:06:44Z</time>
<desc>lat.=43.128834, lon.=19.310020, Alt.=616.555176m. Speed=0.612000m/h.</desc>
<speed>0.170000</speed>
</trkpt>
<trkpt lat="43.128803" lon="19.310043">
<ele>616.352051</ele>
<time>2012-05-03T11:06:49Z</time>
<desc>lat.=43.128803, lon.=19.310043, Alt.=616.352051m. Speed=0.720000m/h.</desc>
<speed>0.200000</speed>
</trkpt>
<trkpt lat="43.128788" lon="19.310099">
<ele>615.461426</ele>
<time>2012-05-03T11:06:54Z</time>
<desc>lat.=43.128788, lon.=19.310099, Alt.=615.461426m. Speed=1.260000m/h.</desc>
<speed>0.350000</speed>
</trkpt>
<trkpt lat="43.128830" lon="19.310156">
<ele>614.805176</ele>
<time>2012-05-03T11:06:59Z</time>
<desc>lat.=43.128830, lon.=19.310156, Alt.=614.805176m. Speed=1.440000m/h.</desc>
<speed>0.400000</speed>
</trkpt>
<trkpt lat="43.128887" lon="19.310207">
<ele>614.055176</ele>
<time>2012-05-03T11:07:04Z</time>
<desc>lat.=43.128887, lon.=19.310207, Alt.=614.055176m. Speed=1.728000m/h.</desc>
<speed>0.480000</speed>
</trkpt>
<trkpt lat="43.128960" lon="19.310259">
<ele>613.695801</ele>
<time>2012-05-03T11:07:09Z</time>
<desc>lat.=43.128960, lon.=19.310259, Alt.=613.695801m. Speed=2.160000m/h.</desc>
<speed>0.600000</speed>
</trkpt>
<trkpt lat="43.128990" lon="19.310322">
<ele>613.273926</ele>
<time>2012-05-03T11:07:14Z</time>
<desc>lat.=43.128990, lon.=19.310322, Alt.=613.273926m. Speed=1.728000m/h.</desc>
<speed>0.480000</speed>
</trkpt>
<trkpt lat="43.129021" lon="19.310349">
<ele>612.852051</ele>
<time>2012-05-03T11:07:19Z</time>
<desc>lat.=43.129021, lon.=19.310349, Alt.=612.852051m. Speed=1.692000m/h.</desc>
<speed>0.470000</speed>
</trkpt>
<trkpt lat="43.129044" lon="19.310228">
<ele>611.570801</ele>
<time>2012-05-03T11:07:24Z</time>
<desc>lat.=43.129044, lon.=19.310228, Alt.=611.570801m. Speed=1.296000m/h.</desc>
<speed>0.360000</speed>
</trkpt>
<trkpt lat="43.129047" lon="19.310167">
<ele>611.445801</ele>
<time>2012-05-03T11:07:29Z</time>
<desc>lat.=43.129047, lon.=19.310167, Alt.=611.445801m. Speed=1.008000m/h.</desc>
<speed>0.280000</speed>
</trkpt>
<trkpt lat="43.129040" lon="19.310137">
<ele>611.945801</ele>
<time>2012-05-03T11:07:34Z</time>
<desc>lat.=43.129040, lon.=19.310137, Alt.=611.945801m. Speed=1.224000m/h.</desc>
<speed>0.340000</speed>
</trkpt>
<trkpt lat="43.129021" lon="19.310120">
<ele>611.992676</ele>
<time>2012-05-03T11:07:39Z</time>
<desc>lat.=43.129021, lon.=19.310120, Alt.=611.992676m. Speed=0.828000m/h.</desc>
<speed>0.230000</speed>
</trkpt>
<trkpt lat="43.129005" lon="19.310034">
<ele>611.961426</ele>
<time>2012-05-03T11:07:44Z</time>
<desc>lat.=43.129005, lon.=19.310034, Alt.=611.961426m. Speed=2.160000m/h.</desc>
<speed>0.600000</speed>
</trkpt>
<trkpt lat="43.129013" lon="19.309999">
<ele>612.570801</ele>
<time>2012-05-03T11:07:49Z</time>
<desc>lat.=43.129013, lon.=19.309999, Alt.=612.570801m. Speed=1.800000m/h.</desc>
<speed>0.500000</speed>
</trkpt>
<trkpt lat="43.129028" lon="19.310017">
<ele>613.102051</ele>
<time>2012-05-03T11:07:54Z</time>
<desc>lat.=43.129028, lon.=19.310017, Alt.=613.102051m. Speed=1.368000m/h.</desc>
<speed>0.380000</speed>
</trkpt>
<trkpt lat="43.129021" lon="19.309982">
<ele>613.070801</ele>
<time>2012-05-03T11:07:59Z</time>
<desc>lat.=43.129021, lon.=19.309982, Alt.=613.070801m. Speed=0.792000m/h.</desc>
<speed>0.220000</speed>
</trkpt>
<trkpt lat="43.129002" lon="19.309999">
<ele>613.211426</ele>
<time>2012-05-03T11:08:04Z</time>
<desc>lat.=43.129002, lon.=19.309999, Alt.=613.211426m. Speed=0.396000m/h.</desc>
<speed>0.110000</speed>
</trkpt>
<trkpt lat="43.129002" lon="19.310005">
<ele>613.133301</ele>
<time>2012-05-03T11:08:09Z</time>
<desc>lat.=43.129002, lon.=19.310005, Alt.=613.133301m. Speed=0.720000m/h.</desc>
<speed>0.200000</speed>
</trkpt>
<trkpt lat="43.128979" lon="19.310017">
<ele>613.117676</ele>
<time>2012-05-03T11:08:14Z</time>
<desc>lat.=43.128979, lon.=19.310017, Alt.=613.117676m. Speed=1.188000m/h.</desc>
<speed>0.330000</speed>
</trkpt>
<trkpt lat="43.128872" lon="19.310003">
<ele>613.320801</ele>
<time>2012-05-03T11:08:19Z</time>
<desc>lat.=43.128872, lon.=19.310003, Alt.=613.320801m. Speed=2.628000m/h.</desc>
<speed>0.730000</speed>
</trkpt>
<trkpt lat="43.128811" lon="19.309998">
<ele>613.305176</ele>
<time>2012-05-03T11:08:24Z</time>
<desc>lat.=43.128811, lon.=19.309998, Alt.=613.305176m. Speed=2.088000m/h.</desc>
<speed>0.580000</speed>
</trkpt>
<trkpt lat="43.128754" lon="19.310024">
<ele>613.367676</ele>
<time>2012-05-03T11:08:29Z</time>
<desc>lat.=43.128754, lon.=19.310024, Alt.=613.367676m. Speed=2.268000m/h.</desc>
<speed>0.630000</speed>
</trkpt>
<trkpt lat="43.128704" lon="19.310036">
<ele>613.367676</ele>
<time>2012-05-03T11:08:34Z</time>
<desc>lat.=43.128704, lon.=19.310036, Alt.=613.367676m. Speed=2.304000m/h.</desc>
<speed>0.640000</speed>
</trkpt>
<trkpt lat="43.128597" lon="19.310022">
<ele>613.492676</ele>
<time>2012-05-03T11:08:39Z</time>
<desc>lat.=43.128597, lon.=19.310022, Alt.=613.492676m. Speed=2.196000m/h.</desc>
<speed>0.610000</speed>
</trkpt>
<trkpt lat="43.128544" lon="19.309961">
<ele>613.445801</ele>
<time>2012-05-03T11:08:44Z</time>
<desc>lat.=43.128544, lon.=19.309961, Alt.=613.445801m. Speed=1.836000m/h.</desc>
<speed>0.510000</speed>
</trkpt>
<trkpt lat="43.128532" lon="19.309971">
<ele>613.602051</ele>
<time>2012-05-03T11:08:49Z</time>
<desc>lat.=43.128532, lon.=19.309971, Alt.=613.602051m. Speed=1.008000m/h.</desc>
<speed>0.280000</speed>
</trkpt>
<trkpt lat="43.128536" lon="19.309977">
<ele>613.805176</ele>
<time>2012-05-03T11:08:54Z</time>
<desc>lat.=43.128536, lon.=19.309977, Alt.=613.805176m. Speed=1.332000m/h.</desc>
<speed>0.370000</speed>
</trkpt>
<trkpt lat="43.128532" lon="19.309988">
<ele>614.320801</ele>
<time>2012-05-03T11:08:59Z</time>
<desc>lat.=43.128532, lon.=19.309988, Alt.=614.320801m. Speed=0.540000m/h.</desc>
<speed>0.150000</speed>
</trkpt>
<trkpt lat="43.128571" lon="19.309992">
<ele>614.336426</ele>
<time>2012-05-03T11:09:04Z</time>
<desc>lat.=43.128571, lon.=19.309992, Alt.=614.336426m. Speed=1.440000m/h.</desc>
<speed>0.400000</speed>
</trkpt>
<trkpt lat="43.128597" lon="19.309952">
<ele>614.555176</ele>
<time>2012-05-03T11:09:09Z</time>
<desc>lat.=43.128597, lon.=19.309952, Alt.=614.555176m. Speed=2.700000m/h.</desc>
<speed>0.750000</speed>
</trkpt>
<trkpt lat="43.128651" lon="19.309963">
<ele>614.773926</ele>
<time>2012-05-03T11:09:14Z</time>
<desc>lat.=43.128651, lon.=19.309963, Alt.=614.773926m. Speed=2.304000m/h.</desc>
<speed>0.640000</speed>
</trkpt>
<trkpt lat="43.128643" lon="19.309988">
<ele>614.992676</ele>
<time>2012-05-03T11:09:19Z</time>
<desc>lat.=43.128643, lon.=19.309988, Alt.=614.992676m. Speed=1.620000m/h.</desc>
<speed>0.450000</speed>
</trkpt>
<trkpt lat="43.128601" lon="19.309998">
<ele>615.461426</ele>
<time>2012-05-03T11:09:24Z</time>
<desc>lat.=43.128601, lon.=19.309998, Alt.=615.461426m. Speed=0.036000m/h.</desc>
<speed>0.010000</speed>
</trkpt>
<trkpt lat="43.128597" lon="19.310005">
<ele>615.586426</ele>
<time>2012-05-03T11:09:29Z</time>
<desc>lat.=43.128597, lon.=19.310005, Alt.=615.586426m. Speed=0.180000m/h.</desc>
<speed>0.050000</speed>
</trkpt>
<trkpt lat="43.128593" lon="19.310005">
<ele>615.586426</ele>
<time>2012-05-03T11:09:34Z</time>
<desc>lat.=43.128593, lon.=19.310005, Alt.=615.586426m. Speed=0.180000m/h.</desc>
<speed>0.050000</speed>
</trkpt>
<trkpt lat="43.128597" lon="19.310005">
<ele>615.602051</ele>
<time>2012-05-03T11:09:39Z</time>
<desc>lat.=43.128597, lon.=19.310005, Alt.=615.602051m. Speed=0.504000m/h.</desc>
<speed>0.140000</speed>
</trkpt>
<trkpt lat="43.128601" lon="19.310015">
<ele>615.602051</ele>
<time>2012-05-03T11:09:44Z</time>
<desc>lat.=43.128601, lon.=19.310015, Alt.=615.602051m. Speed=1.044000m/h.</desc>
<speed>0.290000</speed>
</trkpt>
<trkpt lat="43.128616" lon="19.310087">
<ele>615.117676</ele>
<time>2012-05-03T11:09:49Z</time>
<desc>lat.=43.128616, lon.=19.310087, Alt.=615.117676m. Speed=1.368000m/h.</desc>
<speed>0.380000</speed>
</trkpt>
<trkpt lat="43.128654" lon="19.310078">
<ele>614.664551</ele>
<time>2012-05-03T11:09:54Z</time>
<desc>lat.=43.128654, lon.=19.310078, Alt.=614.664551m. Speed=0.972000m/h.</desc>
<speed>0.270000</speed>
</trkpt>
<trkpt lat="43.128677" lon="19.310034">
<ele>614.555176</ele>
<time>2012-05-03T11:09:59Z</time>
<desc>lat.=43.128677, lon.=19.310034, Alt.=614.555176m. Speed=1.836000m/h.</desc>
<speed>0.510000</speed>
</trkpt>
<trkpt lat="43.128712" lon="19.310005">
<ele>614.633301</ele>
<time>2012-05-03T11:10:04Z</time>
<desc>lat.=43.128712, lon.=19.310005, Alt.=614.633301m. Speed=1.188000m/h.</desc>
<speed>0.330000</speed>
</trkpt>
<trkpt lat="43.128761" lon="19.310019">
<ele>614.477051</ele>
<time>2012-05-03T11:10:09Z</time>
<desc>lat.=43.128761, lon.=19.310019, Alt.=614.477051m. Speed=1.728000m/h.</desc>
<speed>0.480000</speed>
</trkpt>
<trkpt lat="43.128792" lon="19.310047">
<ele>613.852051</ele>
<time>2012-05-03T11:10:14Z</time>
<desc>lat.=43.128792, lon.=19.310047, Alt.=613.852051m. Speed=1.764000m/h.</desc>
<speed>0.490000</speed>
</trkpt>
<trkpt lat="43.128784" lon="19.310074">
<ele>613.570801</ele>
<time>2012-05-03T11:10:19Z</time>
<desc>lat.=43.128784, lon.=19.310074, Alt.=613.570801m. Speed=1.692000m/h.</desc>
<speed>0.470000</speed>
</trkpt>
<trkpt lat="43.128807" lon="19.310106">
<ele>613.445801</ele>
<time>2012-05-03T11:10:24Z</time>
<desc>lat.=43.128807, lon.=19.310106, Alt.=613.445801m. Speed=1.944000m/h.</desc>
<speed>0.540000</speed>
</trkpt>
<trkpt lat="43.128830" lon="19.310125">
<ele>613.961426</ele>
<time>2012-05-03T11:10:29Z</time>
<desc>lat.=43.128830, lon.=19.310125, Alt.=613.961426m. Speed=1.764000m/h.</desc>
<speed>0.490000</speed>
</trkpt>
<trkpt lat="43.128849" lon="19.310104">
<ele>615.367676</ele>
<time>2012-05-03T11:10:34Z</time>
<desc>lat.=43.128849, lon.=19.310104, Alt.=615.367676m. Speed=1.152000m/h.</desc>
<speed>0.320000</speed>
</trkpt>
<trkpt lat="43.128853" lon="19.310076">
<ele>615.961426</ele>
<time>2012-05-03T11:10:39Z</time>
<desc>lat.=43.128853, lon.=19.310076, Alt.=615.961426m. Speed=1.548000m/h.</desc>
<speed>0.430000</speed>
</trkpt>
<trkpt lat="43.129063" lon="19.309994">
<ele>616.836426</ele>
<time>2012-05-03T11:10:44Z</time>
<desc>lat.=43.129063, lon.=19.309994, Alt.=616.836426m. Speed=3.888000m/h.</desc>
<speed>1.080000</speed>
</trkpt>
<trkpt lat="43.129158" lon="19.309954">
<ele>618.055176</ele>
<time>2012-05-03T11:10:49Z</time>
<desc>lat.=43.129158, lon.=19.309954, Alt.=618.055176m. Speed=2.088000m/h.</desc>
<speed>0.580000</speed>
</trkpt>
<trkpt lat="43.129234" lon="19.309912">
<ele>619.102051</ele>
<time>2012-05-03T11:10:54Z</time>
<desc>lat.=43.129234, lon.=19.309912, Alt.=619.102051m. Speed=2.808000m/h.</desc>
<speed>0.780000</speed>
</trkpt>
<trkpt lat="43.129246" lon="19.309896">
<ele>620.383301</ele>
<time>2012-05-03T11:10:59Z</time>
<desc>lat.=43.129246, lon.=19.309896, Alt.=620.383301m. Speed=1.620000m/h.</desc>
<speed>0.450000</speed>
</trkpt>
<trkpt lat="43.129272" lon="19.309799">
<ele>621.992676</ele>
<time>2012-05-03T11:11:04Z</time>
<desc>lat.=43.129272, lon.=19.309799, Alt.=621.992676m. Speed=2.844000m/h.</desc>
<speed>0.790000</speed>
</trkpt>
<trkpt lat="43.129257" lon="19.309809">
<ele>623.648926</ele>
<time>2012-05-03T11:11:09Z</time>
<desc>lat.=43.129257, lon.=19.309809, Alt.=623.648926m. Speed=1.404000m/h.</desc>
<speed>0.390000</speed>
</trkpt>
<trkpt lat="43.129246" lon="19.309813">
<ele>624.742676</ele>
<time>2012-05-03T11:11:14Z</time>
<desc>lat.=43.129246, lon.=19.309813, Alt.=624.742676m. Speed=0.648000m/h.</desc>
<speed>0.180000</speed>
</trkpt>
<trkpt lat="43.129238" lon="19.309809">
<ele>625.633301</ele>
<time>2012-05-03T11:11:19Z</time>
<desc>lat.=43.129238, lon.=19.309809, Alt.=625.633301m. Speed=1.620000m/h.</desc>
<speed>0.450000</speed>
</trkpt>
<trkpt lat="43.129269" lon="19.309814">
<ele>627.227051</ele>
<time>2012-05-03T11:11:24Z</time>
<desc>lat.=43.129269, lon.=19.309814, Alt.=627.227051m. Speed=1.620000m/h.</desc>
<speed>0.450000</speed>
</trkpt>
<trkpt lat="43.129295" lon="19.309885">
<ele>629.539551</ele>
<time>2012-05-03T11:11:29Z</time>
<desc>lat.=43.129295, lon.=19.309885, Alt.=629.539551m. Speed=0.576000m/h.</desc>
<speed>0.160000</speed>
</trkpt>
<trkpt lat="43.129292" lon="19.309917">
<ele>629.992676</ele>
<time>2012-05-03T11:11:34Z</time>
<desc>lat.=43.129292, lon.=19.309917, Alt.=629.992676m. Speed=0.684000m/h.</desc>
<speed>0.190000</speed>
</trkpt>
<trkpt lat="43.129288" lon="19.309933">
<ele>630.195801</ele>
<time>2012-05-03T11:11:39Z</time>
<desc>lat.=43.129288, lon.=19.309933, Alt.=630.195801m. Speed=0.828000m/h.</desc>
<speed>0.230000</speed>
</trkpt>
<trkpt lat="43.129303" lon="19.309944">
<ele>630.305176</ele>
<time>2012-05-03T11:11:44Z</time>
<desc>lat.=43.129303, lon.=19.309944, Alt.=630.305176m. Speed=1.944000m/h.</desc>
<speed>0.540000</speed>
</trkpt>
<trkpt lat="43.129288" lon="19.309978">
<ele>630.633301</ele>
<time>2012-05-03T11:11:49Z</time>
<desc>lat.=43.129288, lon.=19.309978, Alt.=630.633301m. Speed=1.188000m/h.</desc>
<speed>0.330000</speed>
</trkpt>
<trkpt lat="43.129288" lon="19.309971">
<ele>630.836426</ele>
<time>2012-05-03T11:11:54Z</time>
<desc>lat.=43.129288, lon.=19.309971, Alt.=630.836426m. Speed=0.828000m/h.</desc>
<speed>0.230000</speed>
</trkpt>
<trkpt lat="43.129292" lon="19.309978">
<ele>630.867676</ele>
<time>2012-05-03T11:11:59Z</time>
<desc>lat.=43.129292, lon.=19.309978, Alt.=630.867676m. Speed=0.540000m/h.</desc>
<speed>0.150000</speed>
</trkpt>
<trkpt lat="43.129261" lon="19.309969">
<ele>631.086426</ele>
<time>2012-05-03T11:12:04Z</time>
<desc>lat.=43.129261, lon.=19.309969, Alt.=631.086426m. Speed=1.332000m/h.</desc>
<speed>0.370000</speed>
</trkpt>
<trkpt lat="43.129238" lon="19.309986">
<ele>630.852051</ele>
<time>2012-05-03T11:12:09Z</time>
<desc>lat.=43.129238, lon.=19.309986, Alt.=630.852051m. Speed=0.432000m/h.</desc>
<speed>0.120000</speed>
</trkpt>
<trkpt lat="43.129227" lon="19.309990">
<ele>630.883301</ele>
<time>2012-05-03T11:12:14Z</time>
<desc>lat.=43.129227, lon.=19.309990, Alt.=630.883301m. Speed=0.864000m/h.</desc>
<speed>0.240000</speed>
</trkpt>
<trkpt lat="43.129177" lon="19.309999">
<ele>631.289551</ele>
<time>2012-05-03T11:12:19Z</time>
<desc>lat.=43.129177, lon.=19.309999, Alt.=631.289551m. Speed=0.828000m/h.</desc>
<speed>0.230000</speed>
</trkpt>
<trkpt lat="43.129158" lon="19.309940">
<ele>631.320801</ele>
<time>2012-05-03T11:12:24Z</time>
<desc>lat.=43.129158, lon.=19.309940, Alt.=631.320801m. Speed=2.124000m/h.</desc>
<speed>0.590000</speed>
</trkpt>
<trkpt lat="43.129162" lon="19.309916">
<ele>631.273926</ele>
<time>2012-05-03T11:12:29Z</time>
<desc>lat.=43.129162, lon.=19.309916, Alt.=631.273926m. Speed=1.764000m/h.</desc>
<speed>0.490000</speed>
</trkpt>
<trkpt lat="43.129135" lon="19.309862">
<ele>632.148926</ele>
<time>2012-05-03T11:12:34Z</time>
<desc>lat.=43.129135, lon.=19.309862, Alt.=632.148926m. Speed=1.584000m/h.</desc>
<speed>0.440000</speed>
</trkpt>
<trkpt lat="43.129131" lon="19.309813">
<ele>632.758301</ele>
<time>2012-05-03T11:12:39Z</time>
<desc>lat.=43.129131, lon.=19.309813, Alt.=632.758301m. Speed=2.268000m/h.</desc>
<speed>0.630000</speed>
</trkpt>
<trkpt lat="43.129147" lon="19.309809">
<ele>633.508301</ele>
<time>2012-05-03T11:12:44Z</time>
<desc>lat.=43.129147, lon.=19.309809, Alt.=633.508301m. Speed=1.332000m/h.</desc>
<speed>0.370000</speed>
</trkpt>
<trkpt lat="43.129189" lon="19.309847">
<ele>634.523926</ele>
<time>2012-05-03T11:12:49Z</time>
<desc>lat.=43.129189, lon.=19.309847, Alt.=634.523926m. Speed=1.800000m/h.</desc>
<speed>0.500000</speed>
</trkpt>
<trkpt lat="43.129154" lon="19.309896">
<ele>635.523926</ele>
<time>2012-05-03T11:12:54Z</time>
<desc>lat.=43.129154, lon.=19.309896, Alt.=635.523926m. Speed=0.540000m/h.</desc>
<speed>0.150000</speed>
</trkpt>
<trkpt lat="43.129162" lon="19.309916">
<ele>635.695801</ele>
<time>2012-05-03T11:12:59Z</time>
<desc>lat.=43.129162, lon.=19.309916, Alt.=635.695801m. Speed=0.540000m/h.</desc>
<speed>0.150000</speed>
</trkpt>
<trkpt lat="43.129139" lon="19.309904">
<ele>635.820801</ele>
<time>2012-05-03T11:13:04Z</time>
<desc>lat.=43.129139, lon.=19.309904, Alt.=635.820801m. Speed=1.116000m/h.</desc>
<speed>0.310000</speed>
</trkpt>
<trkpt lat="43.129063" lon="19.309870">
<ele>636.242676</ele>
<time>2012-05-03T11:13:09Z</time>
<desc>lat.=43.129063, lon.=19.309870, Alt.=636.242676m. Speed=1.440000m/h.</desc>
<speed>0.400000</speed>
</trkpt>
<trkpt lat="43.129021" lon="19.309855">
<ele>636.820801</ele>
<time>2012-05-03T11:13:14Z</time>
<desc>lat.=43.129021, lon.=19.309855, Alt.=636.820801m. Speed=1.584000m/h.</desc>
<speed>0.440000</speed>
</trkpt>
<trkpt lat="43.128994" lon="19.309832">
<ele>637.430176</ele>
<time>2012-05-03T11:13:19Z</time>
<desc>lat.=43.128994, lon.=19.309832, Alt.=637.430176m. Speed=1.836000m/h.</desc>
<speed>0.510000</speed>
</trkpt>
<trkpt lat="43.128963" lon="19.309832">
<ele>637.602051</ele>
<time>2012-05-03T11:13:24Z</time>
<desc>lat.=43.128963, lon.=19.309832, Alt.=637.602051m. Speed=2.808000m/h.</desc>
<speed>0.780000</speed>
</trkpt>
<trkpt lat="43.128971" lon="19.309786">
<ele>637.898926</ele>
<time>2012-05-03T11:13:29Z</time>
<desc>lat.=43.128971, lon.=19.309786, Alt.=637.898926m. Speed=3.564000m/h.</desc>
<speed>0.990000</speed>
</trkpt>
<trkpt lat="43.128998" lon="19.309729">
<ele>638.164551</ele>
<time>2012-05-03T11:13:34Z</time>
<desc>lat.=43.128998, lon.=19.309729, Alt.=638.164551m. Speed=4.104000m/h.</desc>
<speed>1.140000</speed>
</trkpt>
<trkpt lat="43.129063" lon="19.309689">
<ele>638.336426</ele>
<time>2012-05-03T11:13:39Z</time>
<desc>lat.=43.129063, lon.=19.309689, Alt.=638.336426m. Speed=4.788000m/h.</desc>
<speed>1.330000</speed>
</trkpt>
<trkpt lat="43.129128" lon="19.309649">
<ele>638.227051</ele>
<time>2012-05-03T11:13:44Z</time>
<desc>lat.=43.129128, lon.=19.309649, Alt.=638.227051m. Speed=5.184000m/h.</desc>
<speed>1.440000</speed>
</trkpt>
<trkpt lat="43.129196" lon="19.309586">
<ele>638.555176</ele>
<time>2012-05-03T11:13:49Z</time>
<desc>lat.=43.129196, lon.=19.309586, Alt.=638.555176m. Speed=6.732000m/h.</desc>
<speed>1.870000</speed>
</trkpt>
<trkpt lat="43.129269" lon="19.309509">
<ele>638.242676</ele>
<time>2012-05-03T11:13:54Z</time>
<desc>lat.=43.129269, lon.=19.309509, Alt.=638.242676m. Speed=6.588000m/h.</desc>
<speed>1.830000</speed>
</trkpt>
<trkpt lat="43.129356" lon="19.309519">
<ele>638.211426</ele>
<time>2012-05-03T11:13:59Z</time>
<desc>lat.=43.129356, lon.=19.309519, Alt.=638.211426m. Speed=4.392000m/h.</desc>
<speed>1.220000</speed>
</trkpt>
<trkpt lat="43.129467" lon="19.309528">
<ele>637.992676</ele>
<time>2012-05-03T11:14:04Z</time>
<desc>lat.=43.129467, lon.=19.309528, Alt.=637.992676m. Speed=6.480000m/h.</desc>
<speed>1.800000</speed>
</trkpt>
<trkpt lat="43.129543" lon="19.309462">
<ele>637.508301</ele>
<time>2012-05-03T11:14:09Z</time>
<desc>lat.=43.129543, lon.=19.309462, Alt.=637.508301m. Speed=4.320000m/h.</desc>
<speed>1.200000</speed>
</trkpt>
<trkpt lat="43.129581" lon="19.309385">
<ele>636.898926</ele>
<time>2012-05-03T11:14:14Z</time>
<desc>lat.=43.129581, lon.=19.309385, Alt.=636.898926m. Speed=1.116000m/h.</desc>
<speed>0.310000</speed>
</trkpt>
<trkpt lat="43.129669" lon="19.309267">
<ele>637.180176</ele>
<time>2012-05-03T11:14:19Z</time>
<desc>lat.=43.129669, lon.=19.309267, Alt.=637.180176m. Speed=6.984000m/h.</desc>
<speed>1.940000</speed>
</trkpt>
<trkpt lat="43.129745" lon="19.309246">
<ele>637.383301</ele>
<time>2012-05-03T11:14:24Z</time>
<desc>lat.=43.129745, lon.=19.309246, Alt.=637.383301m. Speed=9.396000m/h.</desc>
<speed>2.610000</speed>
</trkpt>
<trkpt lat="43.129833" lon="19.309196">
<ele>638.055176</ele>
<time>2012-05-03T11:14:29Z</time>
<desc>lat.=43.129833, lon.=19.309196, Alt.=638.055176m. Speed=8.172000m/h.</desc>
<speed>2.270000</speed>
</trkpt>
<trkpt lat="43.129948" lon="19.309132">
<ele>638.477051</ele>
<time>2012-05-03T11:14:34Z</time>
<desc>lat.=43.129948, lon.=19.309132, Alt.=638.477051m. Speed=7.776000m/h.</desc>
<speed>2.160000</speed>
</trkpt>
<trkpt lat="43.130043" lon="19.309061">
<ele>638.602051</ele>
<time>2012-05-03T11:14:39Z</time>
<desc>lat.=43.130043, lon.=19.309061, Alt.=638.602051m. Speed=5.724000m/h.</desc>
<speed>1.590000</speed>
</trkpt>
<trkpt lat="43.130157" lon="19.309002">
<ele>639.102051</ele>
<time>2012-05-03T11:14:44Z</time>
<desc>lat.=43.130157, lon.=19.309002, Alt.=639.102051m. Speed=8.748000m/h.</desc>
<speed>2.430000</speed>
</trkpt>
<trkpt lat="43.130325" lon="19.308987">
<ele>640.914551</ele>
<time>2012-05-03T11:14:49Z</time>
<desc>lat.=43.130325, lon.=19.308987, Alt.=640.914551m. Speed=8.352000m/h.</desc>
<speed>2.320000</speed>
</trkpt>
<trkpt lat="43.130474" lon="19.308985">
<ele>643.133301</ele>
<time>2012-05-03T11:14:54Z</time>
<desc>lat.=43.130474, lon.=19.308985, Alt.=643.133301m. Speed=8.928000m/h.</desc>
<speed>2.480000</speed>
</trkpt>
<trkpt lat="43.130608" lon="19.309080">
<ele>645.492676</ele>
<time>2012-05-03T11:14:59Z</time>
<desc>lat.=43.130608, lon.=19.309080, Alt.=645.492676m. Speed=3.960000m/h.</desc>
<speed>1.100000</speed>
</trkpt>
<trkpt lat="43.130749" lon="19.309107">
<ele>646.836426</ele>
<time>2012-05-03T11:15:04Z</time>
<desc>lat.=43.130749, lon.=19.309107, Alt.=646.836426m. Speed=8.208000m/h.</desc>
<speed>2.280000</speed>
</trkpt>
<trkpt lat="43.130894" lon="19.309200">
<ele>649.133301</ele>
<time>2012-05-03T11:15:09Z</time>
<desc>lat.=43.130894, lon.=19.309200, Alt.=649.133301m. Speed=8.352000m/h.</desc>
<speed>2.320000</speed>
</trkpt>
<trkpt lat="43.131027" lon="19.309294">
<ele>650.539551</ele>
<time>2012-05-03T11:15:14Z</time>
<desc>lat.=43.131027, lon.=19.309294, Alt.=650.539551m. Speed=5.112000m/h.</desc>
<speed>1.420000</speed>
</trkpt>
<trkpt lat="43.131142" lon="19.309364">
<ele>652.180176</ele>
<time>2012-05-03T11:15:19Z</time>
<desc>lat.=43.131142, lon.=19.309364, Alt.=652.180176m. Speed=5.292000m/h.</desc>
<speed>1.470000</speed>
</trkpt>
<trkpt lat="43.131256" lon="19.309467">
<ele>651.789551</ele>
<time>2012-05-03T11:15:24Z</time>
<desc>lat.=43.131256, lon.=19.309467, Alt.=651.789551m. Speed=4.176000m/h.</desc>
<speed>1.160000</speed>
</trkpt>
<trkpt lat="43.131378" lon="19.309513">
<ele>650.383301</ele>
<time>2012-05-03T11:15:29Z</time>
<desc>lat.=43.131378, lon.=19.309513, Alt.=650.383301m. Speed=6.048000m/h.</desc>
<speed>1.680000</speed>
</trkpt>
<trkpt lat="43.131481" lon="19.309540">
<ele>650.367676</ele>
<time>2012-05-03T11:15:34Z</time>
<desc>lat.=43.131481, lon.=19.309540, Alt.=650.367676m. Speed=5.724000m/h.</desc>
<speed>1.590000</speed>
</trkpt>
<trkpt lat="43.131550" lon="19.309530">
<ele>649.211426</ele>
<time>2012-05-03T11:15:39Z</time>
<desc>lat.=43.131550, lon.=19.309530, Alt.=649.211426m. Speed=5.148000m/h.</desc>
<speed>1.430000</speed>
</trkpt>
<trkpt lat="43.131607" lon="19.309462">
<ele>646.180176</ele>
<time>2012-05-03T11:15:44Z</time>
<desc>lat.=43.131607, lon.=19.309462, Alt.=646.180176m. Speed=2.880000m/h.</desc>
<speed>0.800000</speed>
</trkpt>
<trkpt lat="43.131687" lon="19.309397">
<ele>643.477051</ele>
<time>2012-05-03T11:15:49Z</time>
<desc>lat.=43.131687, lon.=19.309397, Alt.=643.477051m. Speed=6.552000m/h.</desc>
<speed>1.820000</speed>
</trkpt>
<trkpt lat="43.131821" lon="19.309351">
<ele>642.773926</ele>
<time>2012-05-03T11:15:54Z</time>
<desc>lat.=43.131821, lon.=19.309351, Alt.=642.773926m. Speed=9.540000m/h.</desc>
<speed>2.650000</speed>
</trkpt>
<trkpt lat="43.131931" lon="19.309301">
<ele>642.102051</ele>
<time>2012-05-03T11:15:59Z</time>
<desc>lat.=43.131931, lon.=19.309301, Alt.=642.102051m. Speed=7.236000m/h.</desc>
<speed>2.010000</speed>
</trkpt>
<trkpt lat="43.132023" lon="19.309258">
<ele>643.070801</ele>
<time>2012-05-03T11:16:04Z</time>
<desc>lat.=43.132023, lon.=19.309258, Alt.=643.070801m. Speed=5.472000m/h.</desc>
<speed>1.520000</speed>
</trkpt>
<trkpt lat="43.132084" lon="19.309177">
<ele>647.461426</ele>
<time>2012-05-03T11:16:09Z</time>
<desc>lat.=43.132084, lon.=19.309177, Alt.=647.461426m. Speed=7.056000m/h.</desc>
<speed>1.960000</speed>
</trkpt>
<trkpt lat="43.132225" lon="19.309155">
<ele>650.523926</ele>
<time>2012-05-03T11:16:14Z</time>
<desc>lat.=43.132225, lon.=19.309155, Alt.=650.523926m. Speed=10.584000m/h.</desc>
<speed>2.940000</speed>
</trkpt>
<trkpt lat="43.132370" lon="19.309132">
<ele>653.508301</ele>
<time>2012-05-03T11:16:19Z</time>
<desc>lat.=43.132370, lon.=19.309132, Alt.=653.508301m. Speed=12.636000m/h.</desc>
<speed>3.510000</speed>
</trkpt>
<trkpt lat="43.132538" lon="19.309111">
<ele>654.445801</ele>
<time>2012-05-03T11:16:24Z</time>
<desc>lat.=43.132538, lon.=19.309111, Alt.=654.445801m. Speed=11.736000m/h.</desc>
<speed>3.260000</speed>
</trkpt>
<trkpt lat="43.132660" lon="19.309092">
<ele>648.320801</ele>
<time>2012-05-03T11:16:29Z</time>
<desc>lat.=43.132660, lon.=19.309092, Alt.=648.320801m. Speed=10.368000m/h.</desc>
<speed>2.880000</speed>
</trkpt>
<trkpt lat="43.132843" lon="19.309059">
<ele>645.898926</ele>
<time>2012-05-03T11:16:34Z</time>
<desc>lat.=43.132843, lon.=19.309059, Alt.=645.898926m. Speed=11.736000m/h.</desc>
<speed>3.260000</speed>
</trkpt>
<trkpt lat="43.133011" lon="19.309004">
<ele>645.398926</ele>
<time>2012-05-03T11:16:39Z</time>
<desc>lat.=43.133011, lon.=19.309004, Alt.=645.398926m. Speed=13.788000m/h.</desc>
<speed>3.830000</speed>
</trkpt>
<trkpt lat="43.133156" lon="19.308966">
<ele>646.445801</ele>
<time>2012-05-03T11:16:44Z</time>
<desc>lat.=43.133156, lon.=19.308966, Alt.=646.445801m. Speed=10.188000m/h.</desc>
<speed>2.830000</speed>
</trkpt>
<trkpt lat="43.133293" lon="19.308905">
<ele>646.461426</ele>
<time>2012-05-03T11:16:49Z</time>
<desc>lat.=43.133293, lon.=19.308905, Alt.=646.461426m. Speed=8.748000m/h.</desc>
<speed>2.430000</speed>
</trkpt>
<trkpt lat="43.133389" lon="19.308872">
<ele>645.508301</ele>
<time>2012-05-03T11:16:54Z</time>
<desc>lat.=43.133389, lon.=19.308872, Alt.=645.508301m. Speed=8.496000m/h.</desc>
<speed>2.360000</speed>
</trkpt>
<trkpt lat="43.133507" lon="19.308861">
<ele>643.977051</ele>
<time>2012-05-03T11:16:59Z</time>
<desc>lat.=43.133507, lon.=19.308861, Alt.=643.977051m. Speed=9.684000m/h.</desc>
<speed>2.690000</speed>
</trkpt>
<trkpt lat="43.133625" lon="19.308817">
<ele>643.273926</ele>
<time>2012-05-03T11:17:04Z</time>
<desc>lat.=43.133625, lon.=19.308817, Alt.=643.273926m. Speed=8.028000m/h.</desc>
<speed>2.230000</speed>
</trkpt>
<trkpt lat="43.133717" lon="19.308716">
<ele>642.758301</ele>
<time>2012-05-03T11:17:09Z</time>
<desc>lat.=43.133717, lon.=19.308716, Alt.=642.758301m. Speed=8.064000m/h.</desc>
<speed>2.240000</speed>
</trkpt>
<trkpt lat="43.133789" lon="19.308634">
<ele>641.680176</ele>
<time>2012-05-03T11:17:14Z</time>
<desc>lat.=43.133789, lon.=19.308634, Alt.=641.680176m. Speed=7.416000m/h.</desc>
<speed>2.060000</speed>
</trkpt>
<trkpt lat="43.133835" lon="19.308546">
<ele>641.648926</ele>
<time>2012-05-03T11:17:19Z</time>
<desc>lat.=43.133835, lon.=19.308546, Alt.=641.648926m. Speed=7.308000m/h.</desc>
<speed>2.030000</speed>
</trkpt>
<trkpt lat="43.133896" lon="19.308420">
<ele>640.320801</ele>
<time>2012-05-03T11:17:24Z</time>
<desc>lat.=43.133896, lon.=19.308420, Alt.=640.320801m. Speed=8.604000m/h.</desc>
<speed>2.390000</speed>
</trkpt>
<trkpt lat="43.133949" lon="19.308239">
<ele>639.633301</ele>
<time>2012-05-03T11:17:29Z</time>
<desc>lat.=43.133949, lon.=19.308239, Alt.=639.633301m. Speed=8.928000m/h.</desc>
<speed>2.480000</speed>
</trkpt>
<trkpt lat="43.134003" lon="19.308079">
<ele>639.867676</ele>
<time>2012-05-03T11:17:34Z</time>
<desc>lat.=43.134003, lon.=19.308079, Alt.=639.867676m. Speed=9.900000m/h.</desc>
<speed>2.750000</speed>
</trkpt>
<trkpt lat="43.134094" lon="19.307976">
<ele>640.398926</ele>
<time>2012-05-03T11:17:39Z</time>
<desc>lat.=43.134094, lon.=19.307976, Alt.=640.398926m. Speed=10.836000m/h.</desc>
<speed>3.010000</speed>
</trkpt>
<trkpt lat="43.134193" lon="19.307890">
<ele>640.945801</ele>
<time>2012-05-03T11:17:44Z</time>
<desc>lat.=43.134193, lon.=19.307890, Alt.=640.945801m. Speed=9.036000m/h.</desc>
<speed>2.510000</speed>
</trkpt>
<trkpt lat="43.134289" lon="19.307802">
<ele>639.992676</ele>
<time>2012-05-03T11:17:49Z</time>
<desc>lat.=43.134289, lon.=19.307802, Alt.=639.992676m. Speed=8.352000m/h.</desc>
<speed>2.320000</speed>
</trkpt>
<trkpt lat="43.134388" lon="19.307737">
<ele>639.602051</ele>
<time>2012-05-03T11:17:54Z</time>
<desc>lat.=43.134388, lon.=19.307737, Alt.=639.602051m. Speed=8.892000m/h.</desc>
<speed>2.470000</speed>
</trkpt>
<trkpt lat="43.134487" lon="19.307619">
<ele>638.414551</ele>
<time>2012-05-03T11:17:59Z</time>
<desc>lat.=43.134487, lon.=19.307619, Alt.=638.414551m. Speed=9.504000m/h.</desc>
<speed>2.640000</speed>
</trkpt>
<trkpt lat="43.134586" lon="19.307514">
<ele>639.461426</ele>
<time>2012-05-03T11:18:04Z</time>
<desc>lat.=43.134586, lon.=19.307514, Alt.=639.461426m. Speed=10.404000m/h.</desc>
<speed>2.890000</speed>
</trkpt>
<trkpt lat="43.134682" lon="19.307446">
<ele>638.305176</ele>
<time>2012-05-03T11:18:09Z</time>
<desc>lat.=43.134682, lon.=19.307446, Alt.=638.305176m. Speed=9.360000m/h.</desc>
<speed>2.600000</speed>
</trkpt>
<trkpt lat="43.134750" lon="19.307306">
<ele>638.570801</ele>
<time>2012-05-03T11:18:14Z</time>
<desc>lat.=43.134750, lon.=19.307306, Alt.=638.570801m. Speed=10.800000m/h.</desc>
<speed>3.000000</speed>
</trkpt>
<trkpt lat="43.134827" lon="19.307167">
<ele>638.789551</ele>
<time>2012-05-03T11:18:19Z</time>
<desc>lat.=43.134827, lon.=19.307167, Alt.=638.789551m. Speed=10.152000m/h.</desc>
<speed>2.820000</speed>
</trkpt>
<trkpt lat="43.134892" lon="19.306978">
<ele>639.695801</ele>
<time>2012-05-03T11:18:24Z</time>
<desc>lat.=43.134892, lon.=19.306978, Alt.=639.695801m. Speed=11.448000m/h.</desc>
<speed>3.180000</speed>
</trkpt>
<trkpt lat="43.134991" lon="19.306839">
<ele>640.570801</ele>
<time>2012-05-03T11:18:29Z</time>
<desc>lat.=43.134991, lon.=19.306839, Alt.=640.570801m. Speed=13.464000m/h.</desc>
<speed>3.740000</speed>
</trkpt>
<trkpt lat="43.135105" lon="19.306614">
<ele>641.195801</ele>
<time>2012-05-03T11:18:34Z</time>
<desc>lat.=43.135105, lon.=19.306614, Alt.=641.195801m. Speed=12.492000m/h.</desc>
<speed>3.470000</speed>
</trkpt>
<trkpt lat="43.135170" lon="19.306412">
<ele>640.445801</ele>
<time>2012-05-03T11:18:39Z</time>
<desc>lat.=43.135170, lon.=19.306412, Alt.=640.445801m. Speed=11.952000m/h.</desc>
<speed>3.320000</speed>
</trkpt>
<trkpt lat="43.135246" lon="19.306232">
<ele>640.695801</ele>
<time>2012-05-03T11:18:44Z</time>
<desc>lat.=43.135246, lon.=19.306232, Alt.=640.695801m. Speed=11.124000m/h.</desc>
<speed>3.090000</speed>
</trkpt>
<trkpt lat="43.135380" lon="19.306093">
<ele>639.695801</ele>
<time>2012-05-03T11:18:49Z</time>
<desc>lat.=43.135380, lon.=19.306093, Alt.=639.695801m. Speed=12.636000m/h.</desc>
<speed>3.510000</speed>
</trkpt>
<trkpt lat="43.135509" lon="19.305923">
<ele>640.195801</ele>
<time>2012-05-03T11:18:54Z</time>
<desc>lat.=43.135509, lon.=19.305923, Alt.=640.195801m. Speed=13.608000m/h.</desc>
<speed>3.780000</speed>
</trkpt>
<trkpt lat="43.135651" lon="19.305765">
<ele>638.180176</ele>
<time>2012-05-03T11:18:59Z</time>
<desc>lat.=43.135651, lon.=19.305765, Alt.=638.180176m. Speed=12.816000m/h.</desc>
<speed>3.560000</speed>
</trkpt>
<trkpt lat="43.135708" lon="19.305624">
<ele>637.023926</ele>
<time>2012-05-03T11:19:04Z</time>
<desc>lat.=43.135708, lon.=19.305624, Alt.=637.023926m. Speed=9.000000m/h.</desc>
<speed>2.500000</speed>
</trkpt>
<trkpt lat="43.135788" lon="19.305487">
<ele>634.695801</ele>
<time>2012-05-03T11:19:09Z</time>
<desc>lat.=43.135788, lon.=19.305487, Alt.=634.695801m. Speed=9.180000m/h.</desc>
<speed>2.550000</speed>
</trkpt>
<trkpt lat="43.135849" lon="19.305355">
<ele>635.273926</ele>
<time>2012-05-03T11:19:14Z</time>
<desc>lat.=43.135849, lon.=19.305355, Alt.=635.273926m. Speed=9.756000m/h.</desc>
<speed>2.710000</speed>
</trkpt>
<trkpt lat="43.135937" lon="19.305210">
<ele>636.758301</ele>
<time>2012-05-03T11:19:19Z</time>
<desc>lat.=43.135937, lon.=19.305210, Alt.=636.758301m. Speed=10.656000m/h.</desc>
<speed>2.960000</speed>
</trkpt>
<trkpt lat="43.136024" lon="19.305098">
<ele>637.883301</ele>
<time>2012-05-03T11:19:24Z</time>
<desc>lat.=43.136024, lon.=19.305098, Alt.=637.883301m. Speed=8.820000m/h.</desc>
<speed>2.450000</speed>
</trkpt>
<trkpt lat="43.136089" lon="19.304974">
<ele>638.523926</ele>
<time>2012-05-03T11:19:29Z</time>
<desc>lat.=43.136089, lon.=19.304974, Alt.=638.523926m. Speed=7.416000m/h.</desc>
<speed>2.060000</speed>
</trkpt>
<trkpt lat="43.136158" lon="19.304865">
<ele>637.945801</ele>
<time>2012-05-03T11:19:34Z</time>
<desc>lat.=43.136158, lon.=19.304865, Alt.=637.945801m. Speed=8.964000m/h.</desc>
<speed>2.490000</speed>
</trkpt>
<trkpt lat="43.136200" lon="19.304739">
<ele>638.914551</ele>
<time>2012-05-03T11:19:39Z</time>
<desc>lat.=43.136200, lon.=19.304739, Alt.=638.914551m. Speed=7.884000m/h.</desc>
<speed>2.190000</speed>
</trkpt>
<trkpt lat="43.136250" lon="19.304621">
<ele>638.023926</ele>
<time>2012-05-03T11:19:44Z</time>
<desc>lat.=43.136250, lon.=19.304621, Alt.=638.023926m. Speed=7.236000m/h.</desc>
<speed>2.010000</speed>
</trkpt>
<trkpt lat="43.136322" lon="19.304560">
<ele>637.352051</ele>
<time>2012-05-03T11:19:49Z</time>
<desc>lat.=43.136322, lon.=19.304560, Alt.=637.352051m. Speed=6.228000m/h.</desc>
<speed>1.730000</speed>
</trkpt>
<trkpt lat="43.136414" lon="19.304499">
<ele>635.273926</ele>
<time>2012-05-03T11:19:54Z</time>
<desc>lat.=43.136414, lon.=19.304499, Alt.=635.273926m. Speed=7.452000m/h.</desc>
<speed>2.070000</speed>
</trkpt>
<trkpt lat="43.136494" lon="19.304426">
<ele>634.008301</ele>
<time>2012-05-03T11:19:59Z</time>
<desc>lat.=43.136494, lon.=19.304426, Alt.=634.008301m. Speed=6.876000m/h.</desc>
<speed>1.910000</speed>
</trkpt>
<trkpt lat="43.136570" lon="19.304319">
<ele>631.930176</ele>
<time>2012-05-03T11:20:04Z</time>
<desc>lat.=43.136570, lon.=19.304319, Alt.=631.930176m. Speed=8.100000m/h.</desc>
<speed>2.250000</speed>
</trkpt>
<trkpt lat="43.136627" lon="19.304235">
<ele>630.805176</ele>
<time>2012-05-03T11:20:09Z</time>
<desc>lat.=43.136627, lon.=19.304235, Alt.=630.805176m. Speed=8.460000m/h.</desc>
<speed>2.350000</speed>
</trkpt>
<trkpt lat="43.136719" lon="19.304134">
<ele>629.523926</ele>
<time>2012-05-03T11:20:14Z</time>
<desc>lat.=43.136719, lon.=19.304134, Alt.=629.523926m. Speed=8.460000m/h.</desc>
<speed>2.350000</speed>
</trkpt>
<trkpt lat="43.136795" lon="19.304049">
<ele>630.539551</ele>
<time>2012-05-03T11:20:19Z</time>
<desc>lat.=43.136795, lon.=19.304049, Alt.=630.539551m. Speed=8.640000m/h.</desc>
<speed>2.400000</speed>
</trkpt>
<trkpt lat="43.136871" lon="19.303934">
<ele>631.320801</ele>
<time>2012-05-03T11:20:24Z</time>
<desc>lat.=43.136871, lon.=19.303934, Alt.=631.320801m. Speed=8.604000m/h.</desc>
<speed>2.390000</speed>
</trkpt>
<trkpt lat="43.136940" lon="19.303860">
<ele>631.664551</ele>
<time>2012-05-03T11:20:29Z</time>
<desc>lat.=43.136940, lon.=19.303860, Alt.=631.664551m. Speed=7.740000m/h.</desc>
<speed>2.150000</speed>
</trkpt>
<trkpt lat="43.137001" lon="19.303764">
<ele>633.680176</ele>
<time>2012-05-03T11:20:34Z</time>
<desc>lat.=43.137001, lon.=19.303764, Alt.=633.680176m. Speed=6.948000m/h.</desc>
<speed>1.930000</speed>
</trkpt>
<trkpt lat="43.137062" lon="19.303631">
<ele>635.945801</ele>
<time>2012-05-03T11:20:39Z</time>
<desc>lat.=43.137062, lon.=19.303631, Alt.=635.945801m. Speed=8.856000m/h.</desc>
<speed>2.460000</speed>
</trkpt>
<trkpt lat="43.137119" lon="19.303486">
<ele>639.242676</ele>
<time>2012-05-03T11:20:44Z</time>
<desc>lat.=43.137119, lon.=19.303486, Alt.=639.242676m. Speed=8.316000m/h.</desc>
<speed>2.310000</speed>
</trkpt>
<trkpt lat="43.137203" lon="19.303387">
<ele>638.242676</ele>
<time>2012-05-03T11:20:49Z</time>
<desc>lat.=43.137203, lon.=19.303387, Alt.=638.242676m. Speed=8.784000m/h.</desc>
<speed>2.440000</speed>
</trkpt>
<trkpt lat="43.137276" lon="19.303274">
<ele>637.836426</ele>
<time>2012-05-03T11:20:54Z</time>
<desc>lat.=43.137276, lon.=19.303274, Alt.=637.836426m. Speed=7.416000m/h.</desc>
<speed>2.060000</speed>
</trkpt>
<trkpt lat="43.137341" lon="19.303226">
<ele>641.836426</ele>
<time>2012-05-03T11:20:59Z</time>
<desc>lat.=43.137341, lon.=19.303226, Alt.=641.836426m. Speed=7.884000m/h.</desc>
<speed>2.190000</speed>
</trkpt>
<trkpt lat="43.137444" lon="19.303131">
<ele>643.414551</ele>
<time>2012-05-03T11:21:04Z</time>
<desc>lat.=43.137444, lon.=19.303131, Alt.=643.414551m. Speed=8.280000m/h.</desc>
<speed>2.300000</speed>
</trkpt>
<trkpt lat="43.137539" lon="19.303032">
<ele>644.539551</ele>
<time>2012-05-03T11:21:09Z</time>
<desc>lat.=43.137539, lon.=19.303032, Alt.=644.539551m. Speed=10.872000m/h.</desc>
<speed>3.020000</speed>
</trkpt>
<trkpt lat="43.137623" lon="19.302860">
<ele>646.898926</ele>
<time>2012-05-03T11:21:14Z</time>
<desc>lat.=43.137623, lon.=19.302860, Alt.=646.898926m. Speed=12.672000m/h.</desc>
<speed>3.520000</speed>
</trkpt>
<trkpt lat="43.137756" lon="19.302681">
<ele>648.289551</ele>
<time>2012-05-03T11:21:19Z</time>
<desc>lat.=43.137756, lon.=19.302681, Alt.=648.289551m. Speed=13.896000m/h.</desc>
<speed>3.860000</speed>
</trkpt>
<trkpt lat="43.137894" lon="19.302507">
<ele>648.195801</ele>
<time>2012-05-03T11:21:24Z</time>
<desc>lat.=43.137894, lon.=19.302507, Alt.=648.195801m. Speed=12.888000m/h.</desc>
<speed>3.580000</speed>
</trkpt>
<trkpt lat="43.138008" lon="19.302372">
<ele>646.867676</ele>
<time>2012-05-03T11:21:29Z</time>
<desc>lat.=43.138008, lon.=19.302372, Alt.=646.867676m. Speed=10.512000m/h.</desc>
<speed>2.920000</speed>
</trkpt>
<trkpt lat="43.138100" lon="19.302219">
<ele>644.305176</ele>
<time>2012-05-03T11:21:34Z</time>
<desc>lat.=43.138100, lon.=19.302219, Alt.=644.305176m. Speed=11.592000m/h.</desc>
<speed>3.220000</speed>
</trkpt>
<trkpt lat="43.138237" lon="19.302109">
<ele>638.258301</ele>
<time>2012-05-03T11:21:39Z</time>
<desc>lat.=43.138237, lon.=19.302109, Alt.=638.258301m. Speed=13.248000m/h.</desc>
<speed>3.680000</speed>
</trkpt>
<trkpt lat="43.138306" lon="19.302006">
<ele>636.023926</ele>
<time>2012-05-03T11:21:44Z</time>
<desc>lat.=43.138306, lon.=19.302006, Alt.=636.023926m. Speed=5.616000m/h.</desc>
<speed>1.560000</speed>
</trkpt>
<trkpt lat="43.138321" lon="19.301962">
<ele>635.883301</ele>
<time>2012-05-03T11:21:49Z</time>
<desc>lat.=43.138321, lon.=19.301962, Alt.=635.883301m. Speed=1.728000m/h.</desc>
<speed>0.480000</speed>
</trkpt>
<trkpt lat="43.138329" lon="19.301933">
<ele>635.805176</ele>
<time>2012-05-03T11:21:54Z</time>
<desc>lat.=43.138329, lon.=19.301933, Alt.=635.805176m. Speed=2.808000m/h.</desc>
<speed>0.780000</speed>
</trkpt>
<trkpt lat="43.138321" lon="19.301853">
<ele>635.164551</ele>
<time>2012-05-03T11:21:59Z</time>
<desc>lat.=43.138321, lon.=19.301853, Alt.=635.164551m. Speed=3.780000m/h.</desc>
<speed>1.050000</speed>
</trkpt>
<trkpt lat="43.138313" lon="19.301796">
<ele>635.477051</ele>
<time>2012-05-03T11:22:04Z</time>
<desc>lat.=43.138313, lon.=19.301796, Alt.=635.477051m. Speed=1.836000m/h.</desc>
<speed>0.510000</speed>
</trkpt>
<trkpt lat="43.138306" lon="19.301805">
<ele>634.961426</ele>
<time>2012-05-03T11:22:09Z</time>
<desc>lat.=43.138306, lon.=19.301805, Alt.=634.961426m. Speed=1.116000m/h.</desc>
<speed>0.310000</speed>
</trkpt>
<trkpt lat="43.138290" lon="19.301815">
<ele>634.602051</ele>
<time>2012-05-03T11:22:14Z</time>
<desc>lat.=43.138290, lon.=19.301815, Alt.=634.602051m. Speed=0.540000m/h.</desc>
<speed>0.150000</speed>
</trkpt>
<trkpt lat="43.138290" lon="19.301821">
<ele>634.602051</ele>
<time>2012-05-03T11:22:19Z</time>
<desc>lat.=43.138290, lon.=19.301821, Alt.=634.602051m. Speed=0.468000m/h.</desc>
<speed>0.130000</speed>
</trkpt>
<trkpt lat="43.138290" lon="19.301819">
<ele>634.602051</ele>
<time>2012-05-03T11:22:24Z</time>
<desc>lat.=43.138290, lon.=19.301819, Alt.=634.602051m. Speed=0.432000m/h.</desc>
<speed>0.120000</speed>
</trkpt>
<trkpt lat="43.138290" lon="19.301821">
<ele>634.602051</ele>
<time>2012-05-03T11:22:29Z</time>
<desc>lat.=43.138290, lon.=19.301821, Alt.=634.602051m. Speed=0.324000m/h.</desc>
<speed>0.090000</speed>
</trkpt>
<trkpt lat="43.138290" lon="19.301821">
<ele>634.617676</ele>
<time>2012-05-03T11:22:34Z</time>
<desc>lat.=43.138290, lon.=19.301821, Alt.=634.617676m. Speed=0.612000m/h.</desc>
<speed>0.170000</speed>
</trkpt>
<trkpt lat="43.138302" lon="19.301832">
<ele>634.586426</ele>
<time>2012-05-03T11:22:39Z</time>
<desc>lat.=43.138302, lon.=19.301832, Alt.=634.586426m. Speed=0.720000m/h.</desc>
<speed>0.200000</speed>
</trkpt>
<trkpt lat="43.138306" lon="19.301849">
<ele>634.523926</ele>
<time>2012-05-03T11:22:44Z</time>
<desc>lat.=43.138306, lon.=19.301849, Alt.=634.523926m. Speed=1.296000m/h.</desc>
<speed>0.360000</speed>
</trkpt>
<trkpt lat="43.138332" lon="19.301863">
<ele>634.883301</ele>
<time>2012-05-03T11:22:49Z</time>
<desc>lat.=43.138332, lon.=19.301863, Alt.=634.883301m. Speed=0.576000m/h.</desc>
<speed>0.160000</speed>
</trkpt>
<trkpt lat="43.138351" lon="19.301872">
<ele>634.977051</ele>
<time>2012-05-03T11:22:54Z</time>
<desc>lat.=43.138351, lon.=19.301872, Alt.=634.977051m. Speed=0.756000m/h.</desc>
<speed>0.210000</speed>
</trkpt>
<trkpt lat="43.138355" lon="19.301870">
<ele>635.008301</ele>
<time>2012-05-03T11:22:59Z</time>
<desc>lat.=43.138355, lon.=19.301870, Alt.=635.008301m. Speed=0.792000m/h.</desc>
<speed>0.220000</speed>
</trkpt>
<trkpt lat="43.138355" lon="19.301886">
<ele>635.039551</ele>
<time>2012-05-03T11:23:04Z</time>
<desc>lat.=43.138355, lon.=19.301886, Alt.=635.039551m. Speed=0.792000m/h.</desc>
<speed>0.220000</speed>
</trkpt>
<trkpt lat="43.138348" lon="19.301964">
<ele>635.820801</ele>
<time>2012-05-03T11:23:09Z</time>
<desc>lat.=43.138348, lon.=19.301964, Alt.=635.820801m. Speed=1.908000m/h.</desc>
<speed>0.530000</speed>
</trkpt>
<trkpt lat="43.138340" lon="19.302046">
<ele>636.695801</ele>
<time>2012-05-03T11:23:14Z</time>
<desc>lat.=43.138340, lon.=19.302046, Alt.=636.695801m. Speed=1.800000m/h.</desc>
<speed>0.500000</speed>
</trkpt>
<trkpt lat="43.138332" lon="19.302061">
<ele>638.398926</ele>
<time>2012-05-03T11:23:19Z</time>
<desc>lat.=43.138332, lon.=19.302061, Alt.=638.398926m. Speed=1.368000m/h.</desc>
<speed>0.380000</speed>
</trkpt>
<trkpt lat="43.138336" lon="19.302078">
<ele>639.305176</ele>
<time>2012-05-03T11:23:24Z</time>
<desc>lat.=43.138336, lon.=19.302078, Alt.=639.305176m. Speed=1.260000m/h.</desc>
<speed>0.350000</speed>
</trkpt>
<trkpt lat="43.138367" lon="19.302067">
<ele>639.898926</ele>
<time>2012-05-03T11:23:29Z</time>
<desc>lat.=43.138367, lon.=19.302067, Alt.=639.898926m. Speed=0.432000m/h.</desc>
<speed>0.120000</speed>
</trkpt>
<trkpt lat="43.138382" lon="19.302080">
<ele>639.977051</ele>
<time>2012-05-03T11:23:34Z</time>
<desc>lat.=43.138382, lon.=19.302080, Alt.=639.977051m. Speed=0.216000m/h.</desc>
<speed>0.060000</speed>
</trkpt>
<trkpt lat="43.138397" lon="19.302036">
<ele>640.055176</ele>
<time>2012-05-03T11:23:39Z</time>
<desc>lat.=43.138397, lon.=19.302036, Alt.=640.055176m. Speed=0.612000m/h.</desc>
<speed>0.170000</speed>
</trkpt>
<trkpt lat="43.138344" lon="19.302019">
<ele>639.930176</ele>
<time>2012-05-03T11:23:44Z</time>
<desc>lat.=43.138344, lon.=19.302019, Alt.=639.930176m. Speed=1.404000m/h.</desc>
<speed>0.390000</speed>
</trkpt>
<trkpt lat="43.138241" lon="19.302038">
<ele>639.398926</ele>
<time>2012-05-03T11:23:49Z</time>
<desc>lat.=43.138241, lon.=19.302038, Alt.=639.398926m. Speed=0.540000m/h.</desc>
<speed>0.150000</speed>
</trkpt>
<trkpt lat="43.138191" lon="19.302027">
<ele>639.445801</ele>
<time>2012-05-03T11:23:54Z</time>
<desc>lat.=43.138191, lon.=19.302027, Alt.=639.445801m. Speed=1.548000m/h.</desc>
<speed>0.430000</speed>
</trkpt>
<trkpt lat="43.138157" lon="19.302010">
<ele>639.367676</ele>
<time>2012-05-03T11:23:59Z</time>
<desc>lat.=43.138157, lon.=19.302010, Alt.=639.367676m. Speed=1.872000m/h.</desc>
<speed>0.520000</speed>
</trkpt>
<trkpt lat="43.138145" lon="19.301952">
<ele>639.445801</ele>
<time>2012-05-03T11:24:04Z</time>
<desc>lat.=43.138145, lon.=19.301952, Alt.=639.445801m. Speed=3.060000m/h.</desc>
<speed>0.850000</speed>
</trkpt>
<trkpt lat="43.138157" lon="19.301811">
<ele>640.633301</ele>
<time>2012-05-03T11:24:09Z</time>
<desc>lat.=43.138157, lon.=19.301811, Alt.=640.633301m. Speed=4.500000m/h.</desc>
<speed>1.250000</speed>
</trkpt>
<trkpt lat="43.138126" lon="19.301760">
<ele>641.086426</ele>
<time>2012-05-03T11:24:14Z</time>
<desc>lat.=43.138126, lon.=19.301760, Alt.=641.086426m. Speed=1.872000m/h.</desc>
<speed>0.520000</speed>
</trkpt>
<trkpt lat="43.138062" lon="19.301733">
<ele>640.680176</ele>
<time>2012-05-03T11:24:19Z</time>
<desc>lat.=43.138062, lon.=19.301733, Alt.=640.680176m. Speed=1.800000m/h.</desc>
<speed>0.500000</speed>
</trkpt>
<trkpt lat="43.138008" lon="19.301714">
<ele>640.727051</ele>
<time>2012-05-03T11:24:24Z</time>
<desc>lat.=43.138008, lon.=19.301714, Alt.=640.727051m. Speed=1.908000m/h.</desc>
<speed>0.530000</speed>
</trkpt>
<trkpt lat="43.137985" lon="19.301647">
<ele>640.945801</ele>
<time>2012-05-03T11:24:29Z</time>
<desc>lat.=43.137985, lon.=19.301647, Alt.=640.945801m. Speed=1.332000m/h.</desc>
<speed>0.370000</speed>
</trkpt>
<trkpt lat="43.137943" lon="19.301580">
<ele>640.695801</ele>
<time>2012-05-03T11:24:34Z</time>
<desc>lat.=43.137943, lon.=19.301580, Alt.=640.695801m. Speed=1.368000m/h.</desc>
<speed>0.380000</speed>
</trkpt>
<trkpt lat="43.137905" lon="19.301519">
<ele>640.477051</ele>
<time>2012-05-03T11:24:39Z</time>
<desc>lat.=43.137905, lon.=19.301519, Alt.=640.477051m. Speed=2.088000m/h.</desc>
<speed>0.580000</speed>
</trkpt>
<trkpt lat="43.137863" lon="19.301437">
<ele>640.305176</ele>
<time>2012-05-03T11:24:44Z</time>
<desc>lat.=43.137863, lon.=19.301437, Alt.=640.305176m. Speed=2.628000m/h.</desc>
<speed>0.730000</speed>
</trkpt>
<trkpt lat="43.137817" lon="19.301325">
<ele>639.758301</ele>
<time>2012-05-03T11:24:49Z</time>
<desc>lat.=43.137817, lon.=19.301325, Alt.=639.758301m. Speed=2.520000m/h.</desc>
<speed>0.700000</speed>
</trkpt>
<trkpt lat="43.137840" lon="19.301229">
<ele>639.602051</ele>
<time>2012-05-03T11:24:54Z</time>
<desc>lat.=43.137840, lon.=19.301229, Alt.=639.602051m. Speed=2.628000m/h.</desc>
<speed>0.730000</speed>
</trkpt>
<trkpt lat="43.137863" lon="19.301195">
<ele>639.539551</ele>
<time>2012-05-03T11:24:59Z</time>
<desc>lat.=43.137863, lon.=19.301195, Alt.=639.539551m. Speed=2.520000m/h.</desc>
<speed>0.700000</speed>
</trkpt>
<trkpt lat="43.137890" lon="19.301184">
<ele>639.445801</ele>
<time>2012-05-03T11:25:04Z</time>
<desc>lat.=43.137890, lon.=19.301184, Alt.=639.445801m. Speed=2.376000m/h.</desc>
<speed>0.660000</speed>
</trkpt>
<trkpt lat="43.137886" lon="19.301180">
<ele>639.633301</ele>
<time>2012-05-03T11:25:09Z</time>
<desc>lat.=43.137886, lon.=19.301180, Alt.=639.633301m. Speed=1.368000m/h.</desc>
<speed>0.380000</speed>
</trkpt>
<trkpt lat="43.137913" lon="19.301136">
<ele>639.492676</ele>
<time>2012-05-03T11:25:14Z</time>
<desc>lat.=43.137913, lon.=19.301136, Alt.=639.492676m. Speed=2.520000m/h.</desc>
<speed>0.700000</speed>
</trkpt>
<trkpt lat="43.137936" lon="19.301109">
<ele>639.727051</ele>
<time>2012-05-03T11:25:19Z</time>
<desc>lat.=43.137936, lon.=19.301109, Alt.=639.727051m. Speed=2.376000m/h.</desc>
<speed>0.660000</speed>
</trkpt>
<trkpt lat="43.137878" lon="19.301144">
<ele>640.367676</ele>
<time>2012-05-03T11:25:24Z</time>
<desc>lat.=43.137878, lon.=19.301144, Alt.=640.367676m. Speed=0.684000m/h.</desc>
<speed>0.190000</speed>
</trkpt>
<trkpt lat="43.137867" lon="19.301188">
<ele>640.711426</ele>
<time>2012-05-03T11:25:29Z</time>
<desc>lat.=43.137867, lon.=19.301188, Alt.=640.711426m. Speed=1.368000m/h.</desc>
<speed>0.380000</speed>
</trkpt>
<trkpt lat="43.137875" lon="19.301142">
<ele>641.133301</ele>
<time>2012-05-03T11:25:34Z</time>
<desc>lat.=43.137875, lon.=19.301142, Alt.=641.133301m. Speed=2.664000m/h.</desc>
<speed>0.740000</speed>
</trkpt>
<trkpt lat="43.137886" lon="19.301065">
<ele>641.086426</ele>
<time>2012-05-03T11:25:39Z</time>
<desc>lat.=43.137886, lon.=19.301065, Alt.=641.086426m. Speed=2.304000m/h.</desc>
<speed>0.640000</speed>
</trkpt>
<trkpt lat="43.137829" lon="19.301031">
<ele>641.523926</ele>
<time>2012-05-03T11:25:44Z</time>
<desc>lat.=43.137829, lon.=19.301031, Alt.=641.523926m. Speed=1.188000m/h.</desc>
<speed>0.330000</speed>
</trkpt>
<trkpt lat="43.137756" lon="19.300930">
<ele>642.008301</ele>
<time>2012-05-03T11:25:49Z</time>
<desc>lat.=43.137756, lon.=19.300930, Alt.=642.008301m. Speed=1.332000m/h.</desc>
<speed>0.370000</speed>
</trkpt>
<trkpt lat="43.138004" lon="19.300888">
<ele>641.836426</ele>
<time>2012-05-03T11:25:54Z</time>
<desc>lat.=43.138004, lon.=19.300888, Alt.=641.836426m. Speed=3.060000m/h.</desc>
<speed>0.850000</speed>
</trkpt>
<trkpt lat="43.138119" lon="19.300892">
<ele>641.977051</ele>
<time>2012-05-03T11:25:59Z</time>
<desc>lat.=43.138119, lon.=19.300892, Alt.=641.977051m. Speed=3.960000m/h.</desc>
<speed>1.100000</speed>
</trkpt>
<trkpt lat="43.138241" lon="19.300917">
<ele>642.242676</ele>
<time>2012-05-03T11:26:09Z</time>
<desc>lat.=43.138241, lon.=19.300917, Alt.=642.242676m. Speed=1.476000m/h.</desc>
<speed>0.410000</speed>
</trkpt>
<trkpt lat="43.138302" lon="19.300924">
<ele>642.242676</ele>
<time>2012-05-03T11:26:14Z</time>
<desc>lat.=43.138302, lon.=19.300924, Alt.=642.242676m. Speed=1.764000m/h.</desc>
<speed>0.490000</speed>
</trkpt>
<trkpt lat="43.138168" lon="19.301119">
<ele>641.617676</ele>
<time>2012-05-03T11:26:22Z</time>
<desc>lat.=43.138168, lon.=19.301119, Alt.=641.617676m. Speed=1.836000m/h.</desc>
<speed>0.510000</speed>
</trkpt>
<trkpt lat="43.137897" lon="19.301241">
<ele>641.273926</ele>
<time>2012-05-03T11:26:27Z</time>
<desc>lat.=43.137897, lon.=19.301241, Alt.=641.273926m. Speed=1.332000m/h.</desc>
<speed>0.370000</speed>
</trkpt>
<trkpt lat="43.137894" lon="19.301229">
<ele>641.445801</ele>
<time>2012-05-03T11:26:32Z</time>
<desc>lat.=43.137894, lon.=19.301229, Alt.=641.445801m. Speed=0.036000m/h.</desc>
<speed>0.010000</speed>
</trkpt>
<trkpt lat="43.137966" lon="19.301147">
<ele>641.367676</ele>
<time>2012-05-03T11:26:37Z</time>
<desc>lat.=43.137966, lon.=19.301147, Alt.=641.367676m. Speed=2.808000m/h.</desc>
<speed>0.780000</speed>
</trkpt>
<trkpt lat="43.138058" lon="19.301016">
<ele>641.289551</ele>
<time>2012-05-03T11:26:42Z</time>
<desc>lat.=43.138058, lon.=19.301016, Alt.=641.289551m. Speed=4.284000m/h.</desc>
<speed>1.190000</speed>
</trkpt>
<trkpt lat="43.138149" lon="19.300880">
<ele>641.320801</ele>
<time>2012-05-03T11:26:47Z</time>
<desc>lat.=43.138149, lon.=19.300880, Alt.=641.320801m. Speed=5.292000m/h.</desc>
<speed>1.470000</speed>
</trkpt>
<trkpt lat="43.139763" lon="19.300703">
<ele>764.336426</ele>
<time>2012-05-03T11:30:03Z</time>
<desc>lat.=43.139763, lon.=19.300703, Alt.=764.336426m. Speed=1.296000m/h.</desc>
<speed>0.360000</speed>
</trkpt>
<trkpt lat="43.137436" lon="19.301668">
<ele>768.648926</ele>
<time>2012-05-03T11:30:09Z</time>
<desc>lat.=43.137436, lon.=19.301668, Alt.=768.648926m. Speed=2.124000m/h.</desc>
<speed>0.590000</speed>
</trkpt>
<trkpt lat="43.136917" lon="19.301989">
<ele>750.680176</ele>
<time>2012-05-03T11:30:14Z</time>
<desc>lat.=43.136917, lon.=19.301989, Alt.=750.680176m. Speed=1.872000m/h.</desc>
<speed>0.520000</speed>
</trkpt>
<trkpt lat="43.136883" lon="19.301996">
<ele>739.945801</ele>
<time>2012-05-03T11:30:19Z</time>
<desc>lat.=43.136883, lon.=19.301996, Alt.=739.945801m. Speed=0.828000m/h.</desc>
<speed>0.230000</speed>
</trkpt>
<trkpt lat="43.136894" lon="19.301994">
<ele>738.242676</ele>
<time>2012-05-03T11:30:24Z</time>
<desc>lat.=43.136894, lon.=19.301994, Alt.=738.242676m. Speed=1.152000m/h.</desc>
<speed>0.320000</speed>
</trkpt>
<trkpt lat="43.136890" lon="19.301968">
<ele>724.039551</ele>
<time>2012-05-03T11:30:29Z</time>
<desc>lat.=43.136890, lon.=19.301968, Alt.=724.039551m. Speed=1.656000m/h.</desc>
<speed>0.460000</speed>
</trkpt>
<trkpt lat="43.136845" lon="19.301924">
<ele>705.945801</ele>
<time>2012-05-03T11:30:34Z</time>
<desc>lat.=43.136845, lon.=19.301924, Alt.=705.945801m. Speed=2.376000m/h.</desc>
<speed>0.660000</speed>
</trkpt>
<trkpt lat="43.136784" lon="19.301815">
<ele>682.664551</ele>
<time>2012-05-03T11:30:39Z</time>
<desc>lat.=43.136784, lon.=19.301815, Alt.=682.664551m. Speed=3.708000m/h.</desc>
<speed>1.030000</speed>
</trkpt>
<trkpt lat="43.137596" lon="19.301107">
<ele>647.055176</ele>
<time>2012-05-03T11:31:12Z</time>
<desc>lat.=43.137596, lon.=19.301107, Alt.=647.055176m. Speed=7.272000m/h.</desc>
<speed>2.020000</speed>
</trkpt>
<trkpt lat="43.137859" lon="19.300987">
<ele>648.039551</ele>
<time>2012-05-03T11:31:17Z</time>
<desc>lat.=43.137859, lon.=19.300987, Alt.=648.039551m. Speed=4.392000m/h.</desc>
<speed>1.220000</speed>
</trkpt>
<trkpt lat="43.137897" lon="19.300989">
<ele>647.477051</ele>
<time>2012-05-03T11:31:22Z</time>
<desc>lat.=43.137897, lon.=19.300989, Alt.=647.477051m. Speed=2.448000m/h.</desc>
<speed>0.680000</speed>
</trkpt>
<trkpt lat="43.137875" lon="19.301081">
<ele>646.961426</ele>
<time>2012-05-03T11:31:27Z</time>
<desc>lat.=43.137875, lon.=19.301081, Alt.=646.961426m. Speed=1.260000m/h.</desc>
<speed>0.350000</speed>
</trkpt>
<trkpt lat="43.137852" lon="19.301125">
<ele>647.086426</ele>
<time>2012-05-03T11:31:32Z</time>
<desc>lat.=43.137852, lon.=19.301125, Alt.=647.086426m. Speed=1.980000m/h.</desc>
<speed>0.550000</speed>
</trkpt>
<trkpt lat="43.137863" lon="19.301174">
<ele>645.742676</ele>
<time>2012-05-03T11:31:37Z</time>
<desc>lat.=43.137863, lon.=19.301174, Alt.=645.742676m. Speed=2.664000m/h.</desc>
<speed>0.740000</speed>
</trkpt>
<trkpt lat="43.137848" lon="19.301216">
<ele>645.711426</ele>
<time>2012-05-03T11:31:42Z</time>
<desc>lat.=43.137848, lon.=19.301216, Alt.=645.711426m. Speed=1.800000m/h.</desc>
<speed>0.500000</speed>
</trkpt>
<trkpt lat="43.137894" lon="19.301258">
<ele>644.648926</ele>
<time>2012-05-03T11:31:47Z</time>
<desc>lat.=43.137894, lon.=19.301258, Alt.=644.648926m. Speed=1.908000m/h.</desc>
<speed>0.530000</speed>
</trkpt>
<trkpt lat="43.137928" lon="19.301317">
<ele>644.633301</ele>
<time>2012-05-03T11:31:52Z</time>
<desc>lat.=43.137928, lon.=19.301317, Alt.=644.633301m. Speed=2.736000m/h.</desc>
<speed>0.760000</speed>
</trkpt>
<trkpt lat="43.137936" lon="19.301357">
<ele>644.633301</ele>
<time>2012-05-03T11:31:57Z</time>
<desc>lat.=43.137936, lon.=19.301357, Alt.=644.633301m. Speed=2.124000m/h.</desc>
<speed>0.590000</speed>
</trkpt>
<trkpt lat="43.137939" lon="19.301392">
<ele>645.070801</ele>
<time>2012-05-03T11:32:02Z</time>
<desc>lat.=43.137939, lon.=19.301392, Alt.=645.070801m. Speed=2.340000m/h.</desc>
<speed>0.650000</speed>
</trkpt>
<trkpt lat="43.137947" lon="19.301414">
<ele>644.930176</ele>
<time>2012-05-03T11:32:07Z</time>
<desc>lat.=43.137947, lon.=19.301414, Alt.=644.930176m. Speed=1.188000m/h.</desc>
<speed>0.330000</speed>
</trkpt>
<trkpt lat="43.137974" lon="19.301477">
<ele>644.305176</ele>
<time>2012-05-03T11:32:12Z</time>
<desc>lat.=43.137974, lon.=19.301477, Alt.=644.305176m. Speed=2.628000m/h.</desc>
<speed>0.730000</speed>
</trkpt>
<trkpt lat="43.137989" lon="19.301498">
<ele>644.352051</ele>
<time>2012-05-03T11:32:17Z</time>
<desc>lat.=43.137989, lon.=19.301498, Alt.=644.352051m. Speed=1.872000m/h.</desc>
<speed>0.520000</speed>
</trkpt>
<trkpt lat="43.138016" lon="19.301538">
<ele>644.289551</ele>
<time>2012-05-03T11:32:22Z</time>
<desc>lat.=43.138016, lon.=19.301538, Alt.=644.289551m. Speed=2.232000m/h.</desc>
<speed>0.620000</speed>
</trkpt>
<trkpt lat="43.138035" lon="19.301577">
<ele>644.539551</ele>
<time>2012-05-03T11:32:27Z</time>
<desc>lat.=43.138035, lon.=19.301577, Alt.=644.539551m. Speed=2.376000m/h.</desc>
<speed>0.660000</speed>
</trkpt>
<trkpt lat="43.138084" lon="19.301613">
<ele>644.383301</ele>
<time>2012-05-03T11:32:32Z</time>
<desc>lat.=43.138084, lon.=19.301613, Alt.=644.383301m. Speed=2.556000m/h.</desc>
<speed>0.710000</speed>
</trkpt>
<trkpt lat="43.138138" lon="19.301647">
<ele>644.602051</ele>
<time>2012-05-03T11:32:37Z</time>
<desc>lat.=43.138138, lon.=19.301647, Alt.=644.602051m. Speed=2.592000m/h.</desc>
<speed>0.720000</speed>
</trkpt>
<trkpt lat="43.138149" lon="19.301689">
<ele>644.758301</ele>
<time>2012-05-03T11:32:42Z</time>
<desc>lat.=43.138149, lon.=19.301689, Alt.=644.758301m. Speed=1.728000m/h.</desc>
<speed>0.480000</speed>
</trkpt>
<trkpt lat="43.138134" lon="19.301722">
<ele>645.305176</ele>
<time>2012-05-03T11:32:47Z</time>
<desc>lat.=43.138134, lon.=19.301722, Alt.=645.305176m. Speed=1.332000m/h.</desc>
<speed>0.370000</speed>
</trkpt>
<trkpt lat="43.138126" lon="19.301769">
<ele>645.055176</ele>
<time>2012-05-03T11:32:52Z</time>
<desc>lat.=43.138126, lon.=19.301769, Alt.=645.055176m. Speed=1.656000m/h.</desc>
<speed>0.460000</speed>
</trkpt>
<trkpt lat="43.138130" lon="19.301798">
<ele>644.758301</ele>
<time>2012-05-03T11:32:57Z</time>
<desc>lat.=43.138130, lon.=19.301798, Alt.=644.758301m. Speed=1.332000m/h.</desc>
<speed>0.370000</speed>
</trkpt>
<trkpt lat="43.138161" lon="19.301828">
<ele>644.195801</ele>
<time>2012-05-03T11:33:02Z</time>
<desc>lat.=43.138161, lon.=19.301828, Alt.=644.195801m. Speed=1.548000m/h.</desc>
<speed>0.430000</speed>
</trkpt>
<trkpt lat="43.138199" lon="19.301840">
<ele>643.664551</ele>
<time>2012-05-03T11:33:07Z</time>
<desc>lat.=43.138199, lon.=19.301840, Alt.=643.664551m. Speed=1.800000m/h.</desc>
<speed>0.500000</speed>
</trkpt>
<trkpt lat="43.138218" lon="19.301815">
<ele>643.664551</ele>
<time>2012-05-03T11:33:12Z</time>
<desc>lat.=43.138218, lon.=19.301815, Alt.=643.664551m. Speed=1.404000m/h.</desc>
<speed>0.390000</speed>
</trkpt>
<trkpt lat="43.138218" lon="19.301846">
<ele>643.086426</ele>
<time>2012-05-03T11:33:17Z</time>
<desc>lat.=43.138218, lon.=19.301846, Alt.=643.086426m. Speed=0.108000m/h.</desc>
<speed>0.030000</speed>
</trkpt>
<trkpt lat="43.138218" lon="19.301846">
<ele>643.164551</ele>
<time>2012-05-03T11:33:22Z</time>
<desc>lat.=43.138218, lon.=19.301846, Alt.=643.164551m. Speed=0.720000m/h.</desc>
<speed>0.200000</speed>
</trkpt>
<trkpt lat="43.138241" lon="19.301842">
<ele>643.211426</ele>
<time>2012-05-03T11:33:27Z</time>
<desc>lat.=43.138241, lon.=19.301842, Alt.=643.211426m. Speed=1.152000m/h.</desc>
<speed>0.320000</speed>
</trkpt>
<trkpt lat="43.138306" lon="19.301872">
<ele>642.914551</ele>
<time>2012-05-03T11:33:32Z</time>
<desc>lat.=43.138306, lon.=19.301872, Alt.=642.914551m. Speed=0.720000m/h.</desc>
<speed>0.200000</speed>
</trkpt>
<trkpt lat="43.138325" lon="19.301901">
<ele>642.992676</ele>
<time>2012-05-03T11:33:37Z</time>
<desc>lat.=43.138325, lon.=19.301901, Alt.=642.992676m. Speed=1.152000m/h.</desc>
<speed>0.320000</speed>
</trkpt>
<trkpt lat="43.138321" lon="19.301916">
<ele>641.133301</ele>
<time>2012-05-03T11:33:42Z</time>
<desc>lat.=43.138321, lon.=19.301916, Alt.=641.133301m. Speed=0.900000m/h.</desc>
<speed>0.250000</speed>
</trkpt>
<trkpt lat="43.138321" lon="19.301970">
<ele>640.367676</ele>
<time>2012-05-03T11:33:47Z</time>
<desc>lat.=43.138321, lon.=19.301970, Alt.=640.367676m. Speed=2.016000m/h.</desc>
<speed>0.560000</speed>
</trkpt>
<trkpt lat="43.138302" lon="19.302025">
<ele>638.352051</ele>
<time>2012-05-03T11:33:52Z</time>
<desc>lat.=43.138302, lon.=19.302025, Alt.=638.352051m. Speed=1.908000m/h.</desc>
<speed>0.530000</speed>
</trkpt>
<trkpt lat="43.138321" lon="19.302044">
<ele>637.711426</ele>
<time>2012-05-03T11:33:57Z</time>
<desc>lat.=43.138321, lon.=19.302044, Alt.=637.711426m. Speed=1.980000m/h.</desc>
<speed>0.550000</speed>
</trkpt>
<trkpt lat="43.138344" lon="19.302057">
<ele>637.883301</ele>
<time>2012-05-03T11:34:02Z</time>
<desc>lat.=43.138344, lon.=19.302057, Alt.=637.883301m. Speed=1.188000m/h.</desc>
<speed>0.330000</speed>
</trkpt>
<trkpt lat="43.138332" lon="19.302076">
<ele>638.305176</ele>
<time>2012-05-03T11:34:07Z</time>
<desc>lat.=43.138332, lon.=19.302076, Alt.=638.305176m. Speed=0.396000m/h.</desc>
<speed>0.110000</speed>
</trkpt>
<trkpt lat="43.138329" lon="19.302067">
<ele>638.336426</ele>
<time>2012-05-03T11:34:12Z</time>
<desc>lat.=43.138329, lon.=19.302067, Alt.=638.336426m. Speed=1.008000m/h.</desc>
<speed>0.280000</speed>
</trkpt>
<trkpt lat="43.138359" lon="19.302025">
<ele>637.930176</ele>
<time>2012-05-03T11:34:17Z</time>
<desc>lat.=43.138359, lon.=19.302025, Alt.=637.930176m. Speed=1.404000m/h.</desc>
<speed>0.390000</speed>
</trkpt>
<trkpt lat="43.138409" lon="19.301996">
<ele>638.148926</ele>
<time>2012-05-03T11:34:22Z</time>
<desc>lat.=43.138409, lon.=19.301996, Alt.=638.148926m. Speed=1.620000m/h.</desc>
<speed>0.450000</speed>
</trkpt>
<trkpt lat="43.138424" lon="19.301939">
<ele>639.602051</ele>
<time>2012-05-03T11:34:27Z</time>
<desc>lat.=43.138424, lon.=19.301939, Alt.=639.602051m. Speed=1.368000m/h.</desc>
<speed>0.380000</speed>
</trkpt>
<trkpt lat="43.138412" lon="19.301924">
<ele>640.242676</ele>
<time>2012-05-03T11:34:32Z</time>
<desc>lat.=43.138412, lon.=19.301924, Alt.=640.242676m. Speed=0.684000m/h.</desc>
<speed>0.190000</speed>
</trkpt>
<trkpt lat="43.138420" lon="19.301914">
<ele>640.258301</ele>
<time>2012-05-03T11:34:37Z</time>
<desc>lat.=43.138420, lon.=19.301914, Alt.=640.258301m. Speed=0.576000m/h.</desc>
<speed>0.160000</speed>
</trkpt>
<trkpt lat="43.138412" lon="19.301901">
<ele>640.258301</ele>
<time>2012-05-03T11:34:42Z</time>
<desc>lat.=43.138412, lon.=19.301901, Alt.=640.258301m. Speed=0.684000m/h.</desc>
<speed>0.190000</speed>
</trkpt>
<trkpt lat="43.138412" lon="19.301897">
<ele>640.273926</ele>
<time>2012-05-03T11:34:47Z</time>
<desc>lat.=43.138412, lon.=19.301897, Alt.=640.273926m. Speed=0.792000m/h.</desc>
<speed>0.220000</speed>
</trkpt>
<trkpt lat="43.138412" lon="19.301908">
<ele>640.305176</ele>
<time>2012-05-03T11:34:52Z</time>
<desc>lat.=43.138412, lon.=19.301908, Alt.=640.305176m. Speed=0.468000m/h.</desc>
<speed>0.130000</speed>
</trkpt>
<trkpt lat="43.138405" lon="19.301926">
<ele>640.523926</ele>
<time>2012-05-03T11:34:57Z</time>
<desc>lat.=43.138405, lon.=19.301926, Alt.=640.523926m. Speed=1.260000m/h.</desc>
<speed>0.350000</speed>
</trkpt>
<trkpt lat="43.138432" lon="19.301949">
<ele>640.773926</ele>
<time>2012-05-03T11:35:02Z</time>
<desc>lat.=43.138432, lon.=19.301949, Alt.=640.773926m. Speed=0.900000m/h.</desc>
<speed>0.250000</speed>
</trkpt>
<trkpt lat="43.138489" lon="19.301872">
<ele>640.242676</ele>
<time>2012-05-03T11:35:07Z</time>
<desc>lat.=43.138489, lon.=19.301872, Alt.=640.242676m. Speed=1.188000m/h.</desc>
<speed>0.330000</speed>
</trkpt>
<trkpt lat="43.138508" lon="19.301863">
<ele>640.273926</ele>
<time>2012-05-03T11:35:12Z</time>
<desc>lat.=43.138508, lon.=19.301863, Alt.=640.273926m. Speed=0.612000m/h.</desc>
<speed>0.170000</speed>
</trkpt>
<trkpt lat="43.138512" lon="19.301863">
<ele>640.289551</ele>
<time>2012-05-03T11:35:17Z</time>
<desc>lat.=43.138512, lon.=19.301863, Alt.=640.289551m. Speed=0.288000m/h.</desc>
<speed>0.080000</speed>
</trkpt>
<trkpt lat="43.138515" lon="19.301868">
<ele>640.320801</ele>
<time>2012-05-03T11:35:22Z</time>
<desc>lat.=43.138515, lon.=19.301868, Alt.=640.320801m. Speed=0.936000m/h.</desc>
<speed>0.260000</speed>
</trkpt>
<trkpt lat="43.138561" lon="19.301851">
<ele>640.539551</ele>
<time>2012-05-03T11:35:27Z</time>
<desc>lat.=43.138561, lon.=19.301851, Alt.=640.539551m. Speed=1.224000m/h.</desc>
<speed>0.340000</speed>
</trkpt>
<trkpt lat="43.138573" lon="19.301847">
<ele>638.633301</ele>
<time>2012-05-03T11:35:32Z</time>
<desc>lat.=43.138573, lon.=19.301847, Alt.=638.633301m. Speed=0.972000m/h.</desc>
<speed>0.270000</speed>
</trkpt>
<trkpt lat="43.138577" lon="19.301853">
<ele>638.867676</ele>
<time>2012-05-03T11:35:37Z</time>
<desc>lat.=43.138577, lon.=19.301853, Alt.=638.867676m. Speed=0.540000m/h.</desc>
<speed>0.150000</speed>
</trkpt>
<trkpt lat="43.138577" lon="19.301842">
<ele>639.336426</ele>
<time>2012-05-03T11:35:42Z</time>
<desc>lat.=43.138577, lon.=19.301842, Alt.=639.336426m. Speed=0.576000m/h.</desc>
<speed>0.160000</speed>
</trkpt>
<trkpt lat="43.138561" lon="19.301847">
<ele>639.477051</ele>
<time>2012-05-03T11:35:47Z</time>
<desc>lat.=43.138561, lon.=19.301847, Alt.=639.477051m. Speed=1.188000m/h.</desc>
<speed>0.330000</speed>
</trkpt>
<trkpt lat="43.138554" lon="19.301872">
<ele>639.820801</ele>
<time>2012-05-03T11:35:52Z</time>
<desc>lat.=43.138554, lon.=19.301872, Alt.=639.820801m. Speed=1.332000m/h.</desc>
<speed>0.370000</speed>
</trkpt>
<trkpt lat="43.138577" lon="19.301886">
<ele>638.867676</ele>
<time>2012-05-03T11:35:57Z</time>
<desc>lat.=43.138577, lon.=19.301886, Alt.=638.867676m. Speed=1.332000m/h.</desc>
<speed>0.370000</speed>
</trkpt>
<trkpt lat="43.138546" lon="19.301878">
<ele>638.977051</ele>
<time>2012-05-03T11:36:02Z</time>
<desc>lat.=43.138546, lon.=19.301878, Alt.=638.977051m. Speed=1.260000m/h.</desc>
<speed>0.350000</speed>
</trkpt>
<trkpt lat="43.138496" lon="19.301865">
<ele>638.617676</ele>
<time>2012-05-03T11:36:07Z</time>
<desc>lat.=43.138496, lon.=19.301865, Alt.=638.617676m. Speed=1.080000m/h.</desc>
<speed>0.300000</speed>
</trkpt>
<trkpt lat="43.138416" lon="19.301840">
<ele>639.117676</ele>
<time>2012-05-03T11:36:12Z</time>
<desc>lat.=43.138416, lon.=19.301840, Alt.=639.117676m. Speed=0.720000m/h.</desc>
<speed>0.200000</speed>
</trkpt>
<trkpt lat="43.138355" lon="19.301823">
<ele>637.680176</ele>
<time>2012-05-03T11:36:17Z</time>
<desc>lat.=43.138355, lon.=19.301823, Alt.=637.680176m. Speed=1.224000m/h.</desc>
<speed>0.340000</speed>
</trkpt>
<trkpt lat="43.138332" lon="19.301819">
<ele>638.070801</ele>
<time>2012-05-03T11:36:22Z</time>
<desc>lat.=43.138332, lon.=19.301819, Alt.=638.070801m. Speed=0.972000m/h.</desc>
<speed>0.270000</speed>
</trkpt>
<trkpt lat="43.138321" lon="19.301802">
<ele>637.711426</ele>
<time>2012-05-03T11:36:27Z</time>
<desc>lat.=43.138321, lon.=19.301802, Alt.=637.711426m. Speed=1.080000m/h.</desc>
<speed>0.300000</speed>
</trkpt>
<trkpt lat="43.138332" lon="19.301813">
<ele>637.852051</ele>
<time>2012-05-03T11:36:32Z</time>
<desc>lat.=43.138332, lon.=19.301813, Alt.=637.852051m. Speed=0.756000m/h.</desc>
<speed>0.210000</speed>
</trkpt>
<trkpt lat="43.138397" lon="19.301897">
<ele>637.023926</ele>
<time>2012-05-03T11:36:37Z</time>
<desc>lat.=43.138397, lon.=19.301897, Alt.=637.023926m. Speed=2.196000m/h.</desc>
<speed>0.610000</speed>
</trkpt>
<trkpt lat="43.138424" lon="19.301952">
<ele>636.445801</ele>
<time>2012-05-03T11:36:42Z</time>
<desc>lat.=43.138424, lon.=19.301952, Alt.=636.445801m. Speed=1.476000m/h.</desc>
<speed>0.410000</speed>
</trkpt>
<trkpt lat="43.138393" lon="19.301973">
<ele>636.039551</ele>
<time>2012-05-03T11:36:47Z</time>
<desc>lat.=43.138393, lon.=19.301973, Alt.=636.039551m. Speed=2.124000m/h.</desc>
<speed>0.590000</speed>
</trkpt>
<trkpt lat="43.138378" lon="19.302023">
<ele>635.602051</ele>
<time>2012-05-03T11:36:52Z</time>
<desc>lat.=43.138378, lon.=19.302023, Alt.=635.602051m. Speed=2.916000m/h.</desc>
<speed>0.810000</speed>
</trkpt>
<trkpt lat="43.138424" lon="19.302048">
<ele>635.820801</ele>
<time>2012-05-03T11:36:57Z</time>
<desc>lat.=43.138424, lon.=19.302048, Alt.=635.820801m. Speed=4.392000m/h.</desc>
<speed>1.220000</speed>
</trkpt>
<trkpt lat="43.138531" lon="19.301981">
<ele>635.664551</ele>
<time>2012-05-03T11:37:02Z</time>
<desc>lat.=43.138531, lon.=19.301981, Alt.=635.664551m. Speed=11.088000m/h.</desc>
<speed>3.080000</speed>
</trkpt>
<trkpt lat="43.138653" lon="19.301865">
<ele>635.102051</ele>
<time>2012-05-03T11:37:07Z</time>
<desc>lat.=43.138653, lon.=19.301865, Alt.=635.102051m. Speed=9.144000m/h.</desc>
<speed>2.540000</speed>
</trkpt>
<trkpt lat="43.138744" lon="19.301760">
<ele>636.352051</ele>
<time>2012-05-03T11:37:12Z</time>
<desc>lat.=43.138744, lon.=19.301760, Alt.=636.352051m. Speed=10.008000m/h.</desc>
<speed>2.780000</speed>
</trkpt>
<trkpt lat="43.138840" lon="19.301666">
<ele>635.836426</ele>
<time>2012-05-03T11:37:17Z</time>
<desc>lat.=43.138840, lon.=19.301666, Alt.=635.836426m. Speed=8.172000m/h.</desc>
<speed>2.270000</speed>
</trkpt>
<trkpt lat="43.138962" lon="19.301584">
<ele>635.258301</ele>
<time>2012-05-03T11:37:22Z</time>
<desc>lat.=43.138962, lon.=19.301584, Alt.=635.258301m. Speed=9.612000m/h.</desc>
<speed>2.670000</speed>
</trkpt>
<trkpt lat="43.139057" lon="19.301474">
<ele>635.008301</ele>
<time>2012-05-03T11:37:27Z</time>
<desc>lat.=43.139057, lon.=19.301474, Alt.=635.008301m. Speed=8.712000m/h.</desc>
<speed>2.420000</speed>
</trkpt>
<trkpt lat="43.139149" lon="19.301394">
<ele>634.914551</ele>
<time>2012-05-03T11:37:32Z</time>
<desc>lat.=43.139149, lon.=19.301394, Alt.=634.914551m. Speed=8.316000m/h.</desc>
<speed>2.310000</speed>
</trkpt>
<trkpt lat="43.139256" lon="19.301321">
<ele>634.898926</ele>
<time>2012-05-03T11:37:37Z</time>
<desc>lat.=43.139256, lon.=19.301321, Alt.=634.898926m. Speed=9.072000m/h.</desc>
<speed>2.520000</speed>
</trkpt>
<trkpt lat="43.139370" lon="19.301279">
<ele>634.930176</ele>
<time>2012-05-03T11:37:42Z</time>
<desc>lat.=43.139370, lon.=19.301279, Alt.=634.930176m. Speed=8.388000m/h.</desc>
<speed>2.330000</speed>
</trkpt>
<trkpt lat="43.139545" lon="19.301254">
<ele>635.617676</ele>
<time>2012-05-03T11:37:47Z</time>
<desc>lat.=43.139545, lon.=19.301254, Alt.=635.617676m. Speed=11.376000m/h.</desc>
<speed>3.160000</speed>
</trkpt>
<trkpt lat="43.139717" lon="19.301201">
<ele>636.336426</ele>
<time>2012-05-03T11:37:52Z</time>
<desc>lat.=43.139717, lon.=19.301201, Alt.=636.336426m. Speed=11.808000m/h.</desc>
<speed>3.280000</speed>
</trkpt>
<trkpt lat="43.139870" lon="19.301132">
<ele>635.914551</ele>
<time>2012-05-03T11:37:57Z</time>
<desc>lat.=43.139870, lon.=19.301132, Alt.=635.914551m. Speed=11.124000m/h.</desc>
<speed>3.090000</speed>
</trkpt>
<trkpt lat="43.140022" lon="19.301104">
<ele>634.461426</ele>
<time>2012-05-03T11:38:02Z</time>
<desc>lat.=43.140022, lon.=19.301104, Alt.=634.461426m. Speed=11.484000m/h.</desc>
<speed>3.190000</speed>
</trkpt>
<trkpt lat="43.140137" lon="19.300982">
<ele>635.414551</ele>
<time>2012-05-03T11:38:07Z</time>
<desc>lat.=43.140137, lon.=19.300982, Alt.=635.414551m. Speed=10.692000m/h.</desc>
<speed>2.970000</speed>
</trkpt>
<trkpt lat="43.140259" lon="19.300915">
<ele>635.508301</ele>
<time>2012-05-03T11:38:12Z</time>
<desc>lat.=43.140259, lon.=19.300915, Alt.=635.508301m. Speed=11.880000m/h.</desc>
<speed>3.300000</speed>
</trkpt>
<trkpt lat="43.140392" lon="19.300863">
<ele>635.445801</ele>
<time>2012-05-03T11:38:17Z</time>
<desc>lat.=43.140392, lon.=19.300863, Alt.=635.445801m. Speed=8.496000m/h.</desc>
<speed>2.360000</speed>
</trkpt>
<trkpt lat="43.140491" lon="19.300800">
<ele>635.430176</ele>
<time>2012-05-03T11:38:22Z</time>
<desc>lat.=43.140491, lon.=19.300800, Alt.=635.430176m. Speed=7.848000m/h.</desc>
<speed>2.180000</speed>
</trkpt>
<trkpt lat="43.140575" lon="19.300667">
<ele>635.773926</ele>
<time>2012-05-03T11:38:27Z</time>
<desc>lat.=43.140575, lon.=19.300667, Alt.=635.773926m. Speed=9.504000m/h.</desc>
<speed>2.640000</speed>
</trkpt>
<trkpt lat="43.140678" lon="19.300579">
<ele>636.664551</ele>
<time>2012-05-03T11:38:32Z</time>
<desc>lat.=43.140678, lon.=19.300579, Alt.=636.664551m. Speed=9.000000m/h.</desc>
<speed>2.500000</speed>
</trkpt>
<trkpt lat="43.140835" lon="19.300575">
<ele>638.086426</ele>
<time>2012-05-03T11:38:37Z</time>
<desc>lat.=43.140835, lon.=19.300575, Alt.=638.086426m. Speed=9.432000m/h.</desc>
<speed>2.620000</speed>
</trkpt>
<trkpt lat="43.141003" lon="19.300541">
<ele>639.023926</ele>
<time>2012-05-03T11:38:42Z</time>
<desc>lat.=43.141003, lon.=19.300541, Alt.=639.023926m. Speed=11.988000m/h.</desc>
<speed>3.330000</speed>
</trkpt>
<trkpt lat="43.141163" lon="19.300467">
<ele>641.258301</ele>
<time>2012-05-03T11:38:47Z</time>
<desc>lat.=43.141163, lon.=19.300467, Alt.=641.258301m. Speed=14.688000m/h.</desc>
<speed>4.080000</speed>
</trkpt>
<trkpt lat="43.141315" lon="19.300344">
<ele>642.992676</ele>
<time>2012-05-03T11:38:52Z</time>
<desc>lat.=43.141315, lon.=19.300344, Alt.=642.992676m. Speed=13.536000m/h.</desc>
<speed>3.760000</speed>
</trkpt>
<trkpt lat="43.141438" lon="19.300165">
<ele>644.414551</ele>
<time>2012-05-03T11:38:57Z</time>
<desc>lat.=43.141438, lon.=19.300165, Alt.=644.414551m. Speed=12.312000m/h.</desc>
<speed>3.420000</speed>
</trkpt>
<trkpt lat="43.141563" lon="19.299992">
<ele>645.430176</ele>
<time>2012-05-03T11:39:02Z</time>
<desc>lat.=43.141563, lon.=19.299992, Alt.=645.430176m. Speed=13.284000m/h.</desc>
<speed>3.690000</speed>
</trkpt>
<trkpt lat="43.141685" lon="19.299809">
<ele>645.945801</ele>
<time>2012-05-03T11:39:07Z</time>
<desc>lat.=43.141685, lon.=19.299809, Alt.=645.945801m. Speed=13.068000m/h.</desc>
<speed>3.630000</speed>
</trkpt>
<trkpt lat="43.141800" lon="19.299639">
<ele>649.602051</ele>
<time>2012-05-03T11:39:12Z</time>
<desc>lat.=43.141800, lon.=19.299639, Alt.=649.602051m. Speed=13.680000m/h.</desc>
<speed>3.800000</speed>
</trkpt>
<trkpt lat="43.141941" lon="19.299488">
<ele>651.758301</ele>
<time>2012-05-03T11:39:17Z</time>
<desc>lat.=43.141941, lon.=19.299488, Alt.=651.758301m. Speed=12.384000m/h.</desc>
<speed>3.440000</speed>
</trkpt>
<trkpt lat="43.142063" lon="19.299374">
<ele>652.664551</ele>
<time>2012-05-03T11:39:22Z</time>
<desc>lat.=43.142063, lon.=19.299374, Alt.=652.664551m. Speed=10.548000m/h.</desc>
<speed>2.930000</speed>
</trkpt>
<trkpt lat="43.142166" lon="19.299286">
<ele>653.430176</ele>
<time>2012-05-03T11:39:27Z</time>
<desc>lat.=43.142166, lon.=19.299286, Alt.=653.430176m. Speed=10.728000m/h.</desc>
<speed>2.980000</speed>
</trkpt>
<trkpt lat="43.142250" lon="19.299149">
<ele>654.023926</ele>
<time>2012-05-03T11:39:32Z</time>
<desc>lat.=43.142250, lon.=19.299149, Alt.=654.023926m. Speed=10.008000m/h.</desc>
<speed>2.780000</speed>
</trkpt>
<trkpt lat="43.142338" lon="19.299044">
<ele>655.414551</ele>
<time>2012-05-03T11:39:37Z</time>
<desc>lat.=43.142338, lon.=19.299044, Alt.=655.414551m. Speed=8.568000m/h.</desc>
<speed>2.380000</speed>
</trkpt>
<trkpt lat="43.142437" lon="19.298971">
<ele>654.523926</ele>
<time>2012-05-03T11:39:42Z</time>
<desc>lat.=43.142437, lon.=19.298971, Alt.=654.523926m. Speed=6.840000m/h.</desc>
<speed>1.900000</speed>
</trkpt>
<trkpt lat="43.142559" lon="19.298943">
<ele>652.836426</ele>
<time>2012-05-03T11:39:47Z</time>
<desc>lat.=43.142559, lon.=19.298943, Alt.=652.836426m. Speed=8.604000m/h.</desc>
<speed>2.390000</speed>
</trkpt>
<trkpt lat="43.142666" lon="19.298912">
<ele>652.836426</ele>
<time>2012-05-03T11:39:52Z</time>
<desc>lat.=43.142666, lon.=19.298912, Alt.=652.836426m. Speed=5.976000m/h.</desc>
<speed>1.660000</speed>
</trkpt>
<trkpt lat="43.142780" lon="19.298895">
<ele>653.148926</ele>
<time>2012-05-03T11:39:57Z</time>
<desc>lat.=43.142780, lon.=19.298895, Alt.=653.148926m. Speed=5.904000m/h.</desc>
<speed>1.640000</speed>
</trkpt>
<trkpt lat="43.142872" lon="19.298866">
<ele>652.305176</ele>
<time>2012-05-03T11:40:02Z</time>
<desc>lat.=43.142872, lon.=19.298866, Alt.=652.305176m. Speed=8.028000m/h.</desc>
<speed>2.230000</speed>
</trkpt>
<trkpt lat="43.142975" lon="19.298885">
<ele>652.555176</ele>
<time>2012-05-03T11:40:07Z</time>
<desc>lat.=43.142975, lon.=19.298885, Alt.=652.555176m. Speed=6.912000m/h.</desc>
<speed>1.920000</speed>
</trkpt>
<trkpt lat="43.143097" lon="19.298862">
<ele>651.492676</ele>
<time>2012-05-03T11:40:12Z</time>
<desc>lat.=43.143097, lon.=19.298862, Alt.=651.492676m. Speed=8.856000m/h.</desc>
<speed>2.460000</speed>
</trkpt>
<trkpt lat="43.143223" lon="19.298811">
<ele>651.383301</ele>
<time>2012-05-03T11:40:17Z</time>
<desc>lat.=43.143223, lon.=19.298811, Alt.=651.383301m. Speed=7.128000m/h.</desc>
<speed>1.980000</speed>
</trkpt>
<trkpt lat="43.143333" lon="19.298834">
<ele>651.305176</ele>
<time>2012-05-03T11:40:22Z</time>
<desc>lat.=43.143333, lon.=19.298834, Alt.=651.305176m. Speed=6.984000m/h.</desc>
<speed>1.940000</speed>
</trkpt>
<trkpt lat="43.143421" lon="19.298864">
<ele>649.617676</ele>
<time>2012-05-03T11:40:27Z</time>
<desc>lat.=43.143421, lon.=19.298864, Alt.=649.617676m. Speed=6.480000m/h.</desc>
<speed>1.800000</speed>
</trkpt>
<trkpt lat="43.143490" lon="19.298901">
<ele>649.570801</ele>
<time>2012-05-03T11:40:32Z</time>
<desc>lat.=43.143490, lon.=19.298901, Alt.=649.570801m. Speed=4.572000m/h.</desc>
<speed>1.270000</speed>
</trkpt>
<trkpt lat="43.143578" lon="19.298935">
<ele>649.680176</ele>
<time>2012-05-03T11:40:37Z</time>
<desc>lat.=43.143578, lon.=19.298935, Alt.=649.680176m. Speed=5.400000m/h.</desc>
<speed>1.500000</speed>
</trkpt>
<trkpt lat="43.143650" lon="19.298985">
<ele>649.852051</ele>
<time>2012-05-03T11:40:42Z</time>
<desc>lat.=43.143650, lon.=19.298985, Alt.=649.852051m. Speed=5.580000m/h.</desc>
<speed>1.550000</speed>
</trkpt>
<trkpt lat="43.143696" lon="19.299036">
<ele>649.883301</ele>
<time>2012-05-03T11:40:47Z</time>
<desc>lat.=43.143696, lon.=19.299036, Alt.=649.883301m. Speed=2.844000m/h.</desc>
<speed>0.790000</speed>
</trkpt>
<trkpt lat="43.143726" lon="19.299034">
<ele>649.602051</ele>
<time>2012-05-03T11:40:52Z</time>
<desc>lat.=43.143726, lon.=19.299034, Alt.=649.602051m. Speed=5.220000m/h.</desc>
<speed>1.450000</speed>
</trkpt>
<trkpt lat="43.143787" lon="19.298874">
<ele>649.586426</ele>
<time>2012-05-03T11:40:57Z</time>
<desc>lat.=43.143787, lon.=19.298874, Alt.=649.586426m. Speed=5.040000m/h.</desc>
<speed>1.400000</speed>
</trkpt>
<trkpt lat="43.143852" lon="19.298697">
<ele>650.320801</ele>
<time>2012-05-03T11:41:02Z</time>
<desc>lat.=43.143852, lon.=19.298697, Alt.=650.320801m. Speed=5.832000m/h.</desc>
<speed>1.620000</speed>
</trkpt>
<trkpt lat="43.143913" lon="19.298578">
<ele>651.695801</ele>
<time>2012-05-03T11:41:07Z</time>
<desc>lat.=43.143913, lon.=19.298578, Alt.=651.695801m. Speed=5.364000m/h.</desc>
<speed>1.490000</speed>
</trkpt>
<trkpt lat="43.143993" lon="19.298376">
<ele>653.820801</ele>
<time>2012-05-03T11:41:12Z</time>
<desc>lat.=43.143993, lon.=19.298376, Alt.=653.820801m. Speed=7.128000m/h.</desc>
<speed>1.980000</speed>
</trkpt>
<trkpt lat="43.144054" lon="19.298103">
<ele>656.461426</ele>
<time>2012-05-03T11:41:17Z</time>
<desc>lat.=43.144054, lon.=19.298103, Alt.=656.461426m. Speed=5.976000m/h.</desc>
<speed>1.660000</speed>
</trkpt>
<trkpt lat="43.144272" lon="19.297932">
<ele>644.320801</ele>
<time>2012-05-03T11:41:22Z</time>
<desc>lat.=43.144272, lon.=19.297932, Alt.=644.320801m. Speed=5.148000m/h.</desc>
<speed>1.430000</speed>
</trkpt>
<trkpt lat="43.144314" lon="19.297888">
<ele>645.195801</ele>
<time>2012-05-03T11:41:27Z</time>
<desc>lat.=43.144314, lon.=19.297888, Alt.=645.195801m. Speed=4.716000m/h.</desc>
<speed>1.310000</speed>
</trkpt>
<trkpt lat="43.144424" lon="19.297857">
<ele>645.461426</ele>
<time>2012-05-03T11:41:32Z</time>
<desc>lat.=43.144424, lon.=19.297857, Alt.=645.461426m. Speed=3.672000m/h.</desc>
<speed>1.020000</speed>
</trkpt>
<trkpt lat="43.144508" lon="19.297852">
<ele>644.945801</ele>
<time>2012-05-03T11:41:37Z</time>
<desc>lat.=43.144508, lon.=19.297852, Alt.=644.945801m. Speed=3.672000m/h.</desc>
<speed>1.020000</speed>
</trkpt>
<trkpt lat="43.144562" lon="19.297810">
<ele>645.242676</ele>
<time>2012-05-03T11:41:42Z</time>
<desc>lat.=43.144562, lon.=19.297810, Alt.=645.242676m. Speed=2.412000m/h.</desc>
<speed>0.670000</speed>
</trkpt>
<trkpt lat="43.144684" lon="19.297766">
<ele>645.070801</ele>
<time>2012-05-03T11:41:47Z</time>
<desc>lat.=43.144684, lon.=19.297766, Alt.=645.070801m. Speed=4.608000m/h.</desc>
<speed>1.280000</speed>
</trkpt>
<trkpt lat="43.144806" lon="19.297705">
<ele>646.383301</ele>
<time>2012-05-03T11:41:52Z</time>
<desc>lat.=43.144806, lon.=19.297705, Alt.=646.383301m. Speed=6.840000m/h.</desc>
<speed>1.900000</speed>
</trkpt>
<trkpt lat="43.144878" lon="19.297625">
<ele>645.961426</ele>
<time>2012-05-03T11:41:57Z</time>
<desc>lat.=43.144878, lon.=19.297625, Alt.=645.961426m. Speed=6.588000m/h.</desc>
<speed>1.830000</speed>
</trkpt>
<trkpt lat="43.144962" lon="19.297565">
<ele>645.164551</ele>
<time>2012-05-03T11:42:02Z</time>
<desc>lat.=43.144962, lon.=19.297565, Alt.=645.164551m. Speed=6.624000m/h.</desc>
<speed>1.840000</speed>
</trkpt>
<trkpt lat="43.145050" lon="19.297537">
<ele>645.508301</ele>
<time>2012-05-03T11:42:07Z</time>
<desc>lat.=43.145050, lon.=19.297537, Alt.=645.508301m. Speed=6.264000m/h.</desc>
<speed>1.740000</speed>
</trkpt>
<trkpt lat="43.145126" lon="19.297483">
<ele>644.570801</ele>
<time>2012-05-03T11:42:12Z</time>
<desc>lat.=43.145126, lon.=19.297483, Alt.=644.570801m. Speed=6.660000m/h.</desc>
<speed>1.850000</speed>
</trkpt>
<trkpt lat="43.145229" lon="19.297396">
<ele>644.320801</ele>
<time>2012-05-03T11:42:17Z</time>
<desc>lat.=43.145229, lon.=19.297396, Alt.=644.320801m. Speed=8.460000m/h.</desc>
<speed>2.350000</speed>
</trkpt>
<trkpt lat="43.145325" lon="19.297266">
<ele>642.211426</ele>
<time>2012-05-03T11:42:22Z</time>
<desc>lat.=43.145325, lon.=19.297266, Alt.=642.211426m. Speed=9.612000m/h.</desc>
<speed>2.670000</speed>
</trkpt>
<trkpt lat="43.145439" lon="19.297192">
<ele>642.055176</ele>
<time>2012-05-03T11:42:27Z</time>
<desc>lat.=43.145439, lon.=19.297192, Alt.=642.055176m. Speed=8.352000m/h.</desc>
<speed>2.320000</speed>
</trkpt>
<trkpt lat="43.145535" lon="19.297085">
<ele>642.773926</ele>
<time>2012-05-03T11:42:32Z</time>
<desc>lat.=43.145535, lon.=19.297085, Alt.=642.773926m. Speed=9.036000m/h.</desc>
<speed>2.510000</speed>
</trkpt>
<trkpt lat="43.145634" lon="19.296961">
<ele>643.039551</ele>
<time>2012-05-03T11:42:37Z</time>
<desc>lat.=43.145634, lon.=19.296961, Alt.=643.039551m. Speed=8.496000m/h.</desc>
<speed>2.360000</speed>
</trkpt>
<trkpt lat="43.145710" lon="19.296843">
<ele>644.305176</ele>
<time>2012-05-03T11:42:42Z</time>
<desc>lat.=43.145710, lon.=19.296843, Alt.=644.305176m. Speed=9.684000m/h.</desc>
<speed>2.690000</speed>
</trkpt>
<trkpt lat="43.145794" lon="19.296738">
<ele>644.758301</ele>
<time>2012-05-03T11:42:47Z</time>
<desc>lat.=43.145794, lon.=19.296738, Alt.=644.758301m. Speed=10.584000m/h.</desc>
<speed>2.940000</speed>
</trkpt>
<trkpt lat="43.145985" lon="19.296591">
<ele>642.023926</ele>
<time>2012-05-03T11:42:52Z</time>
<desc>lat.=43.145985, lon.=19.296591, Alt.=642.023926m. Speed=12.816000m/h.</desc>
<speed>3.560000</speed>
</trkpt>
<trkpt lat="43.146145" lon="19.296427">
<ele>641.227051</ele>
<time>2012-05-03T11:42:57Z</time>
<desc>lat.=43.146145, lon.=19.296427, Alt.=641.227051m. Speed=12.564000m/h.</desc>
<speed>3.490000</speed>
</trkpt>
<trkpt lat="43.146320" lon="19.296274">
<ele>638.945801</ele>
<time>2012-05-03T11:43:02Z</time>
<desc>lat.=43.146320, lon.=19.296274, Alt.=638.945801m. Speed=11.988000m/h.</desc>
<speed>3.330000</speed>
</trkpt>
<trkpt lat="43.146477" lon="19.296238">
<ele>638.305176</ele>
<time>2012-05-03T11:43:07Z</time>
<desc>lat.=43.146477, lon.=19.296238, Alt.=638.305176m. Speed=12.492000m/h.</desc>
<speed>3.470000</speed>
</trkpt>
<trkpt lat="43.146603" lon="19.296276">
<ele>634.898926</ele>
<time>2012-05-03T11:43:12Z</time>
<desc>lat.=43.146603, lon.=19.296276, Alt.=634.898926m. Speed=9.864000m/h.</desc>
<speed>2.740000</speed>
</trkpt>
<trkpt lat="43.146748" lon="19.296333">
<ele>630.070801</ele>
<time>2012-05-03T11:43:17Z</time>
<desc>lat.=43.146748, lon.=19.296333, Alt.=630.070801m. Speed=11.988000m/h.</desc>
<speed>3.330000</speed>
</trkpt>
<trkpt lat="43.146881" lon="19.296455">
<ele>627.852051</ele>
<time>2012-05-03T11:43:22Z</time>
<desc>lat.=43.146881, lon.=19.296455, Alt.=627.852051m. Speed=10.296000m/h.</desc>
<speed>2.860000</speed>
</trkpt>
<trkpt lat="43.146988" lon="19.296585">
<ele>628.617676</ele>
<time>2012-05-03T11:43:27Z</time>
<desc>lat.=43.146988, lon.=19.296585, Alt.=628.617676m. Speed=8.820000m/h.</desc>
<speed>2.450000</speed>
</trkpt>
<trkpt lat="43.147110" lon="19.296682">
<ele>629.945801</ele>
<time>2012-05-03T11:43:32Z</time>
<desc>lat.=43.147110, lon.=19.296682, Alt.=629.945801m. Speed=7.920000m/h.</desc>
<speed>2.200000</speed>
</trkpt>
<trkpt lat="43.147247" lon="19.296799">
<ele>630.117676</ele>
<time>2012-05-03T11:43:37Z</time>
<desc>lat.=43.147247, lon.=19.296799, Alt.=630.117676m. Speed=9.972000m/h.</desc>
<speed>2.770000</speed>
</trkpt>
<trkpt lat="43.147385" lon="19.296930">
<ele>630.070801</ele>
<time>2012-05-03T11:43:42Z</time>
<desc>lat.=43.147385, lon.=19.296930, Alt.=630.070801m. Speed=11.304000m/h.</desc>
<speed>3.140000</speed>
</trkpt>
<trkpt lat="43.147499" lon="19.297028">
<ele>631.477051</ele>
<time>2012-05-03T11:43:47Z</time>
<desc>lat.=43.147499, lon.=19.297028, Alt.=631.477051m. Speed=9.468000m/h.</desc>
<speed>2.630000</speed>
</trkpt>
<trkpt lat="43.147587" lon="19.297071">
<ele>632.648926</ele>
<time>2012-05-03T11:43:52Z</time>
<desc>lat.=43.147587, lon.=19.297071, Alt.=632.648926m. Speed=3.780000m/h.</desc>
<speed>1.050000</speed>
</trkpt>
<trkpt lat="43.147675" lon="19.297047">
<ele>633.602051</ele>
<time>2012-05-03T11:43:57Z</time>
<desc>lat.=43.147675, lon.=19.297047, Alt.=633.602051m. Speed=3.672000m/h.</desc>
<speed>1.020000</speed>
</trkpt>
<trkpt lat="43.147797" lon="19.296997">
<ele>633.805176</ele>
<time>2012-05-03T11:44:02Z</time>
<desc>lat.=43.147797, lon.=19.296997, Alt.=633.805176m. Speed=6.264000m/h.</desc>
<speed>1.740000</speed>
</trkpt>
<trkpt lat="43.147923" lon="19.296949">
<ele>633.102051</ele>
<time>2012-05-03T11:44:07Z</time>
<desc>lat.=43.147923, lon.=19.296949, Alt.=633.102051m. Speed=6.588000m/h.</desc>
<speed>1.830000</speed>
</trkpt>
<trkpt lat="43.148075" lon="19.296919">
<ele>633.555176</ele>
<time>2012-05-03T11:44:12Z</time>
<desc>lat.=43.148075, lon.=19.296919, Alt.=633.555176m. Speed=9.072000m/h.</desc>
<speed>2.520000</speed>
</trkpt>
<trkpt lat="43.148212" lon="19.296896">
<ele>636.617676</ele>
<time>2012-05-03T11:44:17Z</time>
<desc>lat.=43.148212, lon.=19.296896, Alt.=636.617676m. Speed=9.108000m/h.</desc>
<speed>2.530000</speed>
</trkpt>
<trkpt lat="43.148346" lon="19.296919">
<ele>638.664551</ele>
<time>2012-05-03T11:44:22Z</time>
<desc>lat.=43.148346, lon.=19.296919, Alt.=638.664551m. Speed=10.836000m/h.</desc>
<speed>3.010000</speed>
</trkpt>
<trkpt lat="43.148487" lon="19.296848">
<ele>640.508301</ele>
<time>2012-05-03T11:44:27Z</time>
<desc>lat.=43.148487, lon.=19.296848, Alt.=640.508301m. Speed=11.916000m/h.</desc>
<speed>3.310000</speed>
</trkpt>
<trkpt lat="43.148621" lon="19.296751">
<ele>641.445801</ele>
<time>2012-05-03T11:44:32Z</time>
<desc>lat.=43.148621, lon.=19.296751, Alt.=641.445801m. Speed=10.080000m/h.</desc>
<speed>2.800000</speed>
</trkpt>
<trkpt lat="43.148777" lon="19.296709">
<ele>640.602051</ele>
<time>2012-05-03T11:44:37Z</time>
<desc>lat.=43.148777, lon.=19.296709, Alt.=640.602051m. Speed=11.088000m/h.</desc>
<speed>3.080000</speed>
</trkpt>
<trkpt lat="43.148952" lon="19.296682">
<ele>639.352051</ele>
<time>2012-05-03T11:44:42Z</time>
<desc>lat.=43.148952, lon.=19.296682, Alt.=639.352051m. Speed=12.276000m/h.</desc>
<speed>3.410000</speed>
</trkpt>
<trkpt lat="43.149105" lon="19.296663">
<ele>637.992676</ele>
<time>2012-05-03T11:44:47Z</time>
<desc>lat.=43.149105, lon.=19.296663, Alt.=637.992676m. Speed=11.952000m/h.</desc>
<speed>3.320000</speed>
</trkpt>
<trkpt lat="43.149281" lon="19.296604">
<ele>638.133301</ele>
<time>2012-05-03T11:44:52Z</time>
<desc>lat.=43.149281, lon.=19.296604, Alt.=638.133301m. Speed=11.700000m/h.</desc>
<speed>3.250000</speed>
</trkpt>
<trkpt lat="43.149456" lon="19.296518">
<ele>637.977051</ele>
<time>2012-05-03T11:44:57Z</time>
<desc>lat.=43.149456, lon.=19.296518, Alt.=637.977051m. Speed=11.664000m/h.</desc>
<speed>3.240000</speed>
</trkpt>
<trkpt lat="43.149612" lon="19.296474">
<ele>637.977051</ele>
<time>2012-05-03T11:45:02Z</time>
<desc>lat.=43.149612, lon.=19.296474, Alt.=637.977051m. Speed=10.440000m/h.</desc>
<speed>2.900000</speed>
</trkpt>
<trkpt lat="43.149742" lon="19.296400">
<ele>637.992676</ele>
<time>2012-05-03T11:45:07Z</time>
<desc>lat.=43.149742, lon.=19.296400, Alt.=637.992676m. Speed=12.636000m/h.</desc>
<speed>3.510000</speed>
</trkpt>
<trkpt lat="43.149891" lon="19.296265">
<ele>638.492676</ele>
<time>2012-05-03T11:45:12Z</time>
<desc>lat.=43.149891, lon.=19.296265, Alt.=638.492676m. Speed=12.348000m/h.</desc>
<speed>3.430000</speed>
</trkpt>
<trkpt lat="43.150013" lon="19.296120">
<ele>641.039551</ele>
<time>2012-05-03T11:45:17Z</time>
<desc>lat.=43.150013, lon.=19.296120, Alt.=641.039551m. Speed=12.492000m/h.</desc>
<speed>3.470000</speed>
</trkpt>
<trkpt lat="43.150089" lon="19.295914">
<ele>641.680176</ele>
<time>2012-05-03T11:45:22Z</time>
<desc>lat.=43.150089, lon.=19.295914, Alt.=641.680176m. Speed=11.880000m/h.</desc>
<speed>3.300000</speed>
</trkpt>
<trkpt lat="43.150150" lon="19.295717">
<ele>642.336426</ele>
<time>2012-05-03T11:45:27Z</time>
<desc>lat.=43.150150, lon.=19.295717, Alt.=642.336426m. Speed=11.736000m/h.</desc>
<speed>3.260000</speed>
</trkpt>
<trkpt lat="43.150219" lon="19.295525">
<ele>642.555176</ele>
<time>2012-05-03T11:45:32Z</time>
<desc>lat.=43.150219, lon.=19.295525, Alt.=642.555176m. Speed=11.376000m/h.</desc>
<speed>3.160000</speed>
</trkpt>
<trkpt lat="43.150330" lon="19.295439">
<ele>642.102051</ele>
<time>2012-05-03T11:45:37Z</time>
<desc>lat.=43.150330, lon.=19.295439, Alt.=642.102051m. Speed=12.636000m/h.</desc>
<speed>3.510000</speed>
</trkpt>
<trkpt lat="43.150505" lon="19.295290">
<ele>642.258301</ele>
<time>2012-05-03T11:45:42Z</time>
<desc>lat.=43.150505, lon.=19.295290, Alt.=642.258301m. Speed=16.848000m/h.</desc>
<speed>4.680000</speed>
</trkpt>
<trkpt lat="43.150684" lon="19.295095">
<ele>642.898926</ele>
<time>2012-05-03T11:45:47Z</time>
<desc>lat.=43.150684, lon.=19.295095, Alt.=642.898926m. Speed=14.544000m/h.</desc>
<speed>4.040000</speed>
</trkpt>
<trkpt lat="43.150749" lon="19.294872">
<ele>643.633301</ele>
<time>2012-05-03T11:45:52Z</time>
<desc>lat.=43.150749, lon.=19.294872, Alt.=643.633301m. Speed=12.312000m/h.</desc>
<speed>3.420000</speed>
</trkpt>
<trkpt lat="43.150822" lon="19.294621">
<ele>644.820801</ele>
<time>2012-05-03T11:45:57Z</time>
<desc>lat.=43.150822, lon.=19.294621, Alt.=644.820801m. Speed=10.944000m/h.</desc>
<speed>3.040000</speed>
</trkpt>
<trkpt lat="43.150948" lon="19.294489">
<ele>645.273926</ele>
<time>2012-05-03T11:46:02Z</time>
<desc>lat.=43.150948, lon.=19.294489, Alt.=645.273926m. Speed=12.096000m/h.</desc>
<speed>3.360000</speed>
</trkpt>
<trkpt lat="43.151043" lon="19.294342">
<ele>646.180176</ele>
<time>2012-05-03T11:46:07Z</time>
<desc>lat.=43.151043, lon.=19.294342, Alt.=646.180176m. Speed=10.044000m/h.</desc>
<speed>2.790000</speed>
</trkpt>
<trkpt lat="43.151169" lon="19.294218">
<ele>647.117676</ele>
<time>2012-05-03T11:46:12Z</time>
<desc>lat.=43.151169, lon.=19.294218, Alt.=647.117676m. Speed=12.672000m/h.</desc>
<speed>3.520000</speed>
</trkpt>
<trkpt lat="43.151302" lon="19.294123">
<ele>648.180176</ele>
<time>2012-05-03T11:46:17Z</time>
<desc>lat.=43.151302, lon.=19.294123, Alt.=648.180176m. Speed=10.908000m/h.</desc>
<speed>3.030000</speed>
</trkpt>
<trkpt lat="43.151432" lon="19.294044">
<ele>648.992676</ele>
<time>2012-05-03T11:46:22Z</time>
<desc>lat.=43.151432, lon.=19.294044, Alt.=648.992676m. Speed=11.304000m/h.</desc>
<speed>3.140000</speed>
</trkpt>
<trkpt lat="43.151573" lon="19.293964">
<ele>650.086426</ele>
<time>2012-05-03T11:46:27Z</time>
<desc>lat.=43.151573, lon.=19.293964, Alt.=650.086426m. Speed=12.096000m/h.</desc>
<speed>3.360000</speed>
</trkpt>
<trkpt lat="43.151722" lon="19.293840">
<ele>650.617676</ele>
<time>2012-05-03T11:46:32Z</time>
<desc>lat.=43.151722, lon.=19.293840, Alt.=650.617676m. Speed=12.240000m/h.</desc>
<speed>3.400000</speed>
</trkpt>
<trkpt lat="43.151840" lon="19.293741">
<ele>652.039551</ele>
<time>2012-05-03T11:46:37Z</time>
<desc>lat.=43.151840, lon.=19.293741, Alt.=652.039551m. Speed=10.152000m/h.</desc>
<speed>2.820000</speed>
</trkpt>
<trkpt lat="43.151947" lon="19.293655">
<ele>653.180176</ele>
<time>2012-05-03T11:46:42Z</time>
<desc>lat.=43.151947, lon.=19.293655, Alt.=653.180176m. Speed=10.368000m/h.</desc>
<speed>2.880000</speed>
</trkpt>
<trkpt lat="43.152077" lon="19.293537">
<ele>654.430176</ele>
<time>2012-05-03T11:46:47Z</time>
<desc>lat.=43.152077, lon.=19.293537, Alt.=654.430176m. Speed=10.620000m/h.</desc>
<speed>2.950000</speed>
</trkpt>
<trkpt lat="43.152203" lon="19.293484">
<ele>654.961426</ele>
<time>2012-05-03T11:46:52Z</time>
<desc>lat.=43.152203, lon.=19.293484, Alt.=654.961426m. Speed=9.540000m/h.</desc>
<speed>2.650000</speed>
</trkpt>
<trkpt lat="43.152279" lon="19.293316">
<ele>656.352051</ele>
<time>2012-05-03T11:46:57Z</time>
<desc>lat.=43.152279, lon.=19.293316, Alt.=656.352051m. Speed=12.960000m/h.</desc>
<speed>3.600000</speed>
</trkpt>
<trkpt lat="43.152431" lon="19.293127">
<ele>658.242676</ele>
<time>2012-05-03T11:47:02Z</time>
<desc>lat.=43.152431, lon.=19.293127, Alt.=658.242676m. Speed=15.552000m/h.</desc>
<speed>4.320000</speed>
</trkpt>
<trkpt lat="43.152573" lon="19.292938">
<ele>660.398926</ele>
<time>2012-05-03T11:47:07Z</time>
<desc>lat.=43.152573, lon.=19.292938, Alt.=660.398926m. Speed=14.544000m/h.</desc>
<speed>4.040000</speed>
</trkpt>
<trkpt lat="43.152725" lon="19.292738">
<ele>661.898926</ele>
<time>2012-05-03T11:47:12Z</time>
<desc>lat.=43.152725, lon.=19.292738, Alt.=661.898926m. Speed=14.328000m/h.</desc>
<speed>3.980000</speed>
</trkpt>
<trkpt lat="43.152988" lon="19.292738">
<ele>660.055176</ele>
<time>2012-05-03T11:47:17Z</time>
<desc>lat.=43.152988, lon.=19.292738, Alt.=660.055176m. Speed=12.204000m/h.</desc>
<speed>3.390000</speed>
</trkpt>
<trkpt lat="43.153130" lon="19.292654">
<ele>660.445801</ele>
<time>2012-05-03T11:47:22Z</time>
<desc>lat.=43.153130, lon.=19.292654, Alt.=660.445801m. Speed=13.572000m/h.</desc>
<speed>3.770000</speed>
</trkpt>
<trkpt lat="43.153328" lon="19.292595">
<ele>660.367676</ele>
<time>2012-05-03T11:47:27Z</time>
<desc>lat.=43.153328, lon.=19.292595, Alt.=660.367676m. Speed=11.916000m/h.</desc>
<speed>3.310000</speed>
</trkpt>
<trkpt lat="43.153465" lon="19.292398">
<ele>661.898926</ele>
<time>2012-05-03T11:47:32Z</time>
<desc>lat.=43.153465, lon.=19.292398, Alt.=661.898926m. Speed=15.300000m/h.</desc>
<speed>4.250000</speed>
</trkpt>
<trkpt lat="43.153606" lon="19.292274">
<ele>663.211426</ele>
<time>2012-05-03T11:47:37Z</time>
<desc>lat.=43.153606, lon.=19.292274, Alt.=663.211426m. Speed=10.944000m/h.</desc>
<speed>3.040000</speed>
</trkpt>
<trkpt lat="43.153767" lon="19.292118">
<ele>663.289551</ele>
<time>2012-05-03T11:47:42Z</time>
<desc>lat.=43.153767, lon.=19.292118, Alt.=663.289551m. Speed=14.652000m/h.</desc>
<speed>4.070000</speed>
</trkpt>
<trkpt lat="43.153931" lon="19.291983">
<ele>661.977051</ele>
<time>2012-05-03T11:47:47Z</time>
<desc>lat.=43.153931, lon.=19.291983, Alt.=661.977051m. Speed=13.716000m/h.</desc>
<speed>3.810000</speed>
</trkpt>
<trkpt lat="43.154076" lon="19.291872">
<ele>660.992676</ele>
<time>2012-05-03T11:47:52Z</time>
<desc>lat.=43.154076, lon.=19.291872, Alt.=660.992676m. Speed=11.412000m/h.</desc>
<speed>3.170000</speed>
</trkpt>
<trkpt lat="43.154213" lon="19.291773">
<ele>661.523926</ele>
<time>2012-05-03T11:47:57Z</time>
<desc>lat.=43.154213, lon.=19.291773, Alt.=661.523926m. Speed=10.800000m/h.</desc>
<speed>3.000000</speed>
</trkpt>
<trkpt lat="43.154320" lon="19.291700">
<ele>660.789551</ele>
<time>2012-05-03T11:48:02Z</time>
<desc>lat.=43.154320, lon.=19.291700, Alt.=660.789551m. Speed=11.916000m/h.</desc>
<speed>3.310000</speed>
</trkpt>
<trkpt lat="43.154461" lon="19.291679">
<ele>661.305176</ele>
<time>2012-05-03T11:48:07Z</time>
<desc>lat.=43.154461, lon.=19.291679, Alt.=661.305176m. Speed=13.176000m/h.</desc>
<speed>3.660000</speed>
</trkpt>
<trkpt lat="43.154594" lon="19.291613">
<ele>661.430176</ele>
<time>2012-05-03T11:48:12Z</time>
<desc>lat.=43.154594, lon.=19.291613, Alt.=661.430176m. Speed=10.836000m/h.</desc>
<speed>3.010000</speed>
</trkpt>
<trkpt lat="43.154774" lon="19.291584">
<ele>659.023926</ele>
<time>2012-05-03T11:48:17Z</time>
<desc>lat.=43.154774, lon.=19.291584, Alt.=659.023926m. Speed=13.572000m/h.</desc>
<speed>3.770000</speed>
</trkpt>
<trkpt lat="43.154934" lon="19.291485">
<ele>658.992676</ele>
<time>2012-05-03T11:48:22Z</time>
<desc>lat.=43.154934, lon.=19.291485, Alt.=658.992676m. Speed=10.548000m/h.</desc>
<speed>2.930000</speed>
</trkpt>
<trkpt lat="43.155106" lon="19.291422">
<ele>657.633301</ele>
<time>2012-05-03T11:48:27Z</time>
<desc>lat.=43.155106, lon.=19.291422, Alt.=657.633301m. Speed=10.116000m/h.</desc>
<speed>2.810000</speed>
</trkpt>
<trkpt lat="43.155304" lon="19.291351">
<ele>655.305176</ele>
<time>2012-05-03T11:48:32Z</time>
<desc>lat.=43.155304, lon.=19.291351, Alt.=655.305176m. Speed=13.608000m/h.</desc>
<speed>3.780000</speed>
</trkpt>
<trkpt lat="43.155502" lon="19.291258">
<ele>654.523926</ele>
<time>2012-05-03T11:48:37Z</time>
<desc>lat.=43.155502, lon.=19.291258, Alt.=654.523926m. Speed=16.452000m/h.</desc>
<speed>4.570000</speed>
</trkpt>
<trkpt lat="43.155693" lon="19.291136">
<ele>654.367676</ele>
<time>2012-05-03T11:48:42Z</time>
<desc>lat.=43.155693, lon.=19.291136, Alt.=654.367676m. Speed=16.667999m/h.</desc>
<speed>4.630000</speed>
</trkpt>
<trkpt lat="43.155823" lon="19.290947">
<ele>655.055176</ele>
<time>2012-05-03T11:48:47Z</time>
<desc>lat.=43.155823, lon.=19.290947, Alt.=655.055176m. Speed=13.968000m/h.</desc>
<speed>3.880000</speed>
</trkpt>
<trkpt lat="43.155899" lon="19.290745">
<ele>654.711426</ele>
<time>2012-05-03T11:48:52Z</time>
<desc>lat.=43.155899, lon.=19.290745, Alt.=654.711426m. Speed=14.112000m/h.</desc>
<speed>3.920000</speed>
</trkpt>
<trkpt lat="43.155972" lon="19.290497">
<ele>654.211426</ele>
<time>2012-05-03T11:48:57Z</time>
<desc>lat.=43.155972, lon.=19.290497, Alt.=654.211426m. Speed=17.927999m/h.</desc>
<speed>4.980000</speed>
</trkpt>
<trkpt lat="43.156010" lon="19.290260">
<ele>653.836426</ele>
<time>2012-05-03T11:49:02Z</time>
<desc>lat.=43.156010, lon.=19.290260, Alt.=653.836426m. Speed=14.256000m/h.</desc>
<speed>3.960000</speed>
</trkpt>
<trkpt lat="43.156048" lon="19.290049">
<ele>653.992676</ele>
<time>2012-05-03T11:49:07Z</time>
<desc>lat.=43.156048, lon.=19.290049, Alt.=653.992676m. Speed=9.324000m/h.</desc>
<speed>2.590000</speed>
</trkpt>
<trkpt lat="43.156071" lon="19.289833">
<ele>653.633301</ele>
<time>2012-05-03T11:49:12Z</time>
<desc>lat.=43.156071, lon.=19.289833, Alt.=653.633301m. Speed=12.240000m/h.</desc>
<speed>3.400000</speed>
</trkpt>
<trkpt lat="43.156136" lon="19.289618">
<ele>652.789551</ele>
<time>2012-05-03T11:49:17Z</time>
<desc>lat.=43.156136, lon.=19.289618, Alt.=652.789551m. Speed=11.052000m/h.</desc>
<speed>3.070000</speed>
</trkpt>
<trkpt lat="43.156132" lon="19.289354">
<ele>653.023926</ele>
<time>2012-05-03T11:49:22Z</time>
<desc>lat.=43.156132, lon.=19.289354, Alt.=653.023926m. Speed=13.932000m/h.</desc>
<speed>3.870000</speed>
</trkpt>
<trkpt lat="43.156067" lon="19.289066">
<ele>652.961426</ele>
<time>2012-05-03T11:49:27Z</time>
<desc>lat.=43.156067, lon.=19.289066, Alt.=652.961426m. Speed=13.572000m/h.</desc>
<speed>3.770000</speed>
</trkpt>
<trkpt lat="43.155983" lon="19.288839">
<ele>653.805176</ele>
<time>2012-05-03T11:49:32Z</time>
<desc>lat.=43.155983, lon.=19.288839, Alt.=653.805176m. Speed=13.176000m/h.</desc>
<speed>3.660000</speed>
</trkpt>
<trkpt lat="43.155899" lon="19.288601">
<ele>654.617676</ele>
<time>2012-05-03T11:49:37Z</time>
<desc>lat.=43.155899, lon.=19.288601, Alt.=654.617676m. Speed=12.996000m/h.</desc>
<speed>3.610000</speed>
</trkpt>
<trkpt lat="43.155910" lon="19.288355">
<ele>654.633301</ele>
<time>2012-05-03T11:49:42Z</time>
<desc>lat.=43.155910, lon.=19.288355, Alt.=654.633301m. Speed=13.500000m/h.</desc>
<speed>3.750000</speed>
</trkpt>
<trkpt lat="43.155853" lon="19.288168">
<ele>655.680176</ele>
<time>2012-05-03T11:49:47Z</time>
<desc>lat.=43.155853, lon.=19.288168, Alt.=655.680176m. Speed=7.632000m/h.</desc>
<speed>2.120000</speed>
</trkpt>
<trkpt lat="43.155766" lon="19.287996">
<ele>657.008301</ele>
<time>2012-05-03T11:49:52Z</time>
<desc>lat.=43.155766, lon.=19.287996, Alt.=657.008301m. Speed=10.440000m/h.</desc>
<speed>2.900000</speed>
</trkpt>
<trkpt lat="43.155739" lon="19.287807">
<ele>658.336426</ele>
<time>2012-05-03T11:49:57Z</time>
<desc>lat.=43.155739, lon.=19.287807, Alt.=658.336426m. Speed=7.956000m/h.</desc>
<speed>2.210000</speed>
</trkpt>
<trkpt lat="43.155716" lon="19.287636">
<ele>658.836426</ele>
<time>2012-05-03T11:50:02Z</time>
<desc>lat.=43.155716, lon.=19.287636, Alt.=658.836426m. Speed=6.840000m/h.</desc>
<speed>1.900000</speed>
</trkpt>
<trkpt lat="43.155701" lon="19.287449">
<ele>659.305176</ele>
<time>2012-05-03T11:50:07Z</time>
<desc>lat.=43.155701, lon.=19.287449, Alt.=659.305176m. Speed=9.036000m/h.</desc>
<speed>2.510000</speed>
</trkpt>
<trkpt lat="43.155659" lon="19.287264">
<ele>658.008301</ele>
<time>2012-05-03T11:50:12Z</time>
<desc>lat.=43.155659, lon.=19.287264, Alt.=658.008301m. Speed=8.352000m/h.</desc>
<speed>2.320000</speed>
</trkpt>
<trkpt lat="43.155605" lon="19.287031">
<ele>656.367676</ele>
<time>2012-05-03T11:50:17Z</time>
<desc>lat.=43.155605, lon.=19.287031, Alt.=656.367676m. Speed=10.008000m/h.</desc>
<speed>2.780000</speed>
</trkpt>
<trkpt lat="43.155602" lon="19.286886">
<ele>656.664551</ele>
<time>2012-05-03T11:50:22Z</time>
<desc>lat.=43.155602, lon.=19.286886, Alt.=656.664551m. Speed=8.136000m/h.</desc>
<speed>2.260000</speed>
</trkpt>
<trkpt lat="43.155567" lon="19.286695">
<ele>654.383301</ele>
<time>2012-05-03T11:50:27Z</time>
<desc>lat.=43.155567, lon.=19.286695, Alt.=654.383301m. Speed=7.848000m/h.</desc>
<speed>2.180000</speed>
</trkpt>
<trkpt lat="43.155495" lon="19.286503">
<ele>651.227051</ele>
<time>2012-05-03T11:50:32Z</time>
<desc>lat.=43.155495, lon.=19.286503, Alt.=651.227051m. Speed=7.992000m/h.</desc>
<speed>2.220000</speed>
</trkpt>
<trkpt lat="43.155476" lon="19.286350">
<ele>650.617676</ele>
<time>2012-05-03T11:50:37Z</time>
<desc>lat.=43.155476, lon.=19.286350, Alt.=650.617676m. Speed=6.552000m/h.</desc>
<speed>1.820000</speed>
</trkpt>
<trkpt lat="43.155441" lon="19.286156">
<ele>648.727051</ele>
<time>2012-05-03T11:50:42Z</time>
<desc>lat.=43.155441, lon.=19.286156, Alt.=648.727051m. Speed=7.308000m/h.</desc>
<speed>2.030000</speed>
</trkpt>
<trkpt lat="43.155399" lon="19.285969">
<ele>645.852051</ele>
<time>2012-05-03T11:50:47Z</time>
<desc>lat.=43.155399, lon.=19.285969, Alt.=645.852051m. Speed=5.328000m/h.</desc>
<speed>1.480000</speed>
</trkpt>
<trkpt lat="43.155392" lon="19.285805">
<ele>645.695801</ele>
<time>2012-05-03T11:50:52Z</time>
<desc>lat.=43.155392, lon.=19.285805, Alt.=645.695801m. Speed=7.236000m/h.</desc>
<speed>2.010000</speed>
</trkpt>
<trkpt lat="43.155384" lon="19.285648">
<ele>645.914551</ele>
<time>2012-05-03T11:50:57Z</time>
<desc>lat.=43.155384, lon.=19.285648, Alt.=645.914551m. Speed=9.576000m/h.</desc>
<speed>2.660000</speed>
</trkpt>
<trkpt lat="43.155449" lon="19.285442">
<ele>645.273926</ele>
<time>2012-05-03T11:51:02Z</time>
<desc>lat.=43.155449, lon.=19.285442, Alt.=645.273926m. Speed=10.908000m/h.</desc>
<speed>3.030000</speed>
</trkpt>
<trkpt lat="43.155540" lon="19.285238">
<ele>645.414551</ele>
<time>2012-05-03T11:51:07Z</time>
<desc>lat.=43.155540, lon.=19.285238, Alt.=645.414551m. Speed=13.680000m/h.</desc>
<speed>3.800000</speed>
</trkpt>
<trkpt lat="43.155663" lon="19.285049">
<ele>644.805176</ele>
<time>2012-05-03T11:51:12Z</time>
<desc>lat.=43.155663, lon.=19.285049, Alt.=644.805176m. Speed=16.775999m/h.</desc>
<speed>4.660000</speed>
</trkpt>
<trkpt lat="43.155804" lon="19.284809">
<ele>641.617676</ele>
<time>2012-05-03T11:51:17Z</time>
<desc>lat.=43.155804, lon.=19.284809, Alt.=641.617676m. Speed=15.624000m/h.</desc>
<speed>4.340000</speed>
</trkpt>
<trkpt lat="43.155926" lon="19.284664">
<ele>641.055176</ele>
<time>2012-05-03T11:51:22Z</time>
<desc>lat.=43.155926, lon.=19.284664, Alt.=641.055176m. Speed=11.448000m/h.</desc>
<speed>3.180000</speed>
</trkpt>
<trkpt lat="43.155975" lon="19.284527">
<ele>639.664551</ele>
<time>2012-05-03T11:51:27Z</time>
<desc>lat.=43.155975, lon.=19.284527, Alt.=639.664551m. Speed=9.468000m/h.</desc>
<speed>2.630000</speed>
</trkpt>
<trkpt lat="43.156082" lon="19.284386">
<ele>638.305176</ele>
<time>2012-05-03T11:51:32Z</time>
<desc>lat.=43.156082, lon.=19.284386, Alt.=638.305176m. Speed=12.744000m/h.</desc>
<speed>3.540000</speed>
</trkpt>
<trkpt lat="43.156208" lon="19.284254">
<ele>637.195801</ele>
<time>2012-05-03T11:51:37Z</time>
<desc>lat.=43.156208, lon.=19.284254, Alt.=637.195801m. Speed=8.532000m/h.</desc>
<speed>2.370000</speed>
</trkpt>
<trkpt lat="43.156250" lon="19.284109">
<ele>636.977051</ele>
<time>2012-05-03T11:51:42Z</time>
<desc>lat.=43.156250, lon.=19.284109, Alt.=636.977051m. Speed=6.372000m/h.</desc>
<speed>1.770000</speed>
</trkpt>
<trkpt lat="43.156288" lon="19.284008">
<ele>635.602051</ele>
<time>2012-05-03T11:51:47Z</time>
<desc>lat.=43.156288, lon.=19.284008, Alt.=635.602051m. Speed=7.380000m/h.</desc>
<speed>2.050000</speed>
</trkpt>
<trkpt lat="43.156349" lon="19.283865">
<ele>634.898926</ele>
<time>2012-05-03T11:51:52Z</time>
<desc>lat.=43.156349, lon.=19.283865, Alt.=634.898926m. Speed=8.028000m/h.</desc>
<speed>2.230000</speed>
</trkpt>
<trkpt lat="43.156418" lon="19.283701">
<ele>634.961426</ele>
<time>2012-05-03T11:51:57Z</time>
<desc>lat.=43.156418, lon.=19.283701, Alt.=634.961426m. Speed=9.828000m/h.</desc>
<speed>2.730000</speed>
</trkpt>
<trkpt lat="43.156448" lon="19.283556">
<ele>635.227051</ele>
<time>2012-05-03T11:52:02Z</time>
<desc>lat.=43.156448, lon.=19.283556, Alt.=635.227051m. Speed=6.588000m/h.</desc>
<speed>1.830000</speed>
</trkpt>
<trkpt lat="43.156498" lon="19.283384">
<ele>636.023926</ele>
<time>2012-05-03T11:52:07Z</time>
<desc>lat.=43.156498, lon.=19.283384, Alt.=636.023926m. Speed=7.164000m/h.</desc>
<speed>1.990000</speed>
</trkpt>
<trkpt lat="43.156513" lon="19.283251">
<ele>637.070801</ele>
<time>2012-05-03T11:52:12Z</time>
<desc>lat.=43.156513, lon.=19.283251, Alt.=637.070801m. Speed=8.244000m/h.</desc>
<speed>2.290000</speed>
</trkpt>
<trkpt lat="43.156570" lon="19.283079">
<ele>637.289551</ele>
<time>2012-05-03T11:52:17Z</time>
<desc>lat.=43.156570, lon.=19.283079, Alt.=637.289551m. Speed=7.704000m/h.</desc>
<speed>2.140000</speed>
</trkpt>
<trkpt lat="43.156631" lon="19.282900">
<ele>637.727051</ele>
<time>2012-05-03T11:52:22Z</time>
<desc>lat.=43.156631, lon.=19.282900, Alt.=637.727051m. Speed=8.424000m/h.</desc>
<speed>2.340000</speed>
</trkpt>
<trkpt lat="43.156677" lon="19.282730">
<ele>638.539551</ele>
<time>2012-05-03T11:52:27Z</time>
<desc>lat.=43.156677, lon.=19.282730, Alt.=638.539551m. Speed=8.928000m/h.</desc>
<speed>2.480000</speed>
</trkpt>
<trkpt lat="43.156761" lon="19.282583">
<ele>639.836426</ele>
<time>2012-05-03T11:52:32Z</time>
<desc>lat.=43.156761, lon.=19.282583, Alt.=639.836426m. Speed=8.028000m/h.</desc>
<speed>2.230000</speed>
</trkpt>
<trkpt lat="43.156822" lon="19.282444">
<ele>640.773926</ele>
<time>2012-05-03T11:52:37Z</time>
<desc>lat.=43.156822, lon.=19.282444, Alt.=640.773926m. Speed=5.868000m/h.</desc>
<speed>1.630000</speed>
</trkpt>
<trkpt lat="43.156879" lon="19.282362">
<ele>642.133301</ele>
<time>2012-05-03T11:52:42Z</time>
<desc>lat.=43.156879, lon.=19.282362, Alt.=642.133301m. Speed=6.228000m/h.</desc>
<speed>1.730000</speed>
</trkpt>
<trkpt lat="43.156960" lon="19.282169">
<ele>643.398926</ele>
<time>2012-05-03T11:52:47Z</time>
<desc>lat.=43.156960, lon.=19.282169, Alt.=643.398926m. Speed=9.072000m/h.</desc>
<speed>2.520000</speed>
</trkpt>
<trkpt lat="43.157078" lon="19.282047">
<ele>644.414551</ele>
<time>2012-05-03T11:52:52Z</time>
<desc>lat.=43.157078, lon.=19.282047, Alt.=644.414551m. Speed=10.980000m/h.</desc>
<speed>3.050000</speed>
</trkpt>
<trkpt lat="43.157188" lon="19.281937">
<ele>645.508301</ele>
<time>2012-05-03T11:52:57Z</time>
<desc>lat.=43.157188, lon.=19.281937, Alt.=645.508301m. Speed=10.296000m/h.</desc>
<speed>2.860000</speed>
</trkpt>
<trkpt lat="43.157238" lon="19.281776">
<ele>647.805176</ele>
<time>2012-05-03T11:53:02Z</time>
<desc>lat.=43.157238, lon.=19.281776, Alt.=647.805176m. Speed=10.548000m/h.</desc>
<speed>2.930000</speed>
</trkpt>
<trkpt lat="43.157265" lon="19.281622">
<ele>649.961426</ele>
<time>2012-05-03T11:53:07Z</time>
<desc>lat.=43.157265, lon.=19.281622, Alt.=649.961426m. Speed=8.424000m/h.</desc>
<speed>2.340000</speed>
</trkpt>
<trkpt lat="43.157272" lon="19.281504">
<ele>651.742676</ele>
<time>2012-05-03T11:53:12Z</time>
<desc>lat.=43.157272, lon.=19.281504, Alt.=651.742676m. Speed=5.328000m/h.</desc>
<speed>1.480000</speed>
</trkpt>
<trkpt lat="43.157299" lon="19.281435">
<ele>653.742676</ele>
<time>2012-05-03T11:53:17Z</time>
<desc>lat.=43.157299, lon.=19.281435, Alt.=653.742676m. Speed=6.732000m/h.</desc>
<speed>1.870000</speed>
</trkpt>
<trkpt lat="43.157345" lon="19.281282">
<ele>655.664551</ele>
<time>2012-05-03T11:53:22Z</time>
<desc>lat.=43.157345, lon.=19.281282, Alt.=655.664551m. Speed=9.828000m/h.</desc>
<speed>2.730000</speed>
</trkpt>
<trkpt lat="43.157375" lon="19.281088">
<ele>657.508301</ele>
<time>2012-05-03T11:53:27Z</time>
<desc>lat.=43.157375, lon.=19.281088, Alt.=657.508301m. Speed=7.380000m/h.</desc>
<speed>2.050000</speed>
</trkpt>
<trkpt lat="43.157425" lon="19.280968">
<ele>660.164551</ele>
<time>2012-05-03T11:53:32Z</time>
<desc>lat.=43.157425, lon.=19.280968, Alt.=660.164551m. Speed=6.300000m/h.</desc>
<speed>1.750000</speed>
</trkpt>
<trkpt lat="43.157467" lon="19.280870">
<ele>663.164551</ele>
<time>2012-05-03T11:53:37Z</time>
<desc>lat.=43.157467, lon.=19.280870, Alt.=663.164551m. Speed=5.868000m/h.</desc>
<speed>1.630000</speed>
</trkpt>
<trkpt lat="43.157524" lon="19.280704">
<ele>665.805176</ele>
<time>2012-05-03T11:53:42Z</time>
<desc>lat.=43.157524, lon.=19.280704, Alt.=665.805176m. Speed=8.244000m/h.</desc>
<speed>2.290000</speed>
</trkpt>
<trkpt lat="43.157608" lon="19.280502">
<ele>667.602051</ele>
<time>2012-05-03T11:53:47Z</time>
<desc>lat.=43.157608, lon.=19.280502, Alt.=667.602051m. Speed=10.332000m/h.</desc>
<speed>2.870000</speed>
</trkpt>
<trkpt lat="43.157681" lon="19.280312">
<ele>668.383301</ele>
<time>2012-05-03T11:53:52Z</time>
<desc>lat.=43.157681, lon.=19.280312, Alt.=668.383301m. Speed=10.980000m/h.</desc>
<speed>3.050000</speed>
</trkpt>
<trkpt lat="43.157692" lon="19.280022">
<ele>662.898926</ele>
<time>2012-05-03T11:53:57Z</time>
<desc>lat.=43.157692, lon.=19.280022, Alt.=662.898926m. Speed=12.240000m/h.</desc>
<speed>3.400000</speed>
</trkpt>
<trkpt lat="43.157761" lon="19.279802">
<ele>664.367676</ele>
<time>2012-05-03T11:54:02Z</time>
<desc>lat.=43.157761, lon.=19.279802, Alt.=664.367676m. Speed=12.204000m/h.</desc>
<speed>3.390000</speed>
</trkpt>
<trkpt lat="43.157776" lon="19.279606">
<ele>664.102051</ele>
<time>2012-05-03T11:54:07Z</time>
<desc>lat.=43.157776, lon.=19.279606, Alt.=664.102051m. Speed=10.080000m/h.</desc>
<speed>2.800000</speed>
</trkpt>
<trkpt lat="43.157757" lon="19.279406">
<ele>661.977051</ele>
<time>2012-05-03T11:54:12Z</time>
<desc>lat.=43.157757, lon.=19.279406, Alt.=661.977051m. Speed=8.496000m/h.</desc>
<speed>2.360000</speed>
</trkpt>
<trkpt lat="43.157761" lon="19.279119">
<ele>657.648926</ele>
<time>2012-05-03T11:54:17Z</time>
<desc>lat.=43.157761, lon.=19.279119, Alt.=657.648926m. Speed=9.108000m/h.</desc>
<speed>2.530000</speed>
</trkpt>
<trkpt lat="43.157745" lon="19.278940">
<ele>657.023926</ele>
<time>2012-05-03T11:54:22Z</time>
<desc>lat.=43.157745, lon.=19.278940, Alt.=657.023926m. Speed=9.324000m/h.</desc>
<speed>2.590000</speed>
</trkpt>
<trkpt lat="43.157726" lon="19.278746">
<ele>654.789551</ele>
<time>2012-05-03T11:54:27Z</time>
<desc>lat.=43.157726, lon.=19.278746, Alt.=654.789551m. Speed=7.596000m/h.</desc>
<speed>2.110000</speed>
</trkpt>
<trkpt lat="43.157745" lon="19.278580">
<ele>654.148926</ele>
<time>2012-05-03T11:54:32Z</time>
<desc>lat.=43.157745, lon.=19.278580, Alt.=654.148926m. Speed=8.388000m/h.</desc>
<speed>2.330000</speed>
</trkpt>
<trkpt lat="43.157745" lon="19.278391">
<ele>652.820801</ele>
<time>2012-05-03T11:54:37Z</time>
<desc>lat.=43.157745, lon.=19.278391, Alt.=652.820801m. Speed=6.516000m/h.</desc>
<speed>1.810000</speed>
</trkpt>
<trkpt lat="43.157745" lon="19.278194">
<ele>650.273926</ele>
<time>2012-05-03T11:54:42Z</time>
<desc>lat.=43.157745, lon.=19.278194, Alt.=650.273926m. Speed=6.012000m/h.</desc>
<speed>1.670000</speed>
</trkpt>
<trkpt lat="43.157780" lon="19.278027">
<ele>648.039551</ele>
<time>2012-05-03T11:54:47Z</time>
<desc>lat.=43.157780, lon.=19.278027, Alt.=648.039551m. Speed=7.596000m/h.</desc>
<speed>2.110000</speed>
</trkpt>
<trkpt lat="43.157799" lon="19.277830">
<ele>646.805176</ele>
<time>2012-05-03T11:54:52Z</time>
<desc>lat.=43.157799, lon.=19.277830, Alt.=646.805176m. Speed=8.136000m/h.</desc>
<speed>2.260000</speed>
</trkpt>
<trkpt lat="43.157803" lon="19.277647">
<ele>646.898926</ele>
<time>2012-05-03T11:54:57Z</time>
<desc>lat.=43.157803, lon.=19.277647, Alt.=646.898926m. Speed=6.804000m/h.</desc>
<speed>1.890000</speed>
</trkpt>
<trkpt lat="43.157784" lon="19.277399">
<ele>640.555176</ele>
<time>2012-05-03T11:55:02Z</time>
<desc>lat.=43.157784, lon.=19.277399, Alt.=640.555176m. Speed=10.584000m/h.</desc>
<speed>2.940000</speed>
</trkpt>
<trkpt lat="43.157814" lon="19.277185">
<ele>639.727051</ele>
<time>2012-05-03T11:55:07Z</time>
<desc>lat.=43.157814, lon.=19.277185, Alt.=639.727051m. Speed=9.216000m/h.</desc>
<speed>2.560000</speed>
</trkpt>
<trkpt lat="43.157860" lon="19.276989">
<ele>633.570801</ele>
<time>2012-05-03T11:55:12Z</time>
<desc>lat.=43.157860, lon.=19.276989, Alt.=633.570801m. Speed=8.856000m/h.</desc>
<speed>2.460000</speed>
</trkpt>
<trkpt lat="43.157932" lon="19.276793">
<ele>631.477051</ele>
<time>2012-05-03T11:55:17Z</time>
<desc>lat.=43.157932, lon.=19.276793, Alt.=631.477051m. Speed=11.376000m/h.</desc>
<speed>3.160000</speed>
</trkpt>
<trkpt lat="43.157986" lon="19.276617">
<ele>631.211426</ele>
<time>2012-05-03T11:55:22Z</time>
<desc>lat.=43.157986, lon.=19.276617, Alt.=631.211426m. Speed=7.560000m/h.</desc>
<speed>2.100000</speed>
</trkpt>
<trkpt lat="43.158028" lon="19.276455">
<ele>627.414551</ele>
<time>2012-05-03T11:55:27Z</time>
<desc>lat.=43.158028, lon.=19.276455, Alt.=627.414551m. Speed=7.272000m/h.</desc>
<speed>2.020000</speed>
</trkpt>
<trkpt lat="43.158096" lon="19.276226">
<ele>623.961426</ele>
<time>2012-05-03T11:55:32Z</time>
<desc>lat.=43.158096, lon.=19.276226, Alt.=623.961426m. Speed=10.008000m/h.</desc>
<speed>2.780000</speed>
</trkpt>
<trkpt lat="43.158138" lon="19.275997">
<ele>621.992676</ele>
<time>2012-05-03T11:55:37Z</time>
<desc>lat.=43.158138, lon.=19.275997, Alt.=621.992676m. Speed=9.072000m/h.</desc>
<speed>2.520000</speed>
</trkpt>
<trkpt lat="43.158165" lon="19.275843">
<ele>621.617676</ele>
<time>2012-05-03T11:55:42Z</time>
<desc>lat.=43.158165, lon.=19.275843, Alt.=621.617676m. Speed=7.956000m/h.</desc>
<speed>2.210000</speed>
</trkpt>
<trkpt lat="43.158222" lon="19.275675">
<ele>618.867676</ele>
<time>2012-05-03T11:55:47Z</time>
<desc>lat.=43.158222, lon.=19.275675, Alt.=618.867676m. Speed=7.380000m/h.</desc>
<speed>2.050000</speed>
</trkpt>
<trkpt lat="43.158302" lon="19.275482">
<ele>624.664551</ele>
<time>2012-05-03T11:55:52Z</time>
<desc>lat.=43.158302, lon.=19.275482, Alt.=624.664551m. Speed=11.448000m/h.</desc>
<speed>3.180000</speed>
</trkpt>
<trkpt lat="43.158348" lon="19.275288">
<ele>625.836426</ele>
<time>2012-05-03T11:55:57Z</time>
<desc>lat.=43.158348, lon.=19.275288, Alt.=625.836426m. Speed=9.144000m/h.</desc>
<speed>2.540000</speed>
</trkpt>
<trkpt lat="43.158421" lon="19.275072">
<ele>626.461426</ele>
<time>2012-05-03T11:56:02Z</time>
<desc>lat.=43.158421, lon.=19.275072, Alt.=626.461426m. Speed=12.132000m/h.</desc>
<speed>3.370000</speed>
</trkpt>
<trkpt lat="43.158543" lon="19.274841">
<ele>627.508301</ele>
<time>2012-05-03T11:56:07Z</time>
<desc>lat.=43.158543, lon.=19.274841, Alt.=627.508301m. Speed=11.808000m/h.</desc>
<speed>3.280000</speed>
</trkpt>
<trkpt lat="43.158657" lon="19.274639">
<ele>626.586426</ele>
<time>2012-05-03T11:56:12Z</time>
<desc>lat.=43.158657, lon.=19.274639, Alt.=626.586426m. Speed=12.744000m/h.</desc>
<speed>3.540000</speed>
</trkpt>
<trkpt lat="43.158741" lon="19.274477">
<ele>627.336426</ele>
<time>2012-05-03T11:56:17Z</time>
<desc>lat.=43.158741, lon.=19.274477, Alt.=627.336426m. Speed=13.032000m/h.</desc>
<speed>3.620000</speed>
</trkpt>
<trkpt lat="43.158913" lon="19.274347">
<ele>629.227051</ele>
<time>2012-05-03T11:56:22Z</time>
<desc>lat.=43.158913, lon.=19.274347, Alt.=629.227051m. Speed=14.616000m/h.</desc>
<speed>4.060000</speed>
</trkpt>
<trkpt lat="43.159077" lon="19.274235">
<ele>631.648926</ele>
<time>2012-05-03T11:56:27Z</time>
<desc>lat.=43.159077, lon.=19.274235, Alt.=631.648926m. Speed=14.616000m/h.</desc>
<speed>4.060000</speed>
</trkpt>
<trkpt lat="43.159286" lon="19.274069">
<ele>634.508301</ele>
<time>2012-05-03T11:56:32Z</time>
<desc>lat.=43.159286, lon.=19.274069, Alt.=634.508301m. Speed=16.416000m/h.</desc>
<speed>4.560000</speed>
</trkpt>
<trkpt lat="43.159527" lon="19.273964">
<ele>636.070801</ele>
<time>2012-05-03T11:56:37Z</time>
<desc>lat.=43.159527, lon.=19.273964, Alt.=636.070801m. Speed=14.724000m/h.</desc>
<speed>4.090000</speed>
</trkpt>
<trkpt lat="43.159657" lon="19.273819">
<ele>638.352051</ele>
<time>2012-05-03T11:56:42Z</time>
<desc>lat.=43.159657, lon.=19.273819, Alt.=638.352051m. Speed=13.140000m/h.</desc>
<speed>3.650000</speed>
</trkpt>
<trkpt lat="43.159790" lon="19.273642">
<ele>640.789551</ele>
<time>2012-05-03T11:56:47Z</time>
<desc>lat.=43.159790, lon.=19.273642, Alt.=640.789551m. Speed=12.276000m/h.</desc>
<speed>3.410000</speed>
</trkpt>
<trkpt lat="43.159912" lon="19.273514">
<ele>642.820801</ele>
<time>2012-05-03T11:56:52Z</time>
<desc>lat.=43.159912, lon.=19.273514, Alt.=642.820801m. Speed=11.088000m/h.</desc>
<speed>3.080000</speed>
</trkpt>
<trkpt lat="43.160053" lon="19.273367">
<ele>645.164551</ele>
<time>2012-05-03T11:56:57Z</time>
<desc>lat.=43.160053, lon.=19.273367, Alt.=645.164551m. Speed=9.828000m/h.</desc>
<speed>2.730000</speed>
</trkpt>
<trkpt lat="43.160137" lon="19.273212">
<ele>648.211426</ele>
<time>2012-05-03T11:57:02Z</time>
<desc>lat.=43.160137, lon.=19.273212, Alt.=648.211426m. Speed=10.476000m/h.</desc>
<speed>2.910000</speed>
</trkpt>
<trkpt lat="43.160233" lon="19.273037">
<ele>650.336426</ele>
<time>2012-05-03T11:57:07Z</time>
<desc>lat.=43.160233, lon.=19.273037, Alt.=650.336426m. Speed=10.476000m/h.</desc>
<speed>2.910000</speed>
</trkpt>
<trkpt lat="43.160275" lon="19.272949">
<ele>651.570801</ele>
<time>2012-05-03T11:57:12Z</time>
<desc>lat.=43.160275, lon.=19.272949, Alt.=651.570801m. Speed=7.308000m/h.</desc>
<speed>2.030000</speed>
</trkpt>
<trkpt lat="43.160320" lon="19.272848">
<ele>653.227051</ele>
<time>2012-05-03T11:57:17Z</time>
<desc>lat.=43.160320, lon.=19.272848, Alt.=653.227051m. Speed=8.352000m/h.</desc>
<speed>2.320000</speed>
</trkpt>
<trkpt lat="43.160362" lon="19.272713">
<ele>654.914551</ele>
<time>2012-05-03T11:57:22Z</time>
<desc>lat.=43.160362, lon.=19.272713, Alt.=654.914551m. Speed=8.460000m/h.</desc>
<speed>2.350000</speed>
</trkpt>
<trkpt lat="43.160465" lon="19.272596">
<ele>656.289551</ele>
<time>2012-05-03T11:57:27Z</time>
<desc>lat.=43.160465, lon.=19.272596, Alt.=656.289551m. Speed=9.432000m/h.</desc>
<speed>2.620000</speed>
</trkpt>
<trkpt lat="43.160568" lon="19.272470">
<ele>658.664551</ele>
<time>2012-05-03T11:57:32Z</time>
<desc>lat.=43.160568, lon.=19.272470, Alt.=658.664551m. Speed=10.548000m/h.</desc>
<speed>2.930000</speed>
</trkpt>
<trkpt lat="43.160671" lon="19.272369">
<ele>660.930176</ele>
<time>2012-05-03T11:57:37Z</time>
<desc>lat.=43.160671, lon.=19.272369, Alt.=660.930176m. Speed=10.440000m/h.</desc>
<speed>2.900000</speed>
</trkpt>
<trkpt lat="43.160805" lon="19.272209">
<ele>663.414551</ele>
<time>2012-05-03T11:57:42Z</time>
<desc>lat.=43.160805, lon.=19.272209, Alt.=663.414551m. Speed=12.672000m/h.</desc>
<speed>3.520000</speed>
</trkpt>
<trkpt lat="43.160938" lon="19.272097">
<ele>665.664551</ele>
<time>2012-05-03T11:57:47Z</time>
<desc>lat.=43.160938, lon.=19.272097, Alt.=665.664551m. Speed=12.060000m/h.</desc>
<speed>3.350000</speed>
</trkpt>
<trkpt lat="43.161030" lon="19.271927">
<ele>666.914551</ele>
<time>2012-05-03T11:57:52Z</time>
<desc>lat.=43.161030, lon.=19.271927, Alt.=666.914551m. Speed=12.528000m/h.</desc>
<speed>3.480000</speed>
</trkpt>
<trkpt lat="43.161175" lon="19.271847">
<ele>668.664551</ele>
<time>2012-05-03T11:57:57Z</time>
<desc>lat.=43.161175, lon.=19.271847, Alt.=668.664551m. Speed=9.252000m/h.</desc>
<speed>2.570000</speed>
</trkpt>
<trkpt lat="43.161335" lon="19.271791">
<ele>670.992676</ele>
<time>2012-05-03T11:58:02Z</time>
<desc>lat.=43.161335, lon.=19.271791, Alt.=670.992676m. Speed=11.772000m/h.</desc>
<speed>3.270000</speed>
</trkpt>
<trkpt lat="43.161503" lon="19.271765">
<ele>673.492676</ele>
<time>2012-05-03T11:58:07Z</time>
<desc>lat.=43.161503, lon.=19.271765, Alt.=673.492676m. Speed=11.412000m/h.</desc>
<speed>3.170000</speed>
</trkpt>
<trkpt lat="43.161636" lon="19.271658">
<ele>675.695801</ele>
<time>2012-05-03T11:58:12Z</time>
<desc>lat.=43.161636, lon.=19.271658, Alt.=675.695801m. Speed=10.800000m/h.</desc>
<speed>3.000000</speed>
</trkpt>
<trkpt lat="43.161751" lon="19.271534">
<ele>677.492676</ele>
<time>2012-05-03T11:58:17Z</time>
<desc>lat.=43.161751, lon.=19.271534, Alt.=677.492676m. Speed=8.676000m/h.</desc>
<speed>2.410000</speed>
</trkpt>
<trkpt lat="43.161861" lon="19.271490">
<ele>679.586426</ele>
<time>2012-05-03T11:58:22Z</time>
<desc>lat.=43.161861, lon.=19.271490, Alt.=679.586426m. Speed=8.460000m/h.</desc>
<speed>2.350000</speed>
</trkpt>
<trkpt lat="43.161961" lon="19.271452">
<ele>681.555176</ele>
<time>2012-05-03T11:58:27Z</time>
<desc>lat.=43.161961, lon.=19.271452, Alt.=681.555176m. Speed=8.928000m/h.</desc>
<speed>2.480000</speed>
</trkpt>
<trkpt lat="43.162048" lon="19.271358">
<ele>683.898926</ele>
<time>2012-05-03T11:58:32Z</time>
<desc>lat.=43.162048, lon.=19.271358, Alt.=683.898926m. Speed=9.072000m/h.</desc>
<speed>2.520000</speed>
</trkpt>
<trkpt lat="43.162159" lon="19.271303">
<ele>685.742676</ele>
<time>2012-05-03T11:58:37Z</time>
<desc>lat.=43.162159, lon.=19.271303, Alt.=685.742676m. Speed=8.208000m/h.</desc>
<speed>2.280000</speed>
</trkpt>
<trkpt lat="43.162292" lon="19.271219">
<ele>687.727051</ele>
<time>2012-05-03T11:58:42Z</time>
<desc>lat.=43.162292, lon.=19.271219, Alt.=687.727051m. Speed=10.152000m/h.</desc>
<speed>2.820000</speed>
</trkpt>
<trkpt lat="43.162399" lon="19.271219">
<ele>689.633301</ele>
<time>2012-05-03T11:58:47Z</time>
<desc>lat.=43.162399, lon.=19.271219, Alt.=689.633301m. Speed=8.136000m/h.</desc>
<speed>2.260000</speed>
</trkpt>
<trkpt lat="43.162487" lon="19.271135">
<ele>691.773926</ele>
<time>2012-05-03T11:58:52Z</time>
<desc>lat.=43.162487, lon.=19.271135, Alt.=691.773926m. Speed=7.452000m/h.</desc>
<speed>2.070000</speed>
</trkpt>
<trkpt lat="43.162575" lon="19.271046">
<ele>693.648926</ele>
<time>2012-05-03T11:58:57Z</time>
<desc>lat.=43.162575, lon.=19.271046, Alt.=693.648926m. Speed=9.792000m/h.</desc>
<speed>2.720000</speed>
</trkpt>
<trkpt lat="43.162682" lon="19.270948">
<ele>694.898926</ele>
<time>2012-05-03T11:59:02Z</time>
<desc>lat.=43.162682, lon.=19.270948, Alt.=694.898926m. Speed=9.792000m/h.</desc>
<speed>2.720000</speed>
</trkpt>
<trkpt lat="43.162712" lon="19.270788">
<ele>695.117676</ele>
<time>2012-05-03T11:59:07Z</time>
<desc>lat.=43.162712, lon.=19.270788, Alt.=695.117676m. Speed=10.476000m/h.</desc>
<speed>2.910000</speed>
</trkpt>
<trkpt lat="43.162750" lon="19.270580">
<ele>696.664551</ele>
<time>2012-05-03T11:59:12Z</time>
<desc>lat.=43.162750, lon.=19.270580, Alt.=696.664551m. Speed=12.528000m/h.</desc>
<speed>3.480000</speed>
</trkpt>
<trkpt lat="43.162846" lon="19.270353">
<ele>697.414551</ele>
<time>2012-05-03T11:59:17Z</time>
<desc>lat.=43.162846, lon.=19.270353, Alt.=697.414551m. Speed=15.156000m/h.</desc>
<speed>4.210000</speed>
</trkpt>
<trkpt lat="43.162960" lon="19.270138">
<ele>697.680176</ele>
<time>2012-05-03T11:59:22Z</time>
<desc>lat.=43.162960, lon.=19.270138, Alt.=697.680176m. Speed=12.852000m/h.</desc>
<speed>3.570000</speed>
</trkpt>
<trkpt lat="43.163029" lon="19.269920">
<ele>700.898926</ele>
<time>2012-05-03T11:59:27Z</time>
<desc>lat.=43.163029, lon.=19.269920, Alt.=700.898926m. Speed=12.096000m/h.</desc>
<speed>3.360000</speed>
</trkpt>
<trkpt lat="43.163143" lon="19.269720">
<ele>704.477051</ele>
<time>2012-05-03T11:59:32Z</time>
<desc>lat.=43.163143, lon.=19.269720, Alt.=704.477051m. Speed=13.284000m/h.</desc>
<speed>3.690000</speed>
</trkpt>
<trkpt lat="43.163212" lon="19.269497">
<ele>707.930176</ele>
<time>2012-05-03T11:59:37Z</time>
<desc>lat.=43.163212, lon.=19.269497, Alt.=707.930176m. Speed=12.600000m/h.</desc>
<speed>3.500000</speed>
</trkpt>
<trkpt lat="43.163311" lon="19.269283">
<ele>711.055176</ele>
<time>2012-05-03T11:59:42Z</time>
<desc>lat.=43.163311, lon.=19.269283, Alt.=711.055176m. Speed=12.132000m/h.</desc>
<speed>3.370000</speed>
</trkpt>
<trkpt lat="43.163441" lon="19.269041">
<ele>712.961426</ele>
<time>2012-05-03T11:59:47Z</time>
<desc>lat.=43.163441, lon.=19.269041, Alt.=712.961426m. Speed=12.816000m/h.</desc>
<speed>3.560000</speed>
</trkpt>
<trkpt lat="43.163540" lon="19.268787">
<ele>714.305176</ele>
<time>2012-05-03T11:59:52Z</time>
<desc>lat.=43.163540, lon.=19.268787, Alt.=714.305176m. Speed=14.544000m/h.</desc>
<speed>4.040000</speed>
</trkpt>
<trkpt lat="43.163681" lon="19.268578">
<ele>716.867676</ele>
<time>2012-05-03T11:59:57Z</time>
<desc>lat.=43.163681, lon.=19.268578, Alt.=716.867676m. Speed=15.048000m/h.</desc>
<speed>4.180000</speed>
</trkpt>
<trkpt lat="43.163784" lon="19.268398">
<ele>719.289551</ele>
<time>2012-05-03T12:00:02Z</time>
<desc>lat.=43.163784, lon.=19.268398, Alt.=719.289551m. Speed=13.176000m/h.</desc>
<speed>3.660000</speed>
</trkpt>
<trkpt lat="43.163830" lon="19.268183">
<ele>722.648926</ele>
<time>2012-05-03T12:00:07Z</time>
<desc>lat.=43.163830, lon.=19.268183, Alt.=722.648926m. Speed=13.212000m/h.</desc>
<speed>3.670000</speed>
</trkpt>
<trkpt lat="43.163872" lon="19.268005">
<ele>725.633301</ele>
<time>2012-05-03T12:00:12Z</time>
<desc>lat.=43.163872, lon.=19.268005, Alt.=725.633301m. Speed=12.528000m/h.</desc>
<speed>3.480000</speed>
</trkpt>
<trkpt lat="43.163933" lon="19.267794">
<ele>726.805176</ele>
<time>2012-05-03T12:00:17Z</time>
<desc>lat.=43.163933, lon.=19.267794, Alt.=726.805176m. Speed=13.392000m/h.</desc>
<speed>3.720000</speed>
</trkpt>
<trkpt lat="43.163944" lon="19.267591">
<ele>728.617676</ele>
<time>2012-05-03T12:00:22Z</time>
<desc>lat.=43.163944, lon.=19.267591, Alt.=728.617676m. Speed=11.988000m/h.</desc>
<speed>3.330000</speed>
</trkpt>
<trkpt lat="43.163933" lon="19.267345">
<ele>731.477051</ele>
<time>2012-05-03T12:00:27Z</time>
<desc>lat.=43.163933, lon.=19.267345, Alt.=731.477051m. Speed=13.032000m/h.</desc>
<speed>3.620000</speed>
</trkpt>
<trkpt lat="43.163940" lon="19.267145">
<ele>733.852051</ele>
<time>2012-05-03T12:00:32Z</time>
<desc>lat.=43.163940, lon.=19.267145, Alt.=733.852051m. Speed=10.908000m/h.</desc>
<speed>3.030000</speed>
</trkpt>
<trkpt lat="43.163948" lon="19.266994">
<ele>735.680176</ele>
<time>2012-05-03T12:00:37Z</time>
<desc>lat.=43.163948, lon.=19.266994, Alt.=735.680176m. Speed=8.064000m/h.</desc>
<speed>2.240000</speed>
</trkpt>
<trkpt lat="43.163982" lon="19.266817">
<ele>738.180176</ele>
<time>2012-05-03T12:00:42Z</time>
<desc>lat.=43.163982, lon.=19.266817, Alt.=738.180176m. Speed=11.088000m/h.</desc>
<speed>3.080000</speed>
</trkpt>
<trkpt lat="43.164036" lon="19.266560">
<ele>740.430176</ele>
<time>2012-05-03T12:00:47Z</time>
<desc>lat.=43.164036, lon.=19.266560, Alt.=740.430176m. Speed=12.348000m/h.</desc>
<speed>3.430000</speed>
</trkpt>
<trkpt lat="43.164135" lon="19.266319">
<ele>741.383301</ele>
<time>2012-05-03T12:00:52Z</time>
<desc>lat.=43.164135, lon.=19.266319, Alt.=741.383301m. Speed=13.248000m/h.</desc>
<speed>3.680000</speed>
</trkpt>
<trkpt lat="43.164169" lon="19.266111">
<ele>743.133301</ele>
<time>2012-05-03T12:00:57Z</time>
<desc>lat.=43.164169, lon.=19.266111, Alt.=743.133301m. Speed=12.816000m/h.</desc>
<speed>3.560000</speed>
</trkpt>
<trkpt lat="43.164242" lon="19.265915">
<ele>744.852051</ele>
<time>2012-05-03T12:01:02Z</time>
<desc>lat.=43.164242, lon.=19.265915, Alt.=744.852051m. Speed=12.816000m/h.</desc>
<speed>3.560000</speed>
</trkpt>
<trkpt lat="43.164322" lon="19.265684">
<ele>746.555176</ele>
<time>2012-05-03T12:01:07Z</time>
<desc>lat.=43.164322, lon.=19.265684, Alt.=746.555176m. Speed=12.744000m/h.</desc>
<speed>3.540000</speed>
</trkpt>
<trkpt lat="43.164391" lon="19.265469">
<ele>748.398926</ele>
<time>2012-05-03T12:01:12Z</time>
<desc>lat.=43.164391, lon.=19.265469, Alt.=748.398926m. Speed=14.544000m/h.</desc>
<speed>4.040000</speed>
</trkpt>
<trkpt lat="43.164471" lon="19.265306">
<ele>750.570801</ele>
<time>2012-05-03T12:01:17Z</time>
<desc>lat.=43.164471, lon.=19.265306, Alt.=750.570801m. Speed=10.980000m/h.</desc>
<speed>3.050000</speed>
</trkpt>
<trkpt lat="43.164486" lon="19.265108">
<ele>752.023926</ele>
<time>2012-05-03T12:01:22Z</time>
<desc>lat.=43.164486, lon.=19.265108, Alt.=752.023926m. Speed=11.556000m/h.</desc>
<speed>3.210000</speed>
</trkpt>
<trkpt lat="43.164501" lon="19.264975">
<ele>754.367676</ele>
<time>2012-05-03T12:01:27Z</time>
<desc>lat.=43.164501, lon.=19.264975, Alt.=754.367676m. Speed=9.072000m/h.</desc>
<speed>2.520000</speed>
</trkpt>
<trkpt lat="43.164562" lon="19.264866">
<ele>756.477051</ele>
<time>2012-05-03T12:01:32Z</time>
<desc>lat.=43.164562, lon.=19.264866, Alt.=756.477051m. Speed=8.640000m/h.</desc>
<speed>2.400000</speed>
</trkpt>
<trkpt lat="43.164616" lon="19.264690">
<ele>759.586426</ele>
<time>2012-05-03T12:01:37Z</time>
<desc>lat.=43.164616, lon.=19.264690, Alt.=759.586426m. Speed=8.460000m/h.</desc>
<speed>2.350000</speed>
</trkpt>
<trkpt lat="43.164692" lon="19.264498">
<ele>762.320801</ele>
<time>2012-05-03T12:01:42Z</time>
<desc>lat.=43.164692, lon.=19.264498, Alt.=762.320801m. Speed=10.296000m/h.</desc>
<speed>2.860000</speed>
</trkpt>
<trkpt lat="43.164738" lon="19.264334">
<ele>764.492676</ele>
<time>2012-05-03T12:01:47Z</time>
<desc>lat.=43.164738, lon.=19.264334, Alt.=764.492676m. Speed=8.388000m/h.</desc>
<speed>2.330000</speed>
</trkpt>
<trkpt lat="43.164787" lon="19.264227">
<ele>767.258301</ele>
<time>2012-05-03T12:01:52Z</time>
<desc>lat.=43.164787, lon.=19.264227, Alt.=767.258301m. Speed=8.244000m/h.</desc>
<speed>2.290000</speed>
</trkpt>
<trkpt lat="43.164806" lon="19.264065">
<ele>770.352051</ele>
<time>2012-05-03T12:01:57Z</time>
<desc>lat.=43.164806, lon.=19.264065, Alt.=770.352051m. Speed=6.804000m/h.</desc>
<speed>1.890000</speed>
</trkpt>
<trkpt lat="43.164879" lon="19.263912">
<ele>773.430176</ele>
<time>2012-05-03T12:02:02Z</time>
<desc>lat.=43.164879, lon.=19.263912, Alt.=773.430176m. Speed=7.020000m/h.</desc>
<speed>1.950000</speed>
</trkpt>
<trkpt lat="43.164993" lon="19.263826">
<ele>776.602051</ele>
<time>2012-05-03T12:02:07Z</time>
<desc>lat.=43.164993, lon.=19.263826, Alt.=776.602051m. Speed=9.756000m/h.</desc>
<speed>2.710000</speed>
</trkpt>
<trkpt lat="43.165062" lon="19.263706">
<ele>780.398926</ele>
<time>2012-05-03T12:02:12Z</time>
<desc>lat.=43.165062, lon.=19.263706, Alt.=780.398926m. Speed=7.056000m/h.</desc>
<speed>1.960000</speed>
</trkpt>
<trkpt lat="43.165108" lon="19.263592">
<ele>783.883301</ele>
<time>2012-05-03T12:02:17Z</time>
<desc>lat.=43.165108, lon.=19.263592, Alt.=783.883301m. Speed=5.472000m/h.</desc>
<speed>1.520000</speed>
</trkpt>
<trkpt lat="43.165176" lon="19.263439">
<ele>787.398926</ele>
<time>2012-05-03T12:02:22Z</time>
<desc>lat.=43.165176, lon.=19.263439, Alt.=787.398926m. Speed=7.452000m/h.</desc>
<speed>2.070000</speed>
</trkpt>
<trkpt lat="43.165241" lon="19.263371">
<ele>791.461426</ele>
<time>2012-05-03T12:02:27Z</time>
<desc>lat.=43.165241, lon.=19.263371, Alt.=791.461426m. Speed=6.120000m/h.</desc>
<speed>1.700000</speed>
</trkpt>
<trkpt lat="43.165344" lon="19.263281">
<ele>795.211426</ele>
<time>2012-05-03T12:02:32Z</time>
<desc>lat.=43.165344, lon.=19.263281, Alt.=795.211426m. Speed=9.900000m/h.</desc>
<speed>2.750000</speed>
</trkpt>
<trkpt lat="43.165413" lon="19.263197">
<ele>798.836426</ele>
<time>2012-05-03T12:02:37Z</time>
<desc>lat.=43.165413, lon.=19.263197, Alt.=798.836426m. Speed=8.064000m/h.</desc>
<speed>2.240000</speed>
</trkpt>
<trkpt lat="43.165466" lon="19.263088">
<ele>803.008301</ele>
<time>2012-05-03T12:02:42Z</time>
<desc>lat.=43.165466, lon.=19.263088, Alt.=803.008301m. Speed=6.444000m/h.</desc>
<speed>1.790000</speed>
</trkpt>
<trkpt lat="43.165512" lon="19.263018">
<ele>806.961426</ele>
<time>2012-05-03T12:02:47Z</time>
<desc>lat.=43.165512, lon.=19.263018, Alt.=806.961426m. Speed=5.832000m/h.</desc>
<speed>1.620000</speed>
</trkpt>
<trkpt lat="43.165546" lon="19.262920">
<ele>810.539551</ele>
<time>2012-05-03T12:02:52Z</time>
<desc>lat.=43.165546, lon.=19.262920, Alt.=810.539551m. Speed=6.300000m/h.</desc>
<speed>1.750000</speed>
</trkpt>
<trkpt lat="43.165638" lon="19.262835">
<ele>813.820801</ele>
<time>2012-05-03T12:02:57Z</time>
<desc>lat.=43.165638, lon.=19.262835, Alt.=813.820801m. Speed=6.696000m/h.</desc>
<speed>1.860000</speed>
</trkpt>
<trkpt lat="43.165710" lon="19.262774">
<ele>817.523926</ele>
<time>2012-05-03T12:03:02Z</time>
<desc>lat.=43.165710, lon.=19.262774, Alt.=817.523926m. Speed=5.688000m/h.</desc>
<speed>1.580000</speed>
</trkpt>
<trkpt lat="43.165768" lon="19.262690">
<ele>821.352051</ele>
<time>2012-05-03T12:03:07Z</time>
<desc>lat.=43.165768, lon.=19.262690, Alt.=821.352051m. Speed=5.904000m/h.</desc>
<speed>1.640000</speed>
</trkpt>
<trkpt lat="43.165882" lon="19.262619">
<ele>825.492676</ele>
<time>2012-05-03T12:03:12Z</time>
<desc>lat.=43.165882, lon.=19.262619, Alt.=825.492676m. Speed=9.252000m/h.</desc>
<speed>2.570000</speed>
</trkpt>
<trkpt lat="43.166016" lon="19.262533">
<ele>829.727051</ele>
<time>2012-05-03T12:03:17Z</time>
<desc>lat.=43.166016, lon.=19.262533, Alt.=829.727051m. Speed=9.108000m/h.</desc>
<speed>2.530000</speed>
</trkpt>
<trkpt lat="43.166187" lon="19.262453">
<ele>834.258301</ele>
<time>2012-05-03T12:03:22Z</time>
<desc>lat.=43.166187, lon.=19.262453, Alt.=834.258301m. Speed=9.792000m/h.</desc>
<speed>2.720000</speed>
</trkpt>
<trkpt lat="43.166302" lon="19.262384">
<ele>838.789551</ele>
<time>2012-05-03T12:03:27Z</time>
<desc>lat.=43.166302, lon.=19.262384, Alt.=838.789551m. Speed=7.704000m/h.</desc>
<speed>2.140000</speed>
</trkpt>
<trkpt lat="43.166401" lon="19.262400">
<ele>844.430176</ele>
<time>2012-05-03T12:03:32Z</time>
<desc>lat.=43.166401, lon.=19.262400, Alt.=844.430176m. Speed=7.524000m/h.</desc>
<speed>2.090000</speed>
</trkpt>
<trkpt lat="43.166557" lon="19.262478">
<ele>849.039551</ele>
<time>2012-05-03T12:03:37Z</time>
<desc>lat.=43.166557, lon.=19.262478, Alt.=849.039551m. Speed=8.640000m/h.</desc>
<speed>2.400000</speed>
</trkpt>
<trkpt lat="43.166683" lon="19.262449">
<ele>854.398926</ele>
<time>2012-05-03T12:03:42Z</time>
<desc>lat.=43.166683, lon.=19.262449, Alt.=854.398926m. Speed=10.368000m/h.</desc>
<speed>2.880000</speed>
</trkpt>
<trkpt lat="43.166824" lon="19.262400">
<ele>857.945801</ele>
<time>2012-05-03T12:03:47Z</time>
<desc>lat.=43.166824, lon.=19.262400, Alt.=857.945801m. Speed=8.532000m/h.</desc>
<speed>2.370000</speed>
</trkpt>
<trkpt lat="43.166973" lon="19.262362">
<ele>862.961426</ele>
<time>2012-05-03T12:03:52Z</time>
<desc>lat.=43.166973, lon.=19.262362, Alt.=862.961426m. Speed=12.672000m/h.</desc>
<speed>3.520000</speed>
</trkpt>
<trkpt lat="43.167091" lon="19.262300">
<ele>867.992676</ele>
<time>2012-05-03T12:03:57Z</time>
<desc>lat.=43.167091, lon.=19.262300, Alt.=867.992676m. Speed=9.396000m/h.</desc>
<speed>2.610000</speed>
</trkpt>
<trkpt lat="43.167213" lon="19.262199">
<ele>869.117676</ele>
<time>2012-05-03T12:04:02Z</time>
<desc>lat.=43.167213, lon.=19.262199, Alt.=869.117676m. Speed=9.720000m/h.</desc>
<speed>2.700000</speed>
</trkpt>
<trkpt lat="43.167404" lon="19.262144">
<ele>872.242676</ele>
<time>2012-05-03T12:04:07Z</time>
<desc>lat.=43.167404, lon.=19.262144, Alt.=872.242676m. Speed=10.620000m/h.</desc>
<speed>2.950000</speed>
</trkpt>
<trkpt lat="43.167450" lon="19.262079">
<ele>874.258301</ele>
<time>2012-05-03T12:04:12Z</time>
<desc>lat.=43.167450, lon.=19.262079, Alt.=874.258301m. Speed=5.436000m/h.</desc>
<speed>1.510000</speed>
</trkpt>
<trkpt lat="43.167576" lon="19.262024">
<ele>879.477051</ele>
<time>2012-05-03T12:04:17Z</time>
<desc>lat.=43.167576, lon.=19.262024, Alt.=879.477051m. Speed=7.776000m/h.</desc>
<speed>2.160000</speed>
</trkpt>
<trkpt lat="43.167713" lon="19.261986">
<ele>883.461426</ele>
<time>2012-05-03T12:04:22Z</time>
<desc>lat.=43.167713, lon.=19.261986, Alt.=883.461426m. Speed=7.740000m/h.</desc>
<speed>2.150000</speed>
</trkpt>
<trkpt lat="43.167892" lon="19.262020">
<ele>887.742676</ele>
<time>2012-05-03T12:04:27Z</time>
<desc>lat.=43.167892, lon.=19.262020, Alt.=887.742676m. Speed=9.324000m/h.</desc>
<speed>2.590000</speed>
</trkpt>
<trkpt lat="43.167999" lon="19.261909">
<ele>893.914551</ele>
<time>2012-05-03T12:04:32Z</time>
<desc>lat.=43.167999, lon.=19.261909, Alt.=893.914551m. Speed=7.848000m/h.</desc>
<speed>2.180000</speed>
</trkpt>
<trkpt lat="43.168114" lon="19.261806">
<ele>897.523926</ele>
<time>2012-05-03T12:04:37Z</time>
<desc>lat.=43.168114, lon.=19.261806, Alt.=897.523926m. Speed=12.420000m/h.</desc>
<speed>3.450000</speed>
</trkpt>
<trkpt lat="43.168316" lon="19.261711">
<ele>900.180176</ele>
<time>2012-05-03T12:04:42Z</time>
<desc>lat.=43.168316, lon.=19.261711, Alt.=900.180176m. Speed=11.196000m/h.</desc>
<speed>3.110000</speed>
</trkpt>
<trkpt lat="43.168468" lon="19.261610">
<ele>904.070801</ele>
<time>2012-05-03T12:04:47Z</time>
<desc>lat.=43.168468, lon.=19.261610, Alt.=904.070801m. Speed=9.504000m/h.</desc>
<speed>2.640000</speed>
</trkpt>
<trkpt lat="43.168575" lon="19.261614">
<ele>908.086426</ele>
<time>2012-05-03T12:04:52Z</time>
<desc>lat.=43.168575, lon.=19.261614, Alt.=908.086426m. Speed=7.596000m/h.</desc>
<speed>2.110000</speed>
</trkpt>
<trkpt lat="43.168709" lon="19.261581">
<ele>913.164551</ele>
<time>2012-05-03T12:04:57Z</time>
<desc>lat.=43.168709, lon.=19.261581, Alt.=913.164551m. Speed=13.644000m/h.</desc>
<speed>3.790000</speed>
</trkpt>
<trkpt lat="43.168861" lon="19.261484">
<ele>918.586426</ele>
<time>2012-05-03T12:05:02Z</time>
<desc>lat.=43.168861, lon.=19.261484, Alt.=918.586426m. Speed=10.800000m/h.</desc>
<speed>3.000000</speed>
</trkpt>
<trkpt lat="43.168972" lon="19.261410">
<ele>923.711426</ele>
<time>2012-05-03T12:05:07Z</time>
<desc>lat.=43.168972, lon.=19.261410, Alt.=923.711426m. Speed=8.064000m/h.</desc>
<speed>2.240000</speed>
</trkpt>
<trkpt lat="43.169083" lon="19.261366">
<ele>929.289551</ele>
<time>2012-05-03T12:05:12Z</time>
<desc>lat.=43.169083, lon.=19.261366, Alt.=929.289551m. Speed=7.848000m/h.</desc>
<speed>2.180000</speed>
</trkpt>
<trkpt lat="43.169220" lon="19.261318">
<ele>934.820801</ele>
<time>2012-05-03T12:05:17Z</time>
<desc>lat.=43.169220, lon.=19.261318, Alt.=934.820801m. Speed=7.632000m/h.</desc>
<speed>2.120000</speed>
</trkpt>
<trkpt lat="43.169376" lon="19.261303">
<ele>940.383301</ele>
<time>2012-05-03T12:05:22Z</time>
<desc>lat.=43.169376, lon.=19.261303, Alt.=940.383301m. Speed=12.924000m/h.</desc>
<speed>3.590000</speed>
</trkpt>
<trkpt lat="43.169582" lon="19.261284">
<ele>944.180176</ele>
<time>2012-05-03T12:05:27Z</time>
<desc>lat.=43.169582, lon.=19.261284, Alt.=944.180176m. Speed=11.376000m/h.</desc>
<speed>3.160000</speed>
</trkpt>
<trkpt lat="43.169754" lon="19.261274">
<ele>949.273926</ele>
<time>2012-05-03T12:05:32Z</time>
<desc>lat.=43.169754, lon.=19.261274, Alt.=949.273926m. Speed=11.376000m/h.</desc>
<speed>3.160000</speed>
</trkpt>
<trkpt lat="43.169926" lon="19.261173">
<ele>952.461426</ele>
<time>2012-05-03T12:05:37Z</time>
<desc>lat.=43.169926, lon.=19.261173, Alt.=952.461426m. Speed=11.016000m/h.</desc>
<speed>3.060000</speed>
</trkpt>
<trkpt lat="43.170059" lon="19.261160">
<ele>955.039551</ele>
<time>2012-05-03T12:05:42Z</time>
<desc>lat.=43.170059, lon.=19.261160, Alt.=955.039551m. Speed=9.972000m/h.</desc>
<speed>2.770000</speed>
</trkpt>
<trkpt lat="43.170155" lon="19.261147">
<ele>958.367676</ele>
<time>2012-05-03T12:05:47Z</time>
<desc>lat.=43.170155, lon.=19.261147, Alt.=958.367676m. Speed=8.784000m/h.</desc>
<speed>2.440000</speed>
</trkpt>
<trkpt lat="43.170315" lon="19.261072">
<ele>959.320801</ele>
<time>2012-05-03T12:05:52Z</time>
<desc>lat.=43.170315, lon.=19.261072, Alt.=959.320801m. Speed=9.972000m/h.</desc>
<speed>2.770000</speed>
</trkpt>
<trkpt lat="43.170437" lon="19.260958">
<ele>963.023926</ele>
<time>2012-05-03T12:05:57Z</time>
<desc>lat.=43.170437, lon.=19.260958, Alt.=963.023926m. Speed=11.772000m/h.</desc>
<speed>3.270000</speed>
</trkpt>
<trkpt lat="43.170528" lon="19.260876">
<ele>967.148926</ele>
<time>2012-05-03T12:06:02Z</time>
<desc>lat.=43.170528, lon.=19.260876, Alt.=967.148926m. Speed=8.172000m/h.</desc>
<speed>2.270000</speed>
</trkpt>
<trkpt lat="43.170597" lon="19.260805">
<ele>967.305176</ele>
<time>2012-05-03T12:06:07Z</time>
<desc>lat.=43.170597, lon.=19.260805, Alt.=967.305176m. Speed=9.072000m/h.</desc>
<speed>2.520000</speed>
</trkpt>
<trkpt lat="43.170662" lon="19.260666">
<ele>971.789551</ele>
<time>2012-05-03T12:06:12Z</time>
<desc>lat.=43.170662, lon.=19.260666, Alt.=971.789551m. Speed=7.272000m/h.</desc>
<speed>2.020000</speed>
</trkpt>
<trkpt lat="43.170742" lon="19.260509">
<ele>976.039551</ele>
<time>2012-05-03T12:06:17Z</time>
<desc>lat.=43.170742, lon.=19.260509, Alt.=976.039551m. Speed=8.244000m/h.</desc>
<speed>2.290000</speed>
</trkpt>
<trkpt lat="43.170799" lon="19.260368">
<ele>980.055176</ele>
<time>2012-05-03T12:06:22Z</time>
<desc>lat.=43.170799, lon.=19.260368, Alt.=980.055176m. Speed=6.012000m/h.</desc>
<speed>1.670000</speed>
</trkpt>
<trkpt lat="43.170933" lon="19.260286">
<ele>983.773926</ele>
<time>2012-05-03T12:06:27Z</time>
<desc>lat.=43.170933, lon.=19.260286, Alt.=983.773926m. Speed=9.792000m/h.</desc>
<speed>2.720000</speed>
</trkpt>
<trkpt lat="43.171032" lon="19.260204">
<ele>987.867676</ele>
<time>2012-05-03T12:06:32Z</time>
<desc>lat.=43.171032, lon.=19.260204, Alt.=987.867676m. Speed=7.956000m/h.</desc>
<speed>2.210000</speed>
</trkpt>
<trkpt lat="43.171143" lon="19.260105">
<ele>991.695801</ele>
<time>2012-05-03T12:06:37Z</time>
<desc>lat.=43.171143, lon.=19.260105, Alt.=991.695801m. Speed=9.432000m/h.</desc>
<speed>2.620000</speed>
</trkpt>
<trkpt lat="43.171257" lon="19.259991">
<ele>995.883301</ele>
<time>2012-05-03T12:06:42Z</time>
<desc>lat.=43.171257, lon.=19.259991, Alt.=995.883301m. Speed=9.756000m/h.</desc>
<speed>2.710000</speed>
</trkpt>
<trkpt lat="43.171379" lon="19.259895">
<ele>999.977051</ele>
<time>2012-05-03T12:06:47Z</time>
<desc>lat.=43.171379, lon.=19.259895, Alt.=999.977051m. Speed=11.556000m/h.</desc>
<speed>3.210000</speed>
</trkpt>
<trkpt lat="43.171524" lon="19.259802">
<ele>1004.320801</ele>
<time>2012-05-03T12:06:52Z</time>
<desc>lat.=43.171524, lon.=19.259802, Alt.=1004.320801m. Speed=11.232000m/h.</desc>
<speed>3.120000</speed>
</trkpt>
<trkpt lat="43.171700" lon="19.259716">
<ele>1007.961426</ele>
<time>2012-05-03T12:06:57Z</time>
<desc>lat.=43.171700, lon.=19.259716, Alt.=1007.961426m. Speed=12.276000m/h.</desc>
<speed>3.410000</speed>
</trkpt>
<trkpt lat="43.171829" lon="19.259686">
<ele>1011.742676</ele>
<time>2012-05-03T12:07:02Z</time>
<desc>lat.=43.171829, lon.=19.259686, Alt.=1011.742676m. Speed=10.620000m/h.</desc>
<speed>2.950000</speed>
</trkpt>
<trkpt lat="43.172020" lon="19.259605">
<ele>1015.555176</ele>
<time>2012-05-03T12:07:07Z</time>
<desc>lat.=43.172020, lon.=19.259605, Alt.=1015.555176m. Speed=12.312000m/h.</desc>
<speed>3.420000</speed>
</trkpt>
<trkpt lat="43.172092" lon="19.259508">
<ele>1009.789551</ele>
<time>2012-05-03T12:07:12Z</time>
<desc>lat.=43.172092, lon.=19.259508, Alt.=1009.789551m. Speed=8.712000m/h.</desc>
<speed>2.420000</speed>
</trkpt>
<trkpt lat="43.172195" lon="19.259424">
<ele>1013.133301</ele>
<time>2012-05-03T12:07:17Z</time>
<desc>lat.=43.172195, lon.=19.259424, Alt.=1013.133301m. Speed=7.884000m/h.</desc>
<speed>2.190000</speed>
</trkpt>
<trkpt lat="43.172310" lon="19.259340">
<ele>1016.227051</ele>
<time>2012-05-03T12:07:22Z</time>
<desc>lat.=43.172310, lon.=19.259340, Alt.=1016.227051m. Speed=11.052000m/h.</desc>
<speed>3.070000</speed>
</trkpt>
<trkpt lat="43.172386" lon="19.259344">
<ele>972.242676</ele>
<time>2012-05-03T12:07:27Z</time>
<desc>lat.=43.172386, lon.=19.259344, Alt.=972.242676m. Speed=10.980000m/h.</desc>
<speed>3.050000</speed>
</trkpt>
<trkpt lat="43.172394" lon="19.259378">
<ele>951.945801</ele>
<time>2012-05-03T12:07:32Z</time>
<desc>lat.=43.172394, lon.=19.259378, Alt.=951.945801m. Speed=11.304000m/h.</desc>
<speed>3.140000</speed>
</trkpt>
<trkpt lat="43.172058" lon="19.259182">
<ele>936.727051</ele>
<time>2012-05-03T12:07:37Z</time>
<desc>lat.=43.172058, lon.=19.259182, Alt.=936.727051m. Speed=12.492000m/h.</desc>
<speed>3.470000</speed>
</trkpt>
<trkpt lat="43.172100" lon="19.258963">
<ele>929.648926</ele>
<time>2012-05-03T12:07:42Z</time>
<desc>lat.=43.172100, lon.=19.258963, Alt.=929.648926m. Speed=11.844000m/h.</desc>
<speed>3.290000</speed>
</trkpt>
<trkpt lat="43.172161" lon="19.258913">
<ele>926.289551</ele>
<time>2012-05-03T12:07:47Z</time>
<desc>lat.=43.172161, lon.=19.258913, Alt.=926.289551m. Speed=8.244000m/h.</desc>
<speed>2.290000</speed>
</trkpt>
<trkpt lat="43.172230" lon="19.258862">
<ele>918.602051</ele>
<time>2012-05-03T12:07:52Z</time>
<desc>lat.=43.172230, lon.=19.258862, Alt.=918.602051m. Speed=8.640000m/h.</desc>
<speed>2.400000</speed>
</trkpt>
<trkpt lat="43.172264" lon="19.258873">
<ele>917.570801</ele>
<time>2012-05-03T12:07:57Z</time>
<desc>lat.=43.172264, lon.=19.258873, Alt.=917.570801m. Speed=9.540000m/h.</desc>
<speed>2.650000</speed>
</trkpt>
<trkpt lat="43.172344" lon="19.258827">
<ele>913.945801</ele>
<time>2012-05-03T12:08:02Z</time>
<desc>lat.=43.172344, lon.=19.258827, Alt.=913.945801m. Speed=6.984000m/h.</desc>
<speed>1.940000</speed>
</trkpt>
<trkpt lat="43.172386" lon="19.258749">
<ele>915.586426</ele>
<time>2012-05-03T12:08:07Z</time>
<desc>lat.=43.172386, lon.=19.258749, Alt.=915.586426m. Speed=8.712000m/h.</desc>
<speed>2.420000</speed>
</trkpt>
<trkpt lat="43.172432" lon="19.258665">
<ele>917.242676</ele>
<time>2012-05-03T12:08:12Z</time>
<desc>lat.=43.172432, lon.=19.258665, Alt.=917.242676m. Speed=4.248000m/h.</desc>
<speed>1.180000</speed>
</trkpt>
<trkpt lat="43.172523" lon="19.258574">
<ele>918.914551</ele>
<time>2012-05-03T12:08:17Z</time>
<desc>lat.=43.172523, lon.=19.258574, Alt.=918.914551m. Speed=6.732000m/h.</desc>
<speed>1.870000</speed>
</trkpt>
<trkpt lat="43.172596" lon="19.258465">
<ele>920.352051</ele>
<time>2012-05-03T12:08:22Z</time>
<desc>lat.=43.172596, lon.=19.258465, Alt.=920.352051m. Speed=5.472000m/h.</desc>
<speed>1.520000</speed>
</trkpt>
<trkpt lat="43.172630" lon="19.258362">
<ele>921.305176</ele>
<time>2012-05-03T12:08:27Z</time>
<desc>lat.=43.172630, lon.=19.258362, Alt.=921.305176m. Speed=6.624000m/h.</desc>
<speed>1.840000</speed>
</trkpt>
<trkpt lat="43.172722" lon="19.258244">
<ele>922.461426</ele>
<time>2012-05-03T12:08:32Z</time>
<desc>lat.=43.172722, lon.=19.258244, Alt.=922.461426m. Speed=10.512000m/h.</desc>
<speed>2.920000</speed>
</trkpt>
<trkpt lat="43.173744" lon="19.259092">
<ele>903.180176</ele>
<time>2012-05-03T12:08:37Z</time>
<desc>lat.=43.173744, lon.=19.259092, Alt.=903.180176m. Speed=12.132000m/h.</desc>
<speed>3.370000</speed>
</trkpt>
<trkpt lat="43.173977" lon="19.258427">
<ele>898.961426</ele>
<time>2012-05-03T12:08:42Z</time>
<desc>lat.=43.173977, lon.=19.258427, Alt.=898.961426m. Speed=9.144000m/h.</desc>
<speed>2.540000</speed>
</trkpt>
<trkpt lat="43.173996" lon="19.258202">
<ele>897.461426</ele>
<time>2012-05-03T12:08:47Z</time>
<desc>lat.=43.173996, lon.=19.258202, Alt.=897.461426m. Speed=6.084000m/h.</desc>
<speed>1.690000</speed>
</trkpt>
<trkpt lat="43.174046" lon="19.258123">
<ele>895.742676</ele>
<time>2012-05-03T12:08:52Z</time>
<desc>lat.=43.174046, lon.=19.258123, Alt.=895.742676m. Speed=4.896000m/h.</desc>
<speed>1.360000</speed>
</trkpt>
<trkpt lat="43.174129" lon="19.257948">
<ele>897.680176</ele>
<time>2012-05-03T12:08:57Z</time>
<desc>lat.=43.174129, lon.=19.257948, Alt.=897.680176m. Speed=9.756000m/h.</desc>
<speed>2.710000</speed>
</trkpt>
<trkpt lat="43.174255" lon="19.257782">
<ele>900.883301</ele>
<time>2012-05-03T12:09:02Z</time>
<desc>lat.=43.174255, lon.=19.257782, Alt.=900.883301m. Speed=8.676000m/h.</desc>
<speed>2.410000</speed>
</trkpt>
<trkpt lat="43.174416" lon="19.257599">
<ele>904.477051</ele>
<time>2012-05-03T12:09:07Z</time>
<desc>lat.=43.174416, lon.=19.257599, Alt.=904.477051m. Speed=12.636000m/h.</desc>
<speed>3.510000</speed>
</trkpt>
<trkpt lat="43.174511" lon="19.257441">
<ele>908.086426</ele>
<time>2012-05-03T12:09:12Z</time>
<desc>lat.=43.174511, lon.=19.257441, Alt.=908.086426m. Speed=10.836000m/h.</desc>
<speed>3.010000</speed>
</trkpt>
<trkpt lat="43.174541" lon="19.257296">
<ele>911.836426</ele>
<time>2012-05-03T12:09:17Z</time>
<desc>lat.=43.174541, lon.=19.257296, Alt.=911.836426m. Speed=7.848000m/h.</desc>
<speed>2.180000</speed>
</trkpt>
<trkpt lat="43.174644" lon="19.257147">
<ele>915.742676</ele>
<time>2012-05-03T12:09:22Z</time>
<desc>lat.=43.174644, lon.=19.257147, Alt.=915.742676m. Speed=8.604000m/h.</desc>
<speed>2.390000</speed>
</trkpt>
<trkpt lat="43.174740" lon="19.257015">
<ele>920.039551</ele>
<time>2012-05-03T12:09:27Z</time>
<desc>lat.=43.174740, lon.=19.257015, Alt.=920.039551m. Speed=7.884000m/h.</desc>
<speed>2.190000</speed>
</trkpt>
<trkpt lat="43.174839" lon="19.256922">
<ele>924.180176</ele>
<time>2012-05-03T12:09:32Z</time>
<desc>lat.=43.174839, lon.=19.256922, Alt.=924.180176m. Speed=8.568000m/h.</desc>
<speed>2.380000</speed>
</trkpt>
<trkpt lat="43.174938" lon="19.256823">
<ele>928.555176</ele>
<time>2012-05-03T12:09:37Z</time>
<desc>lat.=43.174938, lon.=19.256823, Alt.=928.555176m. Speed=8.244000m/h.</desc>
<speed>2.290000</speed>
</trkpt>
<trkpt lat="43.175026" lon="19.256754">
<ele>932.961426</ele>
<time>2012-05-03T12:09:42Z</time>
<desc>lat.=43.175026, lon.=19.256754, Alt.=932.961426m. Speed=7.380000m/h.</desc>
<speed>2.050000</speed>
</trkpt>
<trkpt lat="43.175095" lon="19.256685">
<ele>937.289551</ele>
<time>2012-05-03T12:09:47Z</time>
<desc>lat.=43.175095, lon.=19.256685, Alt.=937.289551m. Speed=5.652000m/h.</desc>
<speed>1.570000</speed>
</trkpt>
<trkpt lat="43.175148" lon="19.256624">
<ele>941.539551</ele>
<time>2012-05-03T12:09:52Z</time>
<desc>lat.=43.175148, lon.=19.256624, Alt.=941.539551m. Speed=7.344000m/h.</desc>
<speed>2.040000</speed>
</trkpt>
<trkpt lat="43.175179" lon="19.256504">
<ele>949.398926</ele>
<time>2012-05-03T12:09:57Z</time>
<desc>lat.=43.175179, lon.=19.256504, Alt.=949.398926m. Speed=5.580000m/h.</desc>
<speed>1.550000</speed>
</trkpt>
<trkpt lat="43.175293" lon="19.256506">
<ele>955.539551</ele>
<time>2012-05-03T12:10:02Z</time>
<desc>lat.=43.175293, lon.=19.256506, Alt.=955.539551m. Speed=5.940000m/h.</desc>
<speed>1.650000</speed>
</trkpt>
<trkpt lat="43.175400" lon="19.256403">
<ele>961.727051</ele>
<time>2012-05-03T12:10:07Z</time>
<desc>lat.=43.175400, lon.=19.256403, Alt.=961.727051m. Speed=8.676000m/h.</desc>
<speed>2.410000</speed>
</trkpt>
<trkpt lat="43.175510" lon="19.256317">
<ele>967.695801</ele>
<time>2012-05-03T12:10:12Z</time>
<desc>lat.=43.175510, lon.=19.256317, Alt.=967.695801m. Speed=9.360000m/h.</desc>
<speed>2.600000</speed>
</trkpt>
<trkpt lat="43.175602" lon="19.256229">
<ele>973.242676</ele>
<time>2012-05-03T12:10:17Z</time>
<desc>lat.=43.175602, lon.=19.256229, Alt.=973.242676m. Speed=7.164000m/h.</desc>
<speed>1.990000</speed>
</trkpt>
<trkpt lat="43.175713" lon="19.256210">
<ele>977.195801</ele>
<time>2012-05-03T12:10:22Z</time>
<desc>lat.=43.175713, lon.=19.256210, Alt.=977.195801m. Speed=3.096000m/h.</desc>
<speed>0.860000</speed>
</trkpt>
<trkpt lat="43.175808" lon="19.256197">
<ele>981.555176</ele>
<time>2012-05-03T12:10:27Z</time>
<desc>lat.=43.175808, lon.=19.256197, Alt.=981.555176m. Speed=5.256000m/h.</desc>
<speed>1.460000</speed>
</trkpt>
<trkpt lat="43.175827" lon="19.256144">
<ele>985.961426</ele>
<time>2012-05-03T12:10:32Z</time>
<desc>lat.=43.175827, lon.=19.256144, Alt.=985.961426m. Speed=6.732000m/h.</desc>
<speed>1.870000</speed>
</trkpt>
<trkpt lat="43.175777" lon="19.256044">
<ele>989.492676</ele>
<time>2012-05-03T12:10:37Z</time>
<desc>lat.=43.175777, lon.=19.256044, Alt.=989.492676m. Speed=5.940000m/h.</desc>
<speed>1.650000</speed>
</trkpt>
<trkpt lat="43.175823" lon="19.255819">
<ele>993.211426</ele>
<time>2012-05-03T12:10:42Z</time>
<desc>lat.=43.175823, lon.=19.255819, Alt.=993.211426m. Speed=8.424000m/h.</desc>
<speed>2.340000</speed>
</trkpt>
<trkpt lat="43.175938" lon="19.255640">
<ele>997.289551</ele>
<time>2012-05-03T12:10:47Z</time>
<desc>lat.=43.175938, lon.=19.255640, Alt.=997.289551m. Speed=10.080000m/h.</desc>
<speed>2.800000</speed>
</trkpt>
<trkpt lat="43.176048" lon="19.255537">
<ele>1001.820801</ele>
<time>2012-05-03T12:10:52Z</time>
<desc>lat.=43.176048, lon.=19.255537, Alt.=1001.820801m. Speed=8.604000m/h.</desc>
<speed>2.390000</speed>
</trkpt>
<trkpt lat="43.176243" lon="19.255440">
<ele>1006.805176</ele>
<time>2012-05-03T12:10:57Z</time>
<desc>lat.=43.176243, lon.=19.255440, Alt.=1006.805176m. Speed=10.692000m/h.</desc>
<speed>2.970000</speed>
</trkpt>
<trkpt lat="43.176384" lon="19.255348">
<ele>1011.898926</ele>
<time>2012-05-03T12:11:02Z</time>
<desc>lat.=43.176384, lon.=19.255348, Alt.=1011.898926m. Speed=9.864000m/h.</desc>
<speed>2.740000</speed>
</trkpt>
<trkpt lat="43.176510" lon="19.255243">
<ele>1016.820801</ele>
<time>2012-05-03T12:11:07Z</time>
<desc>lat.=43.176510, lon.=19.255243, Alt.=1016.820801m. Speed=11.628000m/h.</desc>
<speed>3.230000</speed>
</trkpt>
<trkpt lat="43.176624" lon="19.255117">
<ele>1021.570801</ele>
<time>2012-05-03T12:11:12Z</time>
<desc>lat.=43.176624, lon.=19.255117, Alt.=1021.570801m. Speed=9.720000m/h.</desc>
<speed>2.700000</speed>
</trkpt>
<trkpt lat="43.176689" lon="19.254972">
<ele>1025.704102</ele>
<time>2012-05-03T12:11:17Z</time>
<desc>lat.=43.176689, lon.=19.254972, Alt.=1025.704102m. Speed=9.828000m/h.</desc>
<speed>2.730000</speed>
</trkpt>
<trkpt lat="43.176804" lon="19.254860">
<ele>1030.047852</ele>
<time>2012-05-03T12:11:22Z</time>
<desc>lat.=43.176804, lon.=19.254860, Alt.=1030.047852m. Speed=8.712000m/h.</desc>
<speed>2.420000</speed>
</trkpt>
<trkpt lat="43.176849" lon="19.254725">
<ele>1034.297852</ele>
<time>2012-05-03T12:11:27Z</time>
<desc>lat.=43.176849, lon.=19.254725, Alt.=1034.297852m. Speed=10.728000m/h.</desc>
<speed>2.980000</speed>
</trkpt>
<trkpt lat="43.176903" lon="19.254555">
<ele>1038.735352</ele>
<time>2012-05-03T12:11:32Z</time>
<desc>lat.=43.176903, lon.=19.254555, Alt.=1038.735352m. Speed=11.700000m/h.</desc>
<speed>3.250000</speed>
</trkpt>
<trkpt lat="43.176987" lon="19.254370">
<ele>1042.954102</ele>
<time>2012-05-03T12:11:37Z</time>
<desc>lat.=43.176987, lon.=19.254370, Alt.=1042.954102m. Speed=11.304000m/h.</desc>
<speed>3.140000</speed>
</trkpt>
<trkpt lat="43.176994" lon="19.254181">
<ele>1046.860352</ele>
<time>2012-05-03T12:11:42Z</time>
<desc>lat.=43.176994, lon.=19.254181, Alt.=1046.860352m. Speed=9.684000m/h.</desc>
<speed>2.690000</speed>
</trkpt>
<trkpt lat="43.176933" lon="19.254019">
<ele>1051.266602</ele>
<time>2012-05-03T12:11:47Z</time>
<desc>lat.=43.176933, lon.=19.254019, Alt.=1051.266602m. Speed=11.736000m/h.</desc>
<speed>3.260000</speed>
</trkpt>
<trkpt lat="43.176891" lon="19.253820">
<ele>1056.110352</ele>
<time>2012-05-03T12:11:52Z</time>
<desc>lat.=43.176891, lon.=19.253820, Alt.=1056.110352m. Speed=11.088000m/h.</desc>
<speed>3.080000</speed>
</trkpt>
<trkpt lat="43.176815" lon="19.253609">
<ele>1060.985352</ele>
<time>2012-05-03T12:11:57Z</time>
<desc>lat.=43.176815, lon.=19.253609, Alt.=1060.985352m. Speed=13.500000m/h.</desc>
<speed>3.750000</speed>
</trkpt>
<trkpt lat="43.176720" lon="19.253395">
<ele>1064.204102</ele>
<time>2012-05-03T12:12:02Z</time>
<desc>lat.=43.176720, lon.=19.253395, Alt.=1064.204102m. Speed=12.096000m/h.</desc>
<speed>3.360000</speed>
</trkpt>
<trkpt lat="43.176651" lon="19.253216">
<ele>1067.110352</ele>
<time>2012-05-03T12:12:07Z</time>
<desc>lat.=43.176651, lon.=19.253216, Alt.=1067.110352m. Speed=13.716000m/h.</desc>
<speed>3.810000</speed>
</trkpt>
<trkpt lat="43.176563" lon="19.253042">
<ele>1069.141602</ele>
<time>2012-05-03T12:12:12Z</time>
<desc>lat.=43.176563, lon.=19.253042, Alt.=1069.141602m. Speed=10.656000m/h.</desc>
<speed>2.960000</speed>
</trkpt>
<trkpt lat="43.176449" lon="19.252926">
<ele>1072.141602</ele>
<time>2012-05-03T12:12:17Z</time>
<desc>lat.=43.176449, lon.=19.252926, Alt.=1072.141602m. Speed=9.252000m/h.</desc>
<speed>2.570000</speed>
</trkpt>
<trkpt lat="43.176460" lon="19.252909">
<ele>1073.704102</ele>
<time>2012-05-03T12:12:22Z</time>
<desc>lat.=43.176460, lon.=19.252909, Alt.=1073.704102m. Speed=4.104000m/h.</desc>
<speed>1.140000</speed>
</trkpt>
<trkpt lat="43.176529" lon="19.252934">
<ele>1076.391602</ele>
<time>2012-05-03T12:12:27Z</time>
<desc>lat.=43.176529, lon.=19.252934, Alt.=1076.391602m. Speed=4.536000m/h.</desc>
<speed>1.260000</speed>
</trkpt>
<trkpt lat="43.176563" lon="19.252924">
<ele>1077.954102</ele>
<time>2012-05-03T12:12:32Z</time>
<desc>lat.=43.176563, lon.=19.252924, Alt.=1077.954102m. Speed=3.384000m/h.</desc>
<speed>0.940000</speed>
</trkpt>
<trkpt lat="43.176575" lon="19.252922">
<ele>1079.579102</ele>
<time>2012-05-03T12:12:37Z</time>
<desc>lat.=43.176575, lon.=19.252922, Alt.=1079.579102m. Speed=0.144000m/h.</desc>
<speed>0.040000</speed>
</trkpt>
<trkpt lat="43.176586" lon="19.252930">
<ele>1080.985352</ele>
<time>2012-05-03T12:12:42Z</time>
<desc>lat.=43.176586, lon.=19.252930, Alt.=1080.985352m. Speed=1.620000m/h.</desc>
<speed>0.450000</speed>
</trkpt>
<trkpt lat="43.176594" lon="19.252949">
<ele>1082.204102</ele>
<time>2012-05-03T12:12:47Z</time>
<desc>lat.=43.176594, lon.=19.252949, Alt.=1082.204102m. Speed=0.684000m/h.</desc>
<speed>0.190000</speed>
</trkpt>
<trkpt lat="43.176598" lon="19.252949">
<ele>1083.141602</ele>
<time>2012-05-03T12:12:52Z</time>
<desc>lat.=43.176598, lon.=19.252949, Alt.=1083.141602m. Speed=0.864000m/h.</desc>
<speed>0.240000</speed>
</trkpt>
<trkpt lat="43.176598" lon="19.252964">
<ele>1083.704102</ele>
<time>2012-05-03T12:12:57Z</time>
<desc>lat.=43.176598, lon.=19.252964, Alt.=1083.704102m. Speed=0.792000m/h.</desc>
<speed>0.220000</speed>
</trkpt>
<trkpt lat="43.176590" lon="19.252972">
<ele>1083.954102</ele>
<time>2012-05-03T12:13:02Z</time>
<desc>lat.=43.176590, lon.=19.252972, Alt.=1083.954102m. Speed=0.756000m/h.</desc>
<speed>0.210000</speed>
</trkpt>
<trkpt lat="43.176582" lon="19.252981">
<ele>1084.079102</ele>
<time>2012-05-03T12:13:07Z</time>
<desc>lat.=43.176582, lon.=19.252981, Alt.=1084.079102m. Speed=1.044000m/h.</desc>
<speed>0.290000</speed>
</trkpt>
<trkpt lat="43.176571" lon="19.252998">
<ele>1084.172852</ele>
<time>2012-05-03T12:13:12Z</time>
<desc>lat.=43.176571, lon.=19.252998, Alt.=1084.172852m. Speed=0.756000m/h.</desc>
<speed>0.210000</speed>
</trkpt>
<trkpt lat="43.176563" lon="19.253012">
<ele>1084.266602</ele>
<time>2012-05-03T12:13:17Z</time>
<desc>lat.=43.176563, lon.=19.253012, Alt.=1084.266602m. Speed=1.260000m/h.</desc>
<speed>0.350000</speed>
</trkpt>
<trkpt lat="43.176579" lon="19.253035">
<ele>1084.329102</ele>
<time>2012-05-03T12:13:22Z</time>
<desc>lat.=43.176579, lon.=19.253035, Alt.=1084.329102m. Speed=2.844000m/h.</desc>
<speed>0.790000</speed>
</trkpt>
<trkpt lat="43.176613" lon="19.253063">
<ele>1084.485352</ele>
<time>2012-05-03T12:13:27Z</time>
<desc>lat.=43.176613, lon.=19.253063, Alt.=1084.485352m. Speed=3.456000m/h.</desc>
<speed>0.960000</speed>
</trkpt>
<trkpt lat="43.176674" lon="19.253130">
<ele>1083.891602</ele>
<time>2012-05-03T12:13:32Z</time>
<desc>lat.=43.176674, lon.=19.253130, Alt.=1083.891602m. Speed=4.644000m/h.</desc>
<speed>1.290000</speed>
</trkpt>
<trkpt lat="43.176746" lon="19.253185">
<ele>1083.454102</ele>
<time>2012-05-03T12:13:37Z</time>
<desc>lat.=43.176746, lon.=19.253185, Alt.=1083.454102m. Speed=5.112000m/h.</desc>
<speed>1.420000</speed>
</trkpt>
<trkpt lat="43.176842" lon="19.253197">
<ele>1083.172852</ele>
<time>2012-05-03T12:13:42Z</time>
<desc>lat.=43.176842, lon.=19.253197, Alt.=1083.172852m. Speed=4.824000m/h.</desc>
<speed>1.340000</speed>
</trkpt>
<trkpt lat="43.176926" lon="19.253237">
<ele>1082.766602</ele>
<time>2012-05-03T12:13:47Z</time>
<desc>lat.=43.176926, lon.=19.253237, Alt.=1082.766602m. Speed=4.644000m/h.</desc>
<speed>1.290000</speed>
</trkpt>
<trkpt lat="43.176987" lon="19.253254">
<ele>1082.172852</ele>
<time>2012-05-03T12:13:52Z</time>
<desc>lat.=43.176987, lon.=19.253254, Alt.=1082.172852m. Speed=3.960000m/h.</desc>
<speed>1.100000</speed>
</trkpt>
<trkpt lat="43.176941" lon="19.253252">
<ele>1081.454102</ele>
<time>2012-05-03T12:13:57Z</time>
<desc>lat.=43.176941, lon.=19.253252, Alt.=1081.454102m. Speed=0.288000m/h.</desc>
<speed>0.080000</speed>
</trkpt>
<trkpt lat="43.176918" lon="19.253242">
<ele>1081.297852</ele>
<time>2012-05-03T12:14:02Z</time>
<desc>lat.=43.176918, lon.=19.253242, Alt.=1081.297852m. Speed=0.828000m/h.</desc>
<speed>0.230000</speed>
</trkpt>
<trkpt lat="43.176910" lon="19.253248">
<ele>1081.329102</ele>
<time>2012-05-03T12:14:07Z</time>
<desc>lat.=43.176910, lon.=19.253248, Alt.=1081.329102m. Speed=1.584000m/h.</desc>
<speed>0.440000</speed>
</trkpt>
<trkpt lat="43.176830" lon="19.253279">
<ele>1080.297852</ele>
<time>2012-05-03T12:14:12Z</time>
<desc>lat.=43.176830, lon.=19.253279, Alt.=1080.297852m. Speed=2.808000m/h.</desc>
<speed>0.780000</speed>
</trkpt>
<trkpt lat="43.176815" lon="19.253269">
<ele>1079.047852</ele>
<time>2012-05-03T12:14:17Z</time>
<desc>lat.=43.176815, lon.=19.253269, Alt.=1079.047852m. Speed=1.584000m/h.</desc>
<speed>0.440000</speed>
</trkpt>
<trkpt lat="43.176785" lon="19.253239">
<ele>1078.047852</ele>
<time>2012-05-03T12:14:22Z</time>
<desc>lat.=43.176785, lon.=19.253239, Alt.=1078.047852m. Speed=1.332000m/h.</desc>
<speed>0.370000</speed>
</trkpt>
<trkpt lat="43.176777" lon="19.253225">
<ele>1077.579102</ele>
<time>2012-05-03T12:14:27Z</time>
<desc>lat.=43.176777, lon.=19.253225, Alt.=1077.579102m. Speed=0.324000m/h.</desc>
<speed>0.090000</speed>
</trkpt>
<trkpt lat="43.176773" lon="19.253199">
<ele>1077.204102</ele>
<time>2012-05-03T12:14:32Z</time>
<desc>lat.=43.176773, lon.=19.253199, Alt.=1077.204102m. Speed=1.008000m/h.</desc>
<speed>0.280000</speed>
</trkpt>
<trkpt lat="43.176727" lon="19.253225">
<ele>1076.704102</ele>
<time>2012-05-03T12:14:37Z</time>
<desc>lat.=43.176727, lon.=19.253225, Alt.=1076.704102m. Speed=1.296000m/h.</desc>
<speed>0.360000</speed>
</trkpt>
<trkpt lat="43.176731" lon="19.253170">
<ele>1076.329102</ele>
<time>2012-05-03T12:14:42Z</time>
<desc>lat.=43.176731, lon.=19.253170, Alt.=1076.329102m. Speed=2.160000m/h.</desc>
<speed>0.600000</speed>
</trkpt>
<trkpt lat="43.176765" lon="19.253099">
<ele>1075.766602</ele>
<time>2012-05-03T12:14:47Z</time>
<desc>lat.=43.176765, lon.=19.253099, Alt.=1075.766602m. Speed=2.052000m/h.</desc>
<speed>0.570000</speed>
</trkpt>
<trkpt lat="43.176743" lon="19.253103">
<ele>1075.016602</ele>
<time>2012-05-03T12:14:52Z</time>
<desc>lat.=43.176743, lon.=19.253103, Alt.=1075.016602m. Speed=1.152000m/h.</desc>
<speed>0.320000</speed>
</trkpt>
<trkpt lat="43.176743" lon="19.253088">
<ele>1074.579102</ele>
<time>2012-05-03T12:14:57Z</time>
<desc>lat.=43.176743, lon.=19.253088, Alt.=1074.579102m. Speed=2.268000m/h.</desc>
<speed>0.630000</speed>
</trkpt>
<trkpt lat="43.176765" lon="19.253029">
<ele>1074.172852</ele>
<time>2012-05-03T12:15:02Z</time>
<desc>lat.=43.176765, lon.=19.253029, Alt.=1074.172852m. Speed=1.692000m/h.</desc>
<speed>0.470000</speed>
</trkpt>
<trkpt lat="43.176727" lon="19.253006">
<ele>1072.954102</ele>
<time>2012-05-03T12:15:07Z</time>
<desc>lat.=43.176727, lon.=19.253006, Alt.=1072.954102m. Speed=1.476000m/h.</desc>
<speed>0.410000</speed>
</trkpt>
<trkpt lat="43.176743" lon="19.252966">
<ele>1072.422852</ele>
<time>2012-05-03T12:15:12Z</time>
<desc>lat.=43.176743, lon.=19.252966, Alt.=1072.422852m. Speed=1.440000m/h.</desc>
<speed>0.400000</speed>
</trkpt>
<trkpt lat="43.176731" lon="19.252935">
<ele>1071.735352</ele>
<time>2012-05-03T12:15:17Z</time>
<desc>lat.=43.176731, lon.=19.252935, Alt.=1071.735352m. Speed=1.548000m/h.</desc>
<speed>0.430000</speed>
</trkpt>
<trkpt lat="43.176750" lon="19.252827">
<ele>1071.422852</ele>
<time>2012-05-03T12:15:22Z</time>
<desc>lat.=43.176750, lon.=19.252827, Alt.=1071.422852m. Speed=3.276000m/h.</desc>
<speed>0.910000</speed>
</trkpt>
<trkpt lat="43.176727" lon="19.252825">
<ele>1070.954102</ele>
<time>2012-05-03T12:15:27Z</time>
<desc>lat.=43.176727, lon.=19.252825, Alt.=1070.954102m. Speed=0.792000m/h.</desc>
<speed>0.220000</speed>
</trkpt>
<trkpt lat="43.176712" lon="19.252817">
<ele>1070.360352</ele>
<time>2012-05-03T12:15:32Z</time>
<desc>lat.=43.176712, lon.=19.252817, Alt.=1070.360352m. Speed=1.080000m/h.</desc>
<speed>0.300000</speed>
</trkpt>
<trkpt lat="43.176727" lon="19.252789">
<ele>1069.922852</ele>
<time>2012-05-03T12:15:37Z</time>
<desc>lat.=43.176727, lon.=19.252789, Alt.=1069.922852m. Speed=1.332000m/h.</desc>
<speed>0.370000</speed>
</trkpt>
<trkpt lat="43.176727" lon="19.252790">
<ele>1069.735352</ele>
<time>2012-05-03T12:15:42Z</time>
<desc>lat.=43.176727, lon.=19.252790, Alt.=1069.735352m. Speed=0.288000m/h.</desc>
<speed>0.080000</speed>
</trkpt>
<trkpt lat="43.176727" lon="19.252787">
<ele>1069.735352</ele>
<time>2012-05-03T12:15:47Z</time>
<desc>lat.=43.176727, lon.=19.252787, Alt.=1069.735352m. Speed=0.648000m/h.</desc>
<speed>0.180000</speed>
</trkpt>
<trkpt lat="43.176750" lon="19.252937">
<ele>1069.391602</ele>
<time>2012-05-03T12:15:52Z</time>
<desc>lat.=43.176750, lon.=19.252937, Alt.=1069.391602m. Speed=2.160000m/h.</desc>
<speed>0.600000</speed>
</trkpt>
<trkpt lat="43.176758" lon="19.253029">
<ele>1069.954102</ele>
<time>2012-05-03T12:15:57Z</time>
<desc>lat.=43.176758, lon.=19.253029, Alt.=1069.954102m. Speed=1.836000m/h.</desc>
<speed>0.510000</speed>
</trkpt>
<trkpt lat="43.176781" lon="19.252995">
<ele>1070.110352</ele>
<time>2012-05-03T12:16:02Z</time>
<desc>lat.=43.176781, lon.=19.252995, Alt.=1070.110352m. Speed=0.504000m/h.</desc>
<speed>0.140000</speed>
</trkpt>
<trkpt lat="43.176891" lon="19.253025">
<ele>1069.797852</ele>
<time>2012-05-03T12:16:07Z</time>
<desc>lat.=43.176891, lon.=19.253025, Alt.=1069.797852m. Speed=1.836000m/h.</desc>
<speed>0.510000</speed>
</trkpt>
<trkpt lat="43.177006" lon="19.253044">
<ele>1069.047852</ele>
<time>2012-05-03T12:16:12Z</time>
<desc>lat.=43.177006, lon.=19.253044, Alt.=1069.047852m. Speed=1.944000m/h.</desc>
<speed>0.540000</speed>
</trkpt>
<trkpt lat="43.177086" lon="19.253010">
<ele>1068.485352</ele>
<time>2012-05-03T12:16:17Z</time>
<desc>lat.=43.177086, lon.=19.253010, Alt.=1068.485352m. Speed=1.440000m/h.</desc>
<speed>0.400000</speed>
</trkpt>
<trkpt lat="43.177113" lon="19.253016">
<ele>1068.204102</ele>
<time>2012-05-03T12:16:22Z</time>
<desc>lat.=43.177113, lon.=19.253016, Alt.=1068.204102m. Speed=0.216000m/h.</desc>
<speed>0.060000</speed>
</trkpt>
<trkpt lat="43.177105" lon="19.252958">
<ele>1067.860352</ele>
<time>2012-05-03T12:16:27Z</time>
<desc>lat.=43.177105, lon.=19.252958, Alt.=1067.860352m. Speed=1.368000m/h.</desc>
<speed>0.380000</speed>
</trkpt>
<trkpt lat="43.176998" lon="19.252890">
<ele>1066.610352</ele>
<time>2012-05-03T12:16:32Z</time>
<desc>lat.=43.176998, lon.=19.252890, Alt.=1066.610352m. Speed=3.600000m/h.</desc>
<speed>1.000000</speed>
</trkpt>
<trkpt lat="43.176991" lon="19.252804">
<ele>1065.579102</ele>
<time>2012-05-03T12:16:37Z</time>
<desc>lat.=43.176991, lon.=19.252804, Alt.=1065.579102m. Speed=1.332000m/h.</desc>
<speed>0.370000</speed>
</trkpt>
<trkpt lat="43.177006" lon="19.252750">
<ele>1062.391602</ele>
<time>2012-05-03T12:16:42Z</time>
<desc>lat.=43.177006, lon.=19.252750, Alt.=1062.391602m. Speed=0.468000m/h.</desc>
<speed>0.130000</speed>
</trkpt>
<trkpt lat="43.176971" lon="19.252781">
<ele>1058.829102</ele>
<time>2012-05-03T12:16:47Z</time>
<desc>lat.=43.176971, lon.=19.252781, Alt.=1058.829102m. Speed=3.276000m/h.</desc>
<speed>0.910000</speed>
</trkpt>
<trkpt lat="43.176865" lon="19.252806">
<ele>1051.797852</ele>
<time>2012-05-03T12:16:52Z</time>
<desc>lat.=43.176865, lon.=19.252806, Alt.=1051.797852m. Speed=3.924000m/h.</desc>
<speed>1.090000</speed>
</trkpt>
<trkpt lat="43.176861" lon="19.252760">
<ele>1046.922852</ele>
<time>2012-05-03T12:16:57Z</time>
<desc>lat.=43.176861, lon.=19.252760, Alt.=1046.922852m. Speed=6.984000m/h.</desc>
<speed>1.940000</speed>
</trkpt>
<trkpt lat="43.176811" lon="19.252735">
<ele>1039.985352</ele>
<time>2012-05-03T12:17:02Z</time>
<desc>lat.=43.176811, lon.=19.252735, Alt.=1039.985352m. Speed=7.992000m/h.</desc>
<speed>2.220000</speed>
</trkpt>
<trkpt lat="43.176727" lon="19.252880">
<ele>1032.610352</ele>
<time>2012-05-03T12:17:07Z</time>
<desc>lat.=43.176727, lon.=19.252880, Alt.=1032.610352m. Speed=3.024000m/h.</desc>
<speed>0.840000</speed>
</trkpt>
<trkpt lat="43.176640" lon="19.252838">
<ele>1027.047852</ele>
<time>2012-05-03T12:17:12Z</time>
<desc>lat.=43.176640, lon.=19.252838, Alt.=1027.047852m. Speed=1.332000m/h.</desc>
<speed>0.370000</speed>
</trkpt>
<trkpt lat="43.176605" lon="19.252796">
<ele>1023.680176</ele>
<time>2012-05-03T12:17:17Z</time>
<desc>lat.=43.176605, lon.=19.252796, Alt.=1023.680176m. Speed=0.576000m/h.</desc>
<speed>0.160000</speed>
</trkpt>
<trkpt lat="43.176601" lon="19.252798">
<ele>1022.758301</ele>
<time>2012-05-03T12:17:22Z</time>
<desc>lat.=43.176601, lon.=19.252798, Alt.=1022.758301m. Speed=1.008000m/h.</desc>
<speed>0.280000</speed>
</trkpt>
<trkpt lat="43.176601" lon="19.252783">
<ele>1022.211426</ele>
<time>2012-05-03T12:17:27Z</time>
<desc>lat.=43.176601, lon.=19.252783, Alt.=1022.211426m. Speed=1.332000m/h.</desc>
<speed>0.370000</speed>
</trkpt>
<trkpt lat="43.176590" lon="19.252783">
<ele>1017.023926</ele>
<time>2012-05-03T12:17:32Z</time>
<desc>lat.=43.176590, lon.=19.252783, Alt.=1017.023926m. Speed=0.072000m/h.</desc>
<speed>0.020000</speed>
</trkpt>
<trkpt lat="43.176590" lon="19.252783">
<ele>1016.289551</ele>
<time>2012-05-03T12:17:37Z</time>
<desc>lat.=43.176590, lon.=19.252783, Alt.=1016.289551m. Speed=0.036000m/h.</desc>
<speed>0.010000</speed>
</trkpt>
<trkpt lat="43.176590" lon="19.252783">
<ele>1015.711426</ele>
<time>2012-05-03T12:17:42Z</time>
<desc>lat.=43.176590, lon.=19.252783, Alt.=1015.711426m. Speed=0.036000m/h.</desc>
<speed>0.010000</speed>
</trkpt>
<trkpt lat="43.176590" lon="19.252783">
<ele>1015.227051</ele>
<time>2012-05-03T12:17:47Z</time>
<desc>lat.=43.176590, lon.=19.252783, Alt.=1015.227051m. Speed=0.036000m/h.</desc>
<speed>0.010000</speed>
</trkpt>
<trkpt lat="43.176590" lon="19.252785">
<ele>1014.711426</ele>
<time>2012-05-03T12:17:52Z</time>
<desc>lat.=43.176590, lon.=19.252785, Alt.=1014.711426m. Speed=0.036000m/h.</desc>
<speed>0.010000</speed>
</trkpt>
<trkpt lat="43.176590" lon="19.252785">
<ele>1014.258301</ele>
<time>2012-05-03T12:17:57Z</time>
<desc>lat.=43.176590, lon.=19.252785, Alt.=1014.258301m. Speed=0.000000m/h.</desc>
<speed>0.000000</speed>
</trkpt>
<trkpt lat="43.176590" lon="19.252787">
<ele>1013.852051</ele>
<time>2012-05-03T12:18:02Z</time>
<desc>lat.=43.176590, lon.=19.252787, Alt.=1013.852051m. Speed=0.000000m/h.</desc>
<speed>0.000000</speed>
</trkpt>
<trkpt lat="43.176590" lon="19.252787">
<ele>1013.383301</ele>
<time>2012-05-03T12:18:07Z</time>
<desc>lat.=43.176590, lon.=19.252787, Alt.=1013.383301m. Speed=0.036000m/h.</desc>
<speed>0.010000</speed>
</trkpt>
<trkpt lat="43.176590" lon="19.252789">
<ele>1012.914551</ele>
<time>2012-05-03T12:18:12Z</time>
<desc>lat.=43.176590, lon.=19.252789, Alt.=1012.914551m. Speed=0.036000m/h.</desc>
<speed>0.010000</speed>
</trkpt>
<trkpt lat="43.176590" lon="19.252789">
<ele>1012.430176</ele>
<time>2012-05-03T12:18:17Z</time>
<desc>lat.=43.176590, lon.=19.252789, Alt.=1012.430176m. Speed=0.000000m/h.</desc>
<speed>0.000000</speed>
</trkpt>
<trkpt lat="43.176590" lon="19.252789">
<ele>1011.945801</ele>
<time>2012-05-03T12:18:22Z</time>
<desc>lat.=43.176590, lon.=19.252789, Alt.=1011.945801m. Speed=0.000000m/h.</desc>
<speed>0.000000</speed>
</trkpt>
<trkpt lat="43.176590" lon="19.252790">
<ele>1011.477051</ele>
<time>2012-05-03T12:18:27Z</time>
<desc>lat.=43.176590, lon.=19.252790, Alt.=1011.477051m. Speed=0.036000m/h.</desc>
<speed>0.010000</speed>
</trkpt>
<trkpt lat="43.176590" lon="19.252790">
<ele>1010.992676</ele>
<time>2012-05-03T12:18:32Z</time>
<desc>lat.=43.176590, lon.=19.252790, Alt.=1010.992676m. Speed=0.036000m/h.</desc>
<speed>0.010000</speed>
</trkpt>
<trkpt lat="43.176590" lon="19.252794">
<ele>1010.617676</ele>
<time>2012-05-03T12:18:37Z</time>
<desc>lat.=43.176590, lon.=19.252794, Alt.=1010.617676m. Speed=0.000000m/h.</desc>
<speed>0.000000</speed>
</trkpt>
<trkpt lat="43.176590" lon="19.252794">
<ele>1010.148926</ele>
<time>2012-05-03T12:18:42Z</time>
<desc>lat.=43.176590, lon.=19.252794, Alt.=1010.148926m. Speed=0.036000m/h.</desc>
<speed>0.010000</speed>
</trkpt>
<trkpt lat="43.176590" lon="19.252796">
<ele>1009.602051</ele>
<time>2012-05-03T12:18:47Z</time>
<desc>lat.=43.176590, lon.=19.252796, Alt.=1009.602051m. Speed=0.072000m/h.</desc>
<speed>0.020000</speed>
</trkpt>
<trkpt lat="43.176590" lon="19.252798">
<ele>1009.039551</ele>
<time>2012-05-03T12:18:52Z</time>
<desc>lat.=43.176590, lon.=19.252798, Alt.=1009.039551m. Speed=0.000000m/h.</desc>
<speed>0.000000</speed>
</trkpt>
<trkpt lat="43.176590" lon="19.252798">
<ele>1008.586426</ele>
<time>2012-05-03T12:18:57Z</time>
<desc>lat.=43.176590, lon.=19.252798, Alt.=1008.586426m. Speed=0.000000m/h.</desc>
<speed>0.000000</speed>
</trkpt>
<trkpt lat="43.176590" lon="19.252800">
<ele>1008.133301</ele>
<time>2012-05-03T12:19:02Z</time>
<desc>lat.=43.176590, lon.=19.252800, Alt.=1008.133301m. Speed=0.036000m/h.</desc>
<speed>0.010000</speed>
</trkpt>
<trkpt lat="43.176590" lon="19.252804">
<ele>1007.602051</ele>
<time>2012-05-03T12:19:07Z</time>
<desc>lat.=43.176590, lon.=19.252804, Alt.=1007.602051m. Speed=0.000000m/h.</desc>
<speed>0.000000</speed>
</trkpt>
<trkpt lat="43.176590" lon="19.252808">
<ele>1007.086426</ele>
<time>2012-05-03T12:19:12Z</time>
<desc>lat.=43.176590, lon.=19.252808, Alt.=1007.086426m. Speed=0.036000m/h.</desc>
<speed>0.010000</speed>
</trkpt>
<trkpt lat="43.176590" lon="19.252811">
<ele>1006.648926</ele>
<time>2012-05-03T12:19:17Z</time>
<desc>lat.=43.176590, lon.=19.252811, Alt.=1006.648926m. Speed=0.036000m/h.</desc>
<speed>0.010000</speed>
</trkpt>
<trkpt lat="43.176590" lon="19.252813">
<ele>1006.211426</ele>
<time>2012-05-03T12:19:22Z</time>
<desc>lat.=43.176590, lon.=19.252813, Alt.=1006.211426m. Speed=0.036000m/h.</desc>
<speed>0.010000</speed>
</trkpt>
<trkpt lat="43.176590" lon="19.252817">
<ele>1005.773926</ele>
<time>2012-05-03T12:19:27Z</time>
<desc>lat.=43.176590, lon.=19.252817, Alt.=1005.773926m. Speed=0.036000m/h.</desc>
<speed>0.010000</speed>
</trkpt>
<trkpt lat="43.176590" lon="19.252819">
<ele>1005.289551</ele>
<time>2012-05-03T12:19:32Z</time>
<desc>lat.=43.176590, lon.=19.252819, Alt.=1005.289551m. Speed=0.000000m/h.</desc>
<speed>0.000000</speed>
</trkpt>
<trkpt lat="43.176590" lon="19.252823">
<ele>1004.836426</ele>
<time>2012-05-03T12:19:37Z</time>
<desc>lat.=43.176590, lon.=19.252823, Alt.=1004.836426m. Speed=0.000000m/h.</desc>
<speed>0.000000</speed>
</trkpt>
<trkpt lat="43.176594" lon="19.252825">
<ele>1004.352051</ele>
<time>2012-05-03T12:19:42Z</time>
<desc>lat.=43.176594, lon.=19.252825, Alt.=1004.352051m. Speed=0.000000m/h.</desc>
<speed>0.000000</speed>
</trkpt>
<trkpt lat="43.176594" lon="19.252827">
<ele>1003.867676</ele>
<time>2012-05-03T12:19:47Z</time>
<desc>lat.=43.176594, lon.=19.252827, Alt.=1003.867676m. Speed=0.000000m/h.</desc>
<speed>0.000000</speed>
</trkpt>
<trkpt lat="43.176594" lon="19.252829">
<ele>1003.352051</ele>
<time>2012-05-03T12:19:52Z</time>
<desc>lat.=43.176594, lon.=19.252829, Alt.=1003.352051m. Speed=0.036000m/h.</desc>
<speed>0.010000</speed>
</trkpt>
<trkpt lat="43.176594" lon="19.252832">
<ele>1002.789551</ele>
<time>2012-05-03T12:19:57Z</time>
<desc>lat.=43.176594, lon.=19.252832, Alt.=1002.789551m. Speed=0.036000m/h.</desc>
<speed>0.010000</speed>
</trkpt>
<trkpt lat="43.176594" lon="19.252836">
<ele>1002.227051</ele>
<time>2012-05-03T12:20:02Z</time>
<desc>lat.=43.176594, lon.=19.252836, Alt.=1002.227051m. Speed=0.036000m/h.</desc>
<speed>0.010000</speed>
</trkpt>
<trkpt lat="43.176594" lon="19.252840">
<ele>1001.742676</ele>
<time>2012-05-03T12:20:07Z</time>
<desc>lat.=43.176594, lon.=19.252840, Alt.=1001.742676m. Speed=0.000000m/h.</desc>
<speed>0.000000</speed>
</trkpt>
<trkpt lat="43.176598" lon="19.252842">
<ele>1001.242676</ele>
<time>2012-05-03T12:20:12Z</time>
<desc>lat.=43.176598, lon.=19.252842, Alt.=1001.242676m. Speed=0.036000m/h.</desc>
<speed>0.010000</speed>
</trkpt>
<trkpt lat="43.176598" lon="19.252846">
<ele>1000.758301</ele>
<time>2012-05-03T12:20:17Z</time>
<desc>lat.=43.176598, lon.=19.252846, Alt.=1000.758301m. Speed=0.000000m/h.</desc>
<speed>0.000000</speed>
</trkpt>
<trkpt lat="43.176598" lon="19.252848">
<ele>1000.289551</ele>
<time>2012-05-03T12:20:22Z</time>
<desc>lat.=43.176598, lon.=19.252848, Alt.=1000.289551m. Speed=0.036000m/h.</desc>
<speed>0.010000</speed>
</trkpt>
<trkpt lat="43.176598" lon="19.252851">
<ele>999.805176</ele>
<time>2012-05-03T12:20:27Z</time>
<desc>lat.=43.176598, lon.=19.252851, Alt.=999.805176m. Speed=0.000000m/h.</desc>
<speed>0.000000</speed>
</trkpt>
<trkpt lat="43.176598" lon="19.252853">
<ele>999.305176</ele>
<time>2012-05-03T12:20:32Z</time>
<desc>lat.=43.176598, lon.=19.252853, Alt.=999.305176m. Speed=0.036000m/h.</desc>
<speed>0.010000</speed>
</trkpt>
<trkpt lat="43.176598" lon="19.252855">
<ele>998.836426</ele>
<time>2012-05-03T12:20:37Z</time>
<desc>lat.=43.176598, lon.=19.252855, Alt.=998.836426m. Speed=0.036000m/h.</desc>
<speed>0.010000</speed>
</trkpt>
<trkpt lat="43.176598" lon="19.252857">
<ele>998.320801</ele>
<time>2012-05-03T12:20:42Z</time>
<desc>lat.=43.176598, lon.=19.252857, Alt.=998.320801m. Speed=0.036000m/h.</desc>
<speed>0.010000</speed>
</trkpt>
<trkpt lat="43.176598" lon="19.252857">
<ele>997.680176</ele>
<time>2012-05-03T12:20:47Z</time>
<desc>lat.=43.176598, lon.=19.252857, Alt.=997.680176m. Speed=0.072000m/h.</desc>
<speed>0.020000</speed>
</trkpt>
<trkpt lat="43.176598" lon="19.252859">
<ele>997.008301</ele>
<time>2012-05-03T12:20:52Z</time>
<desc>lat.=43.176598, lon.=19.252859, Alt.=997.008301m. Speed=0.036000m/h.</desc>
<speed>0.010000</speed>
</trkpt>
<trkpt lat="43.176598" lon="19.252861">
<ele>996.336426</ele>
<time>2012-05-03T12:20:57Z</time>
<desc>lat.=43.176598, lon.=19.252861, Alt.=996.336426m. Speed=0.036000m/h.</desc>
<speed>0.010000</speed>
</trkpt>
<trkpt lat="43.176598" lon="19.252865">
<ele>995.695801</ele>
<time>2012-05-03T12:21:02Z</time>
<desc>lat.=43.176598, lon.=19.252865, Alt.=995.695801m. Speed=0.036000m/h.</desc>
<speed>0.010000</speed>
</trkpt>
<trkpt lat="43.176598" lon="19.252869">
<ele>995.039551</ele>
<time>2012-05-03T12:21:07Z</time>
<desc>lat.=43.176598, lon.=19.252869, Alt.=995.039551m. Speed=0.036000m/h.</desc>
<speed>0.010000</speed>
</trkpt>
<trkpt lat="43.176598" lon="19.252872">
<ele>994.367676</ele>
<time>2012-05-03T12:21:12Z</time>
<desc>lat.=43.176598, lon.=19.252872, Alt.=994.367676m. Speed=0.036000m/h.</desc>
<speed>0.010000</speed>
</trkpt>
<trkpt lat="43.176594" lon="19.252874">
<ele>993.664551</ele>
<time>2012-05-03T12:21:17Z</time>
<desc>lat.=43.176594, lon.=19.252874, Alt.=993.664551m. Speed=0.036000m/h.</desc>
<speed>0.010000</speed>
</trkpt>
<trkpt lat="43.176598" lon="19.252878">
<ele>992.930176</ele>
<time>2012-05-03T12:21:22Z</time>
<desc>lat.=43.176598, lon.=19.252878, Alt.=992.930176m. Speed=0.000000m/h.</desc>
<speed>0.000000</speed>
</trkpt>
<trkpt lat="43.176594" lon="19.252882">
<ele>992.227051</ele>
<time>2012-05-03T12:21:27Z</time>
<desc>lat.=43.176594, lon.=19.252882, Alt.=992.227051m. Speed=0.072000m/h.</desc>
<speed>0.020000</speed>
</trkpt>
<trkpt lat="43.176594" lon="19.252890">
<ele>991.477051</ele>
<time>2012-05-03T12:21:32Z</time>
<desc>lat.=43.176594, lon.=19.252890, Alt.=991.477051m. Speed=0.000000m/h.</desc>
<speed>0.000000</speed>
</trkpt>
<trkpt lat="43.176594" lon="19.252897">
<ele>990.727051</ele>
<time>2012-05-03T12:21:37Z</time>
<desc>lat.=43.176594, lon.=19.252897, Alt.=990.727051m. Speed=0.072000m/h.</desc>
<speed>0.020000</speed>
</trkpt>
<trkpt lat="43.176594" lon="19.252901">
<ele>989.883301</ele>
<time>2012-05-03T12:21:42Z</time>
<desc>lat.=43.176594, lon.=19.252901, Alt.=989.883301m. Speed=0.000000m/h.</desc>
<speed>0.000000</speed>
</trkpt>
<trkpt lat="43.176594" lon="19.252907">
<ele>989.070801</ele>
<time>2012-05-03T12:21:47Z</time>
<desc>lat.=43.176594, lon.=19.252907, Alt.=989.070801m. Speed=0.036000m/h.</desc>
<speed>0.010000</speed>
</trkpt>
<trkpt lat="43.176590" lon="19.252909">
<ele>988.211426</ele>
<time>2012-05-03T12:21:52Z</time>
<desc>lat.=43.176590, lon.=19.252909, Alt.=988.211426m. Speed=0.108000m/h.</desc>
<speed>0.030000</speed>
</trkpt>
<trkpt lat="43.176590" lon="19.252914">
<ele>987.352051</ele>
<time>2012-05-03T12:21:57Z</time>
<desc>lat.=43.176590, lon.=19.252914, Alt.=987.352051m. Speed=0.036000m/h.</desc>
<speed>0.010000</speed>
</trkpt>
<trkpt lat="43.176590" lon="19.252916">
<ele>986.492676</ele>
<time>2012-05-03T12:22:02Z</time>
<desc>lat.=43.176590, lon.=19.252916, Alt.=986.492676m. Speed=0.000000m/h.</desc>
<speed>0.000000</speed>
</trkpt>
<trkpt lat="43.176590" lon="19.252913">
<ele>985.711426</ele>
<time>2012-05-03T12:22:07Z</time>
<desc>lat.=43.176590, lon.=19.252913, Alt.=985.711426m. Speed=0.000000m/h.</desc>
<speed>0.000000</speed>
</trkpt>
<trkpt lat="43.176586" lon="19.252911">
<ele>984.961426</ele>
<time>2012-05-03T12:22:12Z</time>
<desc>lat.=43.176586, lon.=19.252911, Alt.=984.961426m. Speed=0.000000m/h.</desc>
<speed>0.000000</speed>
</trkpt>
<trkpt lat="43.176582" lon="19.252907">
<ele>984.133301</ele>
<time>2012-05-03T12:22:17Z</time>
<desc>lat.=43.176582, lon.=19.252907, Alt.=984.133301m. Speed=0.072000m/h.</desc>
<speed>0.020000</speed>
</trkpt>
<trkpt lat="43.176579" lon="19.252903">
<ele>983.398926</ele>
<time>2012-05-03T12:22:22Z</time>
<desc>lat.=43.176579, lon.=19.252903, Alt.=983.398926m. Speed=0.000000m/h.</desc>
<speed>0.000000</speed>
</trkpt>
<trkpt lat="43.176575" lon="19.252901">
<ele>982.742676</ele>
<time>2012-05-03T12:22:27Z</time>
<desc>lat.=43.176575, lon.=19.252901, Alt.=982.742676m. Speed=0.072000m/h.</desc>
<speed>0.020000</speed>
</trkpt>
<trkpt lat="43.176575" lon="19.252901">
<ele>982.039551</ele>
<time>2012-05-03T12:22:32Z</time>
<desc>lat.=43.176575, lon.=19.252901, Alt.=982.039551m. Speed=0.036000m/h.</desc>
<speed>0.010000</speed>
</trkpt>
<trkpt lat="43.176571" lon="19.252905">
<ele>981.164551</ele>
<time>2012-05-03T12:22:37Z</time>
<desc>lat.=43.176571, lon.=19.252905, Alt.=981.164551m. Speed=0.036000m/h.</desc>
<speed>0.010000</speed>
</trkpt>
<trkpt lat="43.176571" lon="19.252913">
<ele>980.086426</ele>
<time>2012-05-03T12:22:42Z</time>
<desc>lat.=43.176571, lon.=19.252913, Alt.=980.086426m. Speed=0.000000m/h.</desc>
<speed>0.000000</speed>
</trkpt>
<trkpt lat="43.176556" lon="19.252869">
<ele>979.617676</ele>
<time>2012-05-03T12:22:47Z</time>
<desc>lat.=43.176556, lon.=19.252869, Alt.=979.617676m. Speed=0.324000m/h.</desc>
<speed>0.090000</speed>
</trkpt>
<trkpt lat="43.176586" lon="19.252880">
<ele>979.352051</ele>
<time>2012-05-03T12:22:52Z</time>
<desc>lat.=43.176586, lon.=19.252880, Alt.=979.352051m. Speed=2.412000m/h.</desc>
<speed>0.670000</speed>
</trkpt>
<trkpt lat="43.176563" lon="19.253019">
<ele>977.258301</ele>
<time>2012-05-03T12:22:57Z</time>
<desc>lat.=43.176563, lon.=19.253019, Alt.=977.258301m. Speed=3.528000m/h.</desc>
<speed>0.980000</speed>
</trkpt>
</trkseg>
</trk>
</gpx>